<?xml version="1.0" encoding="UTF-8" standalone="no" ?>
<gpx xmlns="http://www.topografix.com/GPX/1/1" xmlns:xsi="http://www.w3.org/2001/XMLSchema-instance" xsi:schemaLocation="http://www.topografix.com/GPX/1/1 http://www.topografix.com/GPX/1/1/gpx.xsd" version="1.1" creator="VisuGPX - https://www.visugpx.com">
  <metadata>
    <name>Eau d'heure 08-08-24</name>
  </metadata>
  <trk>
    <name><![CDATA[Eau d'heure 08-08-24_1]]></name>
    <trkseg>
      <trkpt lat="50.17023" lon="4.41216">
        <ele>139.8</ele>
        <time>2024-08-08T12:01:49Z</time>
      </trkpt>
      <trkpt lat="50.17022" lon="4.41219">
        <ele>144.4</ele>
        <time>2024-08-08T12:01:57Z</time>
      </trkpt>
      <trkpt lat="50.17022" lon="4.41218">
        <ele>150</ele>
        <time>2024-08-08T12:02:05Z</time>
      </trkpt>
      <trkpt lat="50.1702" lon="4.41223">
        <ele>154</ele>
        <time>2024-08-08T12:02:10Z</time>
      </trkpt>
      <trkpt lat="50.17023" lon="4.41224">
        <ele>158.2</ele>
        <time>2024-08-08T12:02:17Z</time>
      </trkpt>
      <trkpt lat="50.17029" lon="4.41222">
        <ele>160.6</ele>
        <time>2024-08-08T12:02:22Z</time>
      </trkpt>
      <trkpt lat="50.17031" lon="4.41221">
        <ele>161.2</ele>
        <time>2024-08-08T12:02:23Z</time>
      </trkpt>
      <trkpt lat="50.17042" lon="4.41224">
        <ele>163.6</ele>
        <time>2024-08-08T12:02:28Z</time>
      </trkpt>
      <trkpt lat="50.17054" lon="4.41223">
        <ele>165.6</ele>
        <time>2024-08-08T12:02:32Z</time>
      </trkpt>
      <trkpt lat="50.1706" lon="4.41228">
        <ele>167</ele>
        <time>2024-08-08T12:02:35Z</time>
      </trkpt>
      <trkpt lat="50.17063" lon="4.41235">
        <ele>168</ele>
        <time>2024-08-08T12:02:37Z</time>
      </trkpt>
      <trkpt lat="50.17068" lon="4.41253">
        <ele>170.2</ele>
        <time>2024-08-08T12:02:42Z</time>
      </trkpt>
      <trkpt lat="50.17067" lon="4.41264">
        <ele>171.6</ele>
        <time>2024-08-08T12:02:46Z</time>
      </trkpt>
      <trkpt lat="50.17075" lon="4.41272">
        <ele>174.2</ele>
        <time>2024-08-08T12:02:53Z</time>
      </trkpt>
      <trkpt lat="50.17081" lon="4.41265">
        <ele>176</ele>
        <time>2024-08-08T12:02:58Z</time>
      </trkpt>
      <trkpt lat="50.17092" lon="4.41253">
        <ele>181.8</ele>
        <time>2024-08-08T12:03:18Z</time>
      </trkpt>
      <trkpt lat="50.17071" lon="4.41284">
        <ele>186.4</ele>
        <time>2024-08-08T12:03:29Z</time>
      </trkpt>
      <trkpt lat="50.17068" lon="4.41284">
        <ele>188.2</ele>
        <time>2024-08-08T12:03:40Z</time>
      </trkpt>
      <trkpt lat="50.17066" lon="4.41291">
        <ele>190.4</ele>
        <time>2024-08-08T12:03:47Z</time>
      </trkpt>
      <trkpt lat="50.17064" lon="4.41295">
        <ele>193.4</ele>
        <time>2024-08-08T12:03:59Z</time>
      </trkpt>
      <trkpt lat="50.17069" lon="4.41295">
        <ele>197.2</ele>
        <time>2024-08-08T12:04:16Z</time>
      </trkpt>
      <trkpt lat="50.17068" lon="4.41295">
        <ele>200.6</ele>
        <time>2024-08-08T12:04:34Z</time>
      </trkpt>
      <trkpt lat="50.17068" lon="4.41295">
        <ele>203.4</ele>
        <time>2024-08-08T12:04:52Z</time>
      </trkpt>
      <trkpt lat="50.17069" lon="4.41296">
        <ele>206.4</ele>
        <time>2024-08-08T12:05:11Z</time>
      </trkpt>
      <trkpt lat="50.17069" lon="4.41296">
        <ele>208.4</ele>
        <time>2024-08-08T12:05:27Z</time>
      </trkpt>
      <trkpt lat="50.17069" lon="4.41296">
        <ele>210</ele>
        <time>2024-08-08T12:05:44Z</time>
      </trkpt>
      <trkpt lat="50.17069" lon="4.41296">
        <ele>211.4</ele>
        <time>2024-08-08T12:06:00Z</time>
      </trkpt>
      <trkpt lat="50.1707" lon="4.41297">
        <ele>212.2</ele>
        <time>2024-08-08T12:06:14Z</time>
      </trkpt>
      <trkpt lat="50.17073" lon="4.41308">
        <ele>212.4</ele>
        <time>2024-08-08T12:06:18Z</time>
      </trkpt>
      <trkpt lat="50.17074" lon="4.41312">
        <ele>212.6</ele>
        <time>2024-08-08T12:06:20Z</time>
      </trkpt>
      <trkpt lat="50.17077" lon="4.41311">
        <ele>212.6</ele>
        <time>2024-08-08T12:06:22Z</time>
      </trkpt>
      <trkpt lat="50.17078" lon="4.4131">
        <ele>212.6</ele>
        <time>2024-08-08T12:06:23Z</time>
      </trkpt>
      <trkpt lat="50.17078" lon="4.41305">
        <ele>212.6</ele>
        <time>2024-08-08T12:06:25Z</time>
      </trkpt>
      <trkpt lat="50.17071" lon="4.41285">
        <ele>213</ele>
        <time>2024-08-08T12:06:31Z</time>
      </trkpt>
      <trkpt lat="50.17065" lon="4.41258">
        <ele>213.2</ele>
        <time>2024-08-08T12:06:36Z</time>
      </trkpt>
      <trkpt lat="50.17059" lon="4.41235">
        <ele>213.4</ele>
        <time>2024-08-08T12:06:42Z</time>
      </trkpt>
      <trkpt lat="50.17057" lon="4.41233">
        <ele>213.4</ele>
        <time>2024-08-08T12:06:43Z</time>
      </trkpt>
      <trkpt lat="50.17051" lon="4.41232">
        <ele>213.6</ele>
        <time>2024-08-08T12:06:46Z</time>
      </trkpt>
      <trkpt lat="50.17038" lon="4.41233">
        <ele>214</ele>
        <time>2024-08-08T12:06:50Z</time>
      </trkpt>
      <trkpt lat="50.17028" lon="4.4124">
        <ele>214.4</ele>
        <time>2024-08-08T12:06:53Z</time>
      </trkpt>
      <trkpt lat="50.17019" lon="4.41243">
        <ele>214.4</ele>
        <time>2024-08-08T12:06:55Z</time>
      </trkpt>
      <trkpt lat="50.17007" lon="4.41248">
        <ele>214.6</ele>
        <time>2024-08-08T12:06:58Z</time>
      </trkpt>
      <trkpt lat="50.17004" lon="4.41252">
        <ele>214.6</ele>
        <time>2024-08-08T12:06:59Z</time>
      </trkpt>
      <trkpt lat="50.17002" lon="4.41258">
        <ele>214.6</ele>
        <time>2024-08-08T12:07:00Z</time>
      </trkpt>
      <trkpt lat="50.17003" lon="4.41268">
        <ele>214.8</ele>
        <time>2024-08-08T12:07:02Z</time>
      </trkpt>
      <trkpt lat="50.17008" lon="4.41292">
        <ele>215</ele>
        <time>2024-08-08T12:07:07Z</time>
      </trkpt>
      <trkpt lat="50.17006" lon="4.41296">
        <ele>215</ele>
        <time>2024-08-08T12:07:08Z</time>
      </trkpt>
      <trkpt lat="50.16999" lon="4.41297">
        <ele>215.2</ele>
        <time>2024-08-08T12:07:10Z</time>
      </trkpt>
      <trkpt lat="50.16997" lon="4.41296">
        <ele>215.2</ele>
        <time>2024-08-08T12:07:11Z</time>
      </trkpt>
      <trkpt lat="50.16992" lon="4.413">
        <ele>215</ele>
        <time>2024-08-08T12:07:13Z</time>
      </trkpt>
      <trkpt lat="50.16989" lon="4.4131">
        <ele>215.2</ele>
        <time>2024-08-08T12:07:17Z</time>
      </trkpt>
      <trkpt lat="50.16992" lon="4.41329">
        <ele>214.8</ele>
        <time>2024-08-08T12:07:21Z</time>
      </trkpt>
      <trkpt lat="50.16982" lon="4.41345">
        <ele>215.2</ele>
        <time>2024-08-08T12:07:25Z</time>
      </trkpt>
      <trkpt lat="50.16964" lon="4.41352">
        <ele>215</ele>
        <time>2024-08-08T12:07:30Z</time>
      </trkpt>
      <trkpt lat="50.16951" lon="4.41347">
        <ele>215.2</ele>
        <time>2024-08-08T12:07:34Z</time>
      </trkpt>
      <trkpt lat="50.16941" lon="4.41348">
        <ele>215.4</ele>
        <time>2024-08-08T12:07:38Z</time>
      </trkpt>
      <trkpt lat="50.16939" lon="4.41345">
        <ele>215.4</ele>
        <time>2024-08-08T12:07:39Z</time>
      </trkpt>
      <trkpt lat="50.16925" lon="4.41323">
        <ele>215.4</ele>
        <time>2024-08-08T12:07:45Z</time>
      </trkpt>
      <trkpt lat="50.16912" lon="4.41317">
        <ele>215.4</ele>
        <time>2024-08-08T12:07:50Z</time>
      </trkpt>
      <trkpt lat="50.16909" lon="4.41318">
        <ele>215.6</ele>
        <time>2024-08-08T12:07:51Z</time>
      </trkpt>
      <trkpt lat="50.16907" lon="4.41327">
        <ele>215.6</ele>
        <time>2024-08-08T12:07:53Z</time>
      </trkpt>
      <trkpt lat="50.16911" lon="4.4135">
        <ele>215.6</ele>
        <time>2024-08-08T12:07:58Z</time>
      </trkpt>
      <trkpt lat="50.16918" lon="4.41385">
        <ele>216.4</ele>
        <time>2024-08-08T12:08:06Z</time>
      </trkpt>
      <trkpt lat="50.16928" lon="4.41414">
        <ele>217.2</ele>
        <time>2024-08-08T12:08:13Z</time>
      </trkpt>
      <trkpt lat="50.16937" lon="4.41441">
        <ele>218.2</ele>
        <time>2024-08-08T12:08:20Z</time>
      </trkpt>
      <trkpt lat="50.16939" lon="4.41468">
        <ele>219</ele>
        <time>2024-08-08T12:08:26Z</time>
      </trkpt>
      <trkpt lat="50.16937" lon="4.41501">
        <ele>219.8</ele>
        <time>2024-08-08T12:08:33Z</time>
      </trkpt>
      <trkpt lat="50.16937" lon="4.41526">
        <ele>220.8</ele>
        <time>2024-08-08T12:08:39Z</time>
      </trkpt>
      <trkpt lat="50.16947" lon="4.41551">
        <ele>221.6</ele>
        <time>2024-08-08T12:08:45Z</time>
      </trkpt>
      <trkpt lat="50.16957" lon="4.41576">
        <ele>222.2</ele>
        <time>2024-08-08T12:08:51Z</time>
      </trkpt>
      <trkpt lat="50.16965" lon="4.41596">
        <ele>222.8</ele>
        <time>2024-08-08T12:08:56Z</time>
      </trkpt>
      <trkpt lat="50.16973" lon="4.41621">
        <ele>223.2</ele>
        <time>2024-08-08T12:09:02Z</time>
      </trkpt>
      <trkpt lat="50.1698" lon="4.41647">
        <ele>224</ele>
        <time>2024-08-08T12:09:09Z</time>
      </trkpt>
      <trkpt lat="50.16983" lon="4.41663">
        <ele>224.6</ele>
        <time>2024-08-08T12:09:15Z</time>
      </trkpt>
      <trkpt lat="50.16986" lon="4.4168">
        <ele>225.2</ele>
        <time>2024-08-08T12:09:20Z</time>
      </trkpt>
      <trkpt lat="50.16987" lon="4.41682">
        <ele>225.2</ele>
        <time>2024-08-08T12:09:21Z</time>
      </trkpt>
      <trkpt lat="50.16989" lon="4.41689">
        <ele>225.6</ele>
        <time>2024-08-08T12:09:24Z</time>
      </trkpt>
      <trkpt lat="50.16989" lon="4.41696">
        <ele>226</ele>
        <time>2024-08-08T12:09:27Z</time>
      </trkpt>
      <trkpt lat="50.16986" lon="4.41699">
        <ele>226.4</ele>
        <time>2024-08-08T12:09:29Z</time>
      </trkpt>
      <trkpt lat="50.16984" lon="4.41699">
        <ele>226.4</ele>
        <time>2024-08-08T12:09:30Z</time>
      </trkpt>
      <trkpt lat="50.16976" lon="4.41702">
        <ele>227</ele>
        <time>2024-08-08T12:09:34Z</time>
      </trkpt>
      <trkpt lat="50.16966" lon="4.41708">
        <ele>227.4</ele>
        <time>2024-08-08T12:09:39Z</time>
      </trkpt>
      <trkpt lat="50.16962" lon="4.4171">
        <ele>227.8</ele>
        <time>2024-08-08T12:09:43Z</time>
      </trkpt>
      <trkpt lat="50.16958" lon="4.41712">
        <ele>228.2</ele>
        <time>2024-08-08T12:09:45Z</time>
      </trkpt>
      <trkpt lat="50.16953" lon="4.41717">
        <ele>228.4</ele>
        <time>2024-08-08T12:09:47Z</time>
      </trkpt>
      <trkpt lat="50.16934" lon="4.41746">
        <ele>229.8</ele>
        <time>2024-08-08T12:09:56Z</time>
      </trkpt>
      <trkpt lat="50.16922" lon="4.41762">
        <ele>230.8</ele>
        <time>2024-08-08T12:10:02Z</time>
      </trkpt>
      <trkpt lat="50.16915" lon="4.41777">
        <ele>231.4</ele>
        <time>2024-08-08T12:10:07Z</time>
      </trkpt>
      <trkpt lat="50.16899" lon="4.41805">
        <ele>232</ele>
        <time>2024-08-08T12:10:14Z</time>
      </trkpt>
      <trkpt lat="50.16888" lon="4.41822">
        <ele>232.4</ele>
        <time>2024-08-08T12:10:19Z</time>
      </trkpt>
      <trkpt lat="50.16878" lon="4.41833">
        <ele>233</ele>
        <time>2024-08-08T12:10:24Z</time>
      </trkpt>
      <trkpt lat="50.16867" lon="4.41846">
        <ele>233.6</ele>
        <time>2024-08-08T12:10:29Z</time>
      </trkpt>
      <trkpt lat="50.16852" lon="4.41863">
        <ele>234</ele>
        <time>2024-08-08T12:10:36Z</time>
      </trkpt>
      <trkpt lat="50.16851" lon="4.41868">
        <ele>234.2</ele>
        <time>2024-08-08T12:10:38Z</time>
      </trkpt>
      <trkpt lat="50.16852" lon="4.41872">
        <ele>234.2</ele>
        <time>2024-08-08T12:10:39Z</time>
      </trkpt>
      <trkpt lat="50.16862" lon="4.41894">
        <ele>234.4</ele>
        <time>2024-08-08T12:10:44Z</time>
      </trkpt>
      <trkpt lat="50.16872" lon="4.41914">
        <ele>234.8</ele>
        <time>2024-08-08T12:10:49Z</time>
      </trkpt>
      <trkpt lat="50.16883" lon="4.41935">
        <ele>235</ele>
        <time>2024-08-08T12:10:54Z</time>
      </trkpt>
      <trkpt lat="50.16902" lon="4.41957">
        <ele>235.6</ele>
        <time>2024-08-08T12:11:01Z</time>
      </trkpt>
      <trkpt lat="50.16926" lon="4.41974">
        <ele>236.2</ele>
        <time>2024-08-08T12:11:09Z</time>
      </trkpt>
      <trkpt lat="50.16943" lon="4.41961">
        <ele>236.8</ele>
        <time>2024-08-08T12:11:15Z</time>
      </trkpt>
      <trkpt lat="50.16962" lon="4.41954">
        <ele>237.2</ele>
        <time>2024-08-08T12:11:21Z</time>
      </trkpt>
      <trkpt lat="50.16974" lon="4.41958">
        <ele>237.6</ele>
        <time>2024-08-08T12:11:25Z</time>
      </trkpt>
      <trkpt lat="50.16995" lon="4.41973">
        <ele>237.8</ele>
        <time>2024-08-08T12:11:32Z</time>
      </trkpt>
      <trkpt lat="50.17011" lon="4.41991">
        <ele>238</ele>
        <time>2024-08-08T12:11:38Z</time>
      </trkpt>
      <trkpt lat="50.17016" lon="4.42024">
        <ele>238.2</ele>
        <time>2024-08-08T12:11:44Z</time>
      </trkpt>
      <trkpt lat="50.17019" lon="4.42051">
        <ele>238.4</ele>
        <time>2024-08-08T12:11:49Z</time>
      </trkpt>
      <trkpt lat="50.17027" lon="4.42089">
        <ele>238.6</ele>
        <time>2024-08-08T12:11:56Z</time>
      </trkpt>
      <trkpt lat="50.17036" lon="4.42116">
        <ele>238.4</ele>
        <time>2024-08-08T12:12:01Z</time>
      </trkpt>
      <trkpt lat="50.17037" lon="4.42123">
        <ele>238.4</ele>
        <time>2024-08-08T12:12:02Z</time>
      </trkpt>
      <trkpt lat="50.1704" lon="4.42146">
        <ele>238.4</ele>
        <time>2024-08-08T12:12:05Z</time>
      </trkpt>
      <trkpt lat="50.17041" lon="4.42161">
        <ele>238.4</ele>
        <time>2024-08-08T12:12:07Z</time>
      </trkpt>
      <trkpt lat="50.17042" lon="4.42186">
        <ele>238.6</ele>
        <time>2024-08-08T12:12:10Z</time>
      </trkpt>
      <trkpt lat="50.17042" lon="4.42195">
        <ele>238.4</ele>
        <time>2024-08-08T12:12:11Z</time>
      </trkpt>
      <trkpt lat="50.17046" lon="4.42251">
        <ele>238.6</ele>
        <time>2024-08-08T12:12:18Z</time>
      </trkpt>
      <trkpt lat="50.17055" lon="4.42285">
        <ele>238.6</ele>
        <time>2024-08-08T12:12:23Z</time>
      </trkpt>
      <trkpt lat="50.17055" lon="4.42292">
        <ele>238.6</ele>
        <time>2024-08-08T12:12:24Z</time>
      </trkpt>
      <trkpt lat="50.17055" lon="4.42299">
        <ele>238.6</ele>
        <time>2024-08-08T12:12:25Z</time>
      </trkpt>
      <trkpt lat="50.1705" lon="4.42311">
        <ele>238.8</ele>
        <time>2024-08-08T12:12:27Z</time>
      </trkpt>
      <trkpt lat="50.17044" lon="4.42322">
        <ele>239</ele>
        <time>2024-08-08T12:12:29Z</time>
      </trkpt>
      <trkpt lat="50.17041" lon="4.42333">
        <ele>239</ele>
        <time>2024-08-08T12:12:31Z</time>
      </trkpt>
      <trkpt lat="50.17042" lon="4.42358">
        <ele>239</ele>
        <time>2024-08-08T12:12:35Z</time>
      </trkpt>
      <trkpt lat="50.1704" lon="4.42402">
        <ele>239</ele>
        <time>2024-08-08T12:12:41Z</time>
      </trkpt>
      <trkpt lat="50.17039" lon="4.4243">
        <ele>239</ele>
        <time>2024-08-08T12:12:45Z</time>
      </trkpt>
      <trkpt lat="50.17038" lon="4.4245">
        <ele>239.2</ele>
        <time>2024-08-08T12:12:48Z</time>
      </trkpt>
      <trkpt lat="50.17035" lon="4.425">
        <ele>239.6</ele>
        <time>2024-08-08T12:12:56Z</time>
      </trkpt>
      <trkpt lat="50.17031" lon="4.42562">
        <ele>240.2</ele>
        <time>2024-08-08T12:13:05Z</time>
      </trkpt>
      <trkpt lat="50.17029" lon="4.42617">
        <ele>240.6</ele>
        <time>2024-08-08T12:13:13Z</time>
      </trkpt>
      <trkpt lat="50.17027" lon="4.42667">
        <ele>241.4</ele>
        <time>2024-08-08T12:13:21Z</time>
      </trkpt>
      <trkpt lat="50.17023" lon="4.42723">
        <ele>242.4</ele>
        <time>2024-08-08T12:13:30Z</time>
      </trkpt>
      <trkpt lat="50.17021" lon="4.42773">
        <ele>243.2</ele>
        <time>2024-08-08T12:13:38Z</time>
      </trkpt>
      <trkpt lat="50.17018" lon="4.42829">
        <ele>244</ele>
        <time>2024-08-08T12:13:47Z</time>
      </trkpt>
      <trkpt lat="50.17014" lon="4.42896">
        <ele>245</ele>
        <time>2024-08-08T12:13:57Z</time>
      </trkpt>
      <trkpt lat="50.17011" lon="4.42946">
        <ele>246</ele>
        <time>2024-08-08T12:14:05Z</time>
      </trkpt>
      <trkpt lat="50.1701" lon="4.42983">
        <ele>246.6</ele>
        <time>2024-08-08T12:14:12Z</time>
      </trkpt>
      <trkpt lat="50.17009" lon="4.43008">
        <ele>247.2</ele>
        <time>2024-08-08T12:14:18Z</time>
      </trkpt>
      <trkpt lat="50.17009" lon="4.4303">
        <ele>247.8</ele>
        <time>2024-08-08T12:14:23Z</time>
      </trkpt>
      <trkpt lat="50.17011" lon="4.43081">
        <ele>248.8</ele>
        <time>2024-08-08T12:14:32Z</time>
      </trkpt>
      <trkpt lat="50.17011" lon="4.43139">
        <ele>250</ele>
        <time>2024-08-08T12:14:42Z</time>
      </trkpt>
      <trkpt lat="50.17009" lon="4.43182">
        <ele>250.6</ele>
        <time>2024-08-08T12:14:48Z</time>
      </trkpt>
      <trkpt lat="50.17006" lon="4.43259">
        <ele>251.8</ele>
        <time>2024-08-08T12:14:58Z</time>
      </trkpt>
      <trkpt lat="50.17006" lon="4.43326">
        <ele>252.6</ele>
        <time>2024-08-08T12:15:07Z</time>
      </trkpt>
      <trkpt lat="50.17005" lon="4.4338">
        <ele>253.4</ele>
        <time>2024-08-08T12:15:14Z</time>
      </trkpt>
      <trkpt lat="50.16999" lon="4.43448">
        <ele>254.4</ele>
        <time>2024-08-08T12:15:23Z</time>
      </trkpt>
      <trkpt lat="50.16992" lon="4.43518">
        <ele>255.4</ele>
        <time>2024-08-08T12:15:32Z</time>
      </trkpt>
      <trkpt lat="50.16989" lon="4.43592">
        <ele>256.6</ele>
        <time>2024-08-08T12:15:41Z</time>
      </trkpt>
      <trkpt lat="50.16989" lon="4.436">
        <ele>256.6</ele>
        <time>2024-08-08T12:15:42Z</time>
      </trkpt>
      <trkpt lat="50.16989" lon="4.43615">
        <ele>256.8</ele>
        <time>2024-08-08T12:15:44Z</time>
      </trkpt>
      <trkpt lat="50.16989" lon="4.4363">
        <ele>257</ele>
        <time>2024-08-08T12:15:46Z</time>
      </trkpt>
      <trkpt lat="50.16991" lon="4.43684">
        <ele>257.6</ele>
        <time>2024-08-08T12:15:53Z</time>
      </trkpt>
      <trkpt lat="50.16995" lon="4.43716">
        <ele>258.2</ele>
        <time>2024-08-08T12:15:59Z</time>
      </trkpt>
      <trkpt lat="50.16998" lon="4.43726">
        <ele>258.6</ele>
        <time>2024-08-08T12:16:03Z</time>
      </trkpt>
      <trkpt lat="50.16999" lon="4.43726">
        <ele>259</ele>
        <time>2024-08-08T12:16:10Z</time>
      </trkpt>
      <trkpt lat="50.16999" lon="4.43726">
        <ele>260</ele>
        <time>2024-08-08T12:16:24Z</time>
      </trkpt>
      <trkpt lat="50.16999" lon="4.43726">
        <ele>261.2</ele>
        <time>2024-08-08T12:16:43Z</time>
      </trkpt>
      <trkpt lat="50.16999" lon="4.43725">
        <ele>261.4</ele>
        <time>2024-08-08T12:16:51Z</time>
      </trkpt>
      <trkpt lat="50.16999" lon="4.43725">
        <ele>262.4</ele>
        <time>2024-08-08T12:17:13Z</time>
      </trkpt>
      <trkpt lat="50.16999" lon="4.43725">
        <ele>263</ele>
        <time>2024-08-08T12:17:34Z</time>
      </trkpt>
      <trkpt lat="50.16999" lon="4.43725">
        <ele>263</ele>
        <time>2024-08-08T12:17:39Z</time>
      </trkpt>
      <trkpt lat="50.17003" lon="4.43725">
        <ele>263</ele>
        <time>2024-08-08T12:17:41Z</time>
      </trkpt>
      <trkpt lat="50.1702" lon="4.4372">
        <ele>263</ele>
        <time>2024-08-08T12:17:47Z</time>
      </trkpt>
      <trkpt lat="50.17043" lon="4.43712">
        <ele>263</ele>
        <time>2024-08-08T12:17:53Z</time>
      </trkpt>
      <trkpt lat="50.1707" lon="4.43704">
        <ele>262.8</ele>
        <time>2024-08-08T12:17:59Z</time>
      </trkpt>
      <trkpt lat="50.171" lon="4.43696">
        <ele>262.6</ele>
        <time>2024-08-08T12:18:04Z</time>
      </trkpt>
      <trkpt lat="50.17149" lon="4.4368">
        <ele>262.2</ele>
        <time>2024-08-08T12:18:12Z</time>
      </trkpt>
      <trkpt lat="50.1718" lon="4.43663">
        <ele>262</ele>
        <time>2024-08-08T12:18:18Z</time>
      </trkpt>
      <trkpt lat="50.17214" lon="4.43632">
        <ele>261.6</ele>
        <time>2024-08-08T12:18:25Z</time>
      </trkpt>
      <trkpt lat="50.17253" lon="4.43591">
        <ele>261.2</ele>
        <time>2024-08-08T12:18:34Z</time>
      </trkpt>
      <trkpt lat="50.17288" lon="4.43561">
        <ele>262.6</ele>
        <time>2024-08-08T12:18:43Z</time>
      </trkpt>
      <trkpt lat="50.17319" lon="4.43546">
        <ele>263</ele>
        <time>2024-08-08T12:18:51Z</time>
      </trkpt>
      <trkpt lat="50.17353" lon="4.43535">
        <ele>263.8</ele>
        <time>2024-08-08T12:18:59Z</time>
      </trkpt>
      <trkpt lat="50.17381" lon="4.43527">
        <ele>264.4</ele>
        <time>2024-08-08T12:19:06Z</time>
      </trkpt>
      <trkpt lat="50.17386" lon="4.43535">
        <ele>264.8</ele>
        <time>2024-08-08T12:19:08Z</time>
      </trkpt>
      <trkpt lat="50.17388" lon="4.43541">
        <ele>264.8</ele>
        <time>2024-08-08T12:19:09Z</time>
      </trkpt>
      <trkpt lat="50.17407" lon="4.43593">
        <ele>266</ele>
        <time>2024-08-08T12:19:17Z</time>
      </trkpt>
      <trkpt lat="50.17433" lon="4.43669">
        <ele>267.2</ele>
        <time>2024-08-08T12:19:27Z</time>
      </trkpt>
      <trkpt lat="50.1745" lon="4.43724">
        <ele>268</ele>
        <time>2024-08-08T12:19:34Z</time>
      </trkpt>
      <trkpt lat="50.17463" lon="4.43771">
        <ele>268.8</ele>
        <time>2024-08-08T12:19:40Z</time>
      </trkpt>
      <trkpt lat="50.17483" lon="4.43846">
        <ele>269.8</ele>
        <time>2024-08-08T12:19:50Z</time>
      </trkpt>
      <trkpt lat="50.17492" lon="4.43885">
        <ele>270.2</ele>
        <time>2024-08-08T12:19:55Z</time>
      </trkpt>
      <trkpt lat="50.17493" lon="4.439">
        <ele>270.4</ele>
        <time>2024-08-08T12:19:57Z</time>
      </trkpt>
      <trkpt lat="50.17497" lon="4.43914">
        <ele>270.6</ele>
        <time>2024-08-08T12:19:59Z</time>
      </trkpt>
      <trkpt lat="50.175" lon="4.43919">
        <ele>270.8</ele>
        <time>2024-08-08T12:20:00Z</time>
      </trkpt>
      <trkpt lat="50.17507" lon="4.43929">
        <ele>271</ele>
        <time>2024-08-08T12:20:02Z</time>
      </trkpt>
      <trkpt lat="50.17511" lon="4.43942">
        <ele>271.2</ele>
        <time>2024-08-08T12:20:04Z</time>
      </trkpt>
      <trkpt lat="50.17522" lon="4.43997">
        <ele>271.6</ele>
        <time>2024-08-08T12:20:11Z</time>
      </trkpt>
      <trkpt lat="50.17532" lon="4.4405">
        <ele>272</ele>
        <time>2024-08-08T12:20:18Z</time>
      </trkpt>
      <trkpt lat="50.17542" lon="4.44101">
        <ele>272.6</ele>
        <time>2024-08-08T12:20:25Z</time>
      </trkpt>
      <trkpt lat="50.17552" lon="4.44145">
        <ele>272.8</ele>
        <time>2024-08-08T12:20:31Z</time>
      </trkpt>
      <trkpt lat="50.17564" lon="4.44197">
        <ele>273.4</ele>
        <time>2024-08-08T12:20:38Z</time>
      </trkpt>
      <trkpt lat="50.17574" lon="4.44239">
        <ele>273.8</ele>
        <time>2024-08-08T12:20:44Z</time>
      </trkpt>
      <trkpt lat="50.17587" lon="4.44287">
        <ele>274.2</ele>
        <time>2024-08-08T12:20:51Z</time>
      </trkpt>
      <trkpt lat="50.17598" lon="4.44334">
        <ele>274.6</ele>
        <time>2024-08-08T12:20:58Z</time>
      </trkpt>
      <trkpt lat="50.17609" lon="4.44374">
        <ele>275</ele>
        <time>2024-08-08T12:21:04Z</time>
      </trkpt>
      <trkpt lat="50.17624" lon="4.4442">
        <ele>275.4</ele>
        <time>2024-08-08T12:21:11Z</time>
      </trkpt>
      <trkpt lat="50.1764" lon="4.44464">
        <ele>275.6</ele>
        <time>2024-08-08T12:21:18Z</time>
      </trkpt>
      <trkpt lat="50.17654" lon="4.44504">
        <ele>276</ele>
        <time>2024-08-08T12:21:24Z</time>
      </trkpt>
      <trkpt lat="50.17669" lon="4.44554">
        <ele>276.2</ele>
        <time>2024-08-08T12:21:31Z</time>
      </trkpt>
      <trkpt lat="50.17691" lon="4.44633">
        <ele>276.2</ele>
        <time>2024-08-08T12:21:41Z</time>
      </trkpt>
      <trkpt lat="50.17698" lon="4.44656">
        <ele>276.2</ele>
        <time>2024-08-08T12:21:44Z</time>
      </trkpt>
      <trkpt lat="50.17714" lon="4.44718">
        <ele>276.2</ele>
        <time>2024-08-08T12:21:52Z</time>
      </trkpt>
      <trkpt lat="50.1773" lon="4.44776">
        <ele>276</ele>
        <time>2024-08-08T12:21:59Z</time>
      </trkpt>
      <trkpt lat="50.17747" lon="4.44845">
        <ele>275.6</ele>
        <time>2024-08-08T12:22:07Z</time>
      </trkpt>
      <trkpt lat="50.17759" lon="4.44904">
        <ele>275.2</ele>
        <time>2024-08-08T12:22:14Z</time>
      </trkpt>
      <trkpt lat="50.17773" lon="4.4499">
        <ele>274.4</ele>
        <time>2024-08-08T12:22:23Z</time>
      </trkpt>
      <trkpt lat="50.17774" lon="4.44999">
        <ele>274.4</ele>
        <time>2024-08-08T12:22:24Z</time>
      </trkpt>
      <trkpt lat="50.17786" lon="4.45076">
        <ele>273.4</ele>
        <time>2024-08-08T12:22:32Z</time>
      </trkpt>
      <trkpt lat="50.17791" lon="4.45142">
        <ele>272.6</ele>
        <time>2024-08-08T12:22:39Z</time>
      </trkpt>
      <trkpt lat="50.17793" lon="4.45184">
        <ele>272.2</ele>
        <time>2024-08-08T12:22:44Z</time>
      </trkpt>
      <trkpt lat="50.17795" lon="4.45192">
        <ele>272.2</ele>
        <time>2024-08-08T12:22:45Z</time>
      </trkpt>
      <trkpt lat="50.17797" lon="4.452">
        <ele>272</ele>
        <time>2024-08-08T12:22:46Z</time>
      </trkpt>
      <trkpt lat="50.1781" lon="4.4523">
        <ele>271.6</ele>
        <time>2024-08-08T12:22:50Z</time>
      </trkpt>
      <trkpt lat="50.17827" lon="4.45273">
        <ele>270.8</ele>
        <time>2024-08-08T12:22:56Z</time>
      </trkpt>
      <trkpt lat="50.17834" lon="4.45296">
        <ele>270.2</ele>
        <time>2024-08-08T12:23:01Z</time>
      </trkpt>
      <trkpt lat="50.17836" lon="4.45301">
        <ele>269.8</ele>
        <time>2024-08-08T12:23:03Z</time>
      </trkpt>
      <trkpt lat="50.17835" lon="4.45302">
        <ele>269.6</ele>
        <time>2024-08-08T12:23:05Z</time>
      </trkpt>
      <trkpt lat="50.17835" lon="4.45302">
        <ele>268.4</ele>
        <time>2024-08-08T12:23:20Z</time>
      </trkpt>
      <trkpt lat="50.17835" lon="4.45302">
        <ele>266.4</ele>
        <time>2024-08-08T12:23:46Z</time>
      </trkpt>
      <trkpt lat="50.17835" lon="4.45302">
        <ele>265.2</ele>
        <time>2024-08-08T12:24:10Z</time>
      </trkpt>
      <trkpt lat="50.17835" lon="4.45302">
        <ele>264.4</ele>
        <time>2024-08-08T12:24:28Z</time>
      </trkpt>
      <trkpt lat="50.17835" lon="4.45302">
        <ele>263.8</ele>
        <time>2024-08-08T12:24:53Z</time>
      </trkpt>
      <trkpt lat="50.17835" lon="4.45302">
        <ele>263.2</ele>
        <time>2024-08-08T12:25:13Z</time>
      </trkpt>
      <trkpt lat="50.17835" lon="4.45302">
        <ele>263</ele>
        <time>2024-08-08T12:25:37Z</time>
      </trkpt>
      <trkpt lat="50.17835" lon="4.45302">
        <ele>262.6</ele>
        <time>2024-08-08T12:25:56Z</time>
      </trkpt>
      <trkpt lat="50.17835" lon="4.45302">
        <ele>262.4</ele>
        <time>2024-08-08T12:26:22Z</time>
      </trkpt>
      <trkpt lat="50.17835" lon="4.45302">
        <ele>262.2</ele>
        <time>2024-08-08T12:26:36Z</time>
      </trkpt>
      <trkpt lat="50.17836" lon="4.45304">
        <ele>262.2</ele>
        <time>2024-08-08T12:26:37Z</time>
      </trkpt>
      <trkpt lat="50.17843" lon="4.45324">
        <ele>262</ele>
        <time>2024-08-08T12:26:42Z</time>
      </trkpt>
      <trkpt lat="50.17859" lon="4.45365">
        <ele>261.6</ele>
        <time>2024-08-08T12:26:49Z</time>
      </trkpt>
      <trkpt lat="50.17881" lon="4.45404">
        <ele>261</ele>
        <time>2024-08-08T12:26:55Z</time>
      </trkpt>
      <trkpt lat="50.17905" lon="4.45454">
        <ele>260.2</ele>
        <time>2024-08-08T12:27:02Z</time>
      </trkpt>
      <trkpt lat="50.17929" lon="4.45505">
        <ele>258.8</ele>
        <time>2024-08-08T12:27:10Z</time>
      </trkpt>
      <trkpt lat="50.17958" lon="4.45546">
        <ele>257.2</ele>
        <time>2024-08-08T12:27:17Z</time>
      </trkpt>
      <trkpt lat="50.17992" lon="4.45591">
        <ele>255.2</ele>
        <time>2024-08-08T12:27:25Z</time>
      </trkpt>
      <trkpt lat="50.18028" lon="4.45624">
        <ele>252.8</ele>
        <time>2024-08-08T12:27:33Z</time>
      </trkpt>
      <trkpt lat="50.18033" lon="4.45627">
        <ele>252.6</ele>
        <time>2024-08-08T12:27:34Z</time>
      </trkpt>
      <trkpt lat="50.18054" lon="4.45642">
        <ele>251.2</ele>
        <time>2024-08-08T12:27:38Z</time>
      </trkpt>
      <trkpt lat="50.18063" lon="4.45652">
        <ele>250.6</ele>
        <time>2024-08-08T12:27:40Z</time>
      </trkpt>
      <trkpt lat="50.1807" lon="4.45662">
        <ele>250</ele>
        <time>2024-08-08T12:27:42Z</time>
      </trkpt>
      <trkpt lat="50.18074" lon="4.45673">
        <ele>249.4</ele>
        <time>2024-08-08T12:27:44Z</time>
      </trkpt>
      <trkpt lat="50.18071" lon="4.45684">
        <ele>249</ele>
        <time>2024-08-08T12:27:46Z</time>
      </trkpt>
      <trkpt lat="50.18069" lon="4.45689">
        <ele>248.8</ele>
        <time>2024-08-08T12:27:47Z</time>
      </trkpt>
      <trkpt lat="50.18051" lon="4.45728">
        <ele>247.4</ele>
        <time>2024-08-08T12:27:54Z</time>
      </trkpt>
      <trkpt lat="50.1803" lon="4.45777">
        <ele>246.2</ele>
        <time>2024-08-08T12:28:03Z</time>
      </trkpt>
      <trkpt lat="50.18009" lon="4.45815">
        <ele>245.4</ele>
        <time>2024-08-08T12:28:10Z</time>
      </trkpt>
      <trkpt lat="50.1798" lon="4.45859">
        <ele>244.4</ele>
        <time>2024-08-08T12:28:17Z</time>
      </trkpt>
      <trkpt lat="50.17956" lon="4.45903">
        <ele>243.6</ele>
        <time>2024-08-08T12:28:22Z</time>
      </trkpt>
      <trkpt lat="50.17952" lon="4.45914">
        <ele>243.4</ele>
        <time>2024-08-08T12:28:23Z</time>
      </trkpt>
      <trkpt lat="50.17941" lon="4.45965">
        <ele>242.6</ele>
        <time>2024-08-08T12:28:27Z</time>
      </trkpt>
      <trkpt lat="50.17936" lon="4.45977">
        <ele>242.2</ele>
        <time>2024-08-08T12:28:28Z</time>
      </trkpt>
      <trkpt lat="50.17931" lon="4.45987">
        <ele>242</ele>
        <time>2024-08-08T12:28:29Z</time>
      </trkpt>
      <trkpt lat="50.17917" lon="4.46003">
        <ele>241.6</ele>
        <time>2024-08-08T12:28:31Z</time>
      </trkpt>
      <trkpt lat="50.17888" lon="4.46019">
        <ele>241</ele>
        <time>2024-08-08T12:28:35Z</time>
      </trkpt>
      <trkpt lat="50.17852" lon="4.46039">
        <ele>240.4</ele>
        <time>2024-08-08T12:28:41Z</time>
      </trkpt>
      <trkpt lat="50.1782" lon="4.46055">
        <ele>239.8</ele>
        <time>2024-08-08T12:28:47Z</time>
      </trkpt>
      <trkpt lat="50.17815" lon="4.46057">
        <ele>239.8</ele>
        <time>2024-08-08T12:28:48Z</time>
      </trkpt>
      <trkpt lat="50.1781" lon="4.46059">
        <ele>239.6</ele>
        <time>2024-08-08T12:28:49Z</time>
      </trkpt>
      <trkpt lat="50.17775" lon="4.4607">
        <ele>239.2</ele>
        <time>2024-08-08T12:28:56Z</time>
      </trkpt>
      <trkpt lat="50.17756" lon="4.46072">
        <ele>239.2</ele>
        <time>2024-08-08T12:29:01Z</time>
      </trkpt>
      <trkpt lat="50.1774" lon="4.46076">
        <ele>239.4</ele>
        <time>2024-08-08T12:29:07Z</time>
      </trkpt>
      <trkpt lat="50.17738" lon="4.46079">
        <ele>239.4</ele>
        <time>2024-08-08T12:29:08Z</time>
      </trkpt>
      <trkpt lat="50.17737" lon="4.46089">
        <ele>238.8</ele>
        <time>2024-08-08T12:29:10Z</time>
      </trkpt>
      <trkpt lat="50.17732" lon="4.46121">
        <ele>239.8</ele>
        <time>2024-08-08T12:29:16Z</time>
      </trkpt>
      <trkpt lat="50.17718" lon="4.4616">
        <ele>240.4</ele>
        <time>2024-08-08T12:29:24Z</time>
      </trkpt>
      <trkpt lat="50.17713" lon="4.4619">
        <ele>241</ele>
        <time>2024-08-08T12:29:29Z</time>
      </trkpt>
      <trkpt lat="50.17713" lon="4.46223">
        <ele>241.6</ele>
        <time>2024-08-08T12:29:34Z</time>
      </trkpt>
      <trkpt lat="50.1771" lon="4.46235">
        <ele>241.8</ele>
        <time>2024-08-08T12:29:36Z</time>
      </trkpt>
      <trkpt lat="50.17704" lon="4.46243">
        <ele>242.2</ele>
        <time>2024-08-08T12:29:38Z</time>
      </trkpt>
      <trkpt lat="50.17692" lon="4.4627">
        <ele>243</ele>
        <time>2024-08-08T12:29:44Z</time>
      </trkpt>
      <trkpt lat="50.17693" lon="4.46304">
        <ele>243.8</ele>
        <time>2024-08-08T12:29:50Z</time>
      </trkpt>
      <trkpt lat="50.17694" lon="4.46343">
        <ele>244.4</ele>
        <time>2024-08-08T12:29:57Z</time>
      </trkpt>
      <trkpt lat="50.17697" lon="4.46379">
        <ele>245.2</ele>
        <time>2024-08-08T12:30:04Z</time>
      </trkpt>
      <trkpt lat="50.177" lon="4.4641">
        <ele>246</ele>
        <time>2024-08-08T12:30:10Z</time>
      </trkpt>
      <trkpt lat="50.17702" lon="4.46429">
        <ele>246.8</ele>
        <time>2024-08-08T12:30:15Z</time>
      </trkpt>
      <trkpt lat="50.17696" lon="4.46433">
        <ele>247</ele>
        <time>2024-08-08T12:30:18Z</time>
      </trkpt>
      <trkpt lat="50.17695" lon="4.46443">
        <ele>247.4</ele>
        <time>2024-08-08T12:30:22Z</time>
      </trkpt>
      <trkpt lat="50.17695" lon="4.46442">
        <ele>248</ele>
        <time>2024-08-08T12:30:29Z</time>
      </trkpt>
      <trkpt lat="50.17695" lon="4.46442">
        <ele>248.6</ele>
        <time>2024-08-08T12:30:37Z</time>
      </trkpt>
      <trkpt lat="50.17695" lon="4.46442">
        <ele>250</ele>
        <time>2024-08-08T12:30:57Z</time>
      </trkpt>
      <trkpt lat="50.17695" lon="4.46443">
        <ele>251</ele>
        <time>2024-08-08T12:31:15Z</time>
      </trkpt>
      <trkpt lat="50.17695" lon="4.46443">
        <ele>251.8</ele>
        <time>2024-08-08T12:31:35Z</time>
      </trkpt>
      <trkpt lat="50.17695" lon="4.46443">
        <ele>252.2</ele>
        <time>2024-08-08T12:31:47Z</time>
      </trkpt>
      <trkpt lat="50.17695" lon="4.46443">
        <ele>252.8</ele>
        <time>2024-08-08T12:32:07Z</time>
      </trkpt>
      <trkpt lat="50.17695" lon="4.46443">
        <ele>253.2</ele>
        <time>2024-08-08T12:32:29Z</time>
      </trkpt>
      <trkpt lat="50.17695" lon="4.46443">
        <ele>253.4</ele>
        <time>2024-08-08T12:32:47Z</time>
      </trkpt>
      <trkpt lat="50.17695" lon="4.46443">
        <ele>253.6</ele>
        <time>2024-08-08T12:33:06Z</time>
      </trkpt>
      <trkpt lat="50.17695" lon="4.46442">
        <ele>253.6</ele>
        <time>2024-08-08T12:33:25Z</time>
      </trkpt>
      <trkpt lat="50.17695" lon="4.46442">
        <ele>253.6</ele>
        <time>2024-08-08T12:33:43Z</time>
      </trkpt>
      <trkpt lat="50.17695" lon="4.46442">
        <ele>253.6</ele>
        <time>2024-08-08T12:33:58Z</time>
      </trkpt>
      <trkpt lat="50.17695" lon="4.46442">
        <ele>253.4</ele>
        <time>2024-08-08T12:34:13Z</time>
      </trkpt>
      <trkpt lat="50.17695" lon="4.46442">
        <ele>253.2</ele>
        <time>2024-08-08T12:34:36Z</time>
      </trkpt>
      <trkpt lat="50.17695" lon="4.46442">
        <ele>253.2</ele>
        <time>2024-08-08T12:34:55Z</time>
      </trkpt>
      <trkpt lat="50.17695" lon="4.46442">
        <ele>253</ele>
        <time>2024-08-08T12:35:16Z</time>
      </trkpt>
      <trkpt lat="50.17695" lon="4.46442">
        <ele>253</ele>
        <time>2024-08-08T12:35:38Z</time>
      </trkpt>
      <trkpt lat="50.17695" lon="4.46443">
        <ele>252.8</ele>
        <time>2024-08-08T12:35:56Z</time>
      </trkpt>
      <trkpt lat="50.17695" lon="4.46443">
        <ele>252.6</ele>
        <time>2024-08-08T12:36:16Z</time>
      </trkpt>
      <trkpt lat="50.17694" lon="4.46443">
        <ele>252.4</ele>
        <time>2024-08-08T12:36:35Z</time>
      </trkpt>
      <trkpt lat="50.17694" lon="4.46443">
        <ele>252.4</ele>
        <time>2024-08-08T12:36:53Z</time>
      </trkpt>
      <trkpt lat="50.17695" lon="4.46444">
        <ele>252.2</ele>
        <time>2024-08-08T12:37:12Z</time>
      </trkpt>
      <trkpt lat="50.17695" lon="4.46444">
        <ele>252.2</ele>
        <time>2024-08-08T12:37:30Z</time>
      </trkpt>
      <trkpt lat="50.17695" lon="4.46444">
        <ele>252.2</ele>
        <time>2024-08-08T12:37:40Z</time>
      </trkpt>
      <trkpt lat="50.17695" lon="4.46445">
        <ele>252.2</ele>
        <time>2024-08-08T12:37:59Z</time>
      </trkpt>
      <trkpt lat="50.17695" lon="4.46445">
        <ele>252.2</ele>
        <time>2024-08-08T12:38:17Z</time>
      </trkpt>
      <trkpt lat="50.17695" lon="4.46446">
        <ele>252.2</ele>
        <time>2024-08-08T12:38:33Z</time>
      </trkpt>
      <trkpt lat="50.17695" lon="4.46446">
        <ele>252.2</ele>
        <time>2024-08-08T12:38:42Z</time>
      </trkpt>
      <trkpt lat="50.17695" lon="4.46446">
        <ele>252.2</ele>
        <time>2024-08-08T12:38:51Z</time>
      </trkpt>
      <trkpt lat="50.17695" lon="4.46446">
        <ele>252.2</ele>
        <time>2024-08-08T12:39:00Z</time>
      </trkpt>
      <trkpt lat="50.17695" lon="4.46446">
        <ele>252.2</ele>
        <time>2024-08-08T12:39:06Z</time>
      </trkpt>
      <trkpt lat="50.17696" lon="4.46447">
        <ele>252.2</ele>
        <time>2024-08-08T12:39:25Z</time>
      </trkpt>
      <trkpt lat="50.17696" lon="4.46451">
        <ele>252</ele>
        <time>2024-08-08T12:39:33Z</time>
      </trkpt>
      <trkpt lat="50.17697" lon="4.46473">
        <ele>252</ele>
        <time>2024-08-08T12:39:38Z</time>
      </trkpt>
      <trkpt lat="50.17699" lon="4.46504">
        <ele>251.6</ele>
        <time>2024-08-08T12:39:43Z</time>
      </trkpt>
      <trkpt lat="50.17702" lon="4.46511">
        <ele>251.8</ele>
        <time>2024-08-08T12:39:44Z</time>
      </trkpt>
      <trkpt lat="50.17709" lon="4.46544">
        <ele>251.4</ele>
        <time>2024-08-08T12:39:49Z</time>
      </trkpt>
      <trkpt lat="50.17718" lon="4.46563">
        <ele>251</ele>
        <time>2024-08-08T12:39:53Z</time>
      </trkpt>
      <trkpt lat="50.17722" lon="4.46565">
        <ele>251</ele>
        <time>2024-08-08T12:39:54Z</time>
      </trkpt>
      <trkpt lat="50.17729" lon="4.46561">
        <ele>251</ele>
        <time>2024-08-08T12:39:56Z</time>
      </trkpt>
      <trkpt lat="50.17736" lon="4.46555">
        <ele>251</ele>
        <time>2024-08-08T12:39:58Z</time>
      </trkpt>
      <trkpt lat="50.17744" lon="4.46553">
        <ele>251</ele>
        <time>2024-08-08T12:40:00Z</time>
      </trkpt>
      <trkpt lat="50.17748" lon="4.46554">
        <ele>251</ele>
        <time>2024-08-08T12:40:01Z</time>
      </trkpt>
      <trkpt lat="50.17762" lon="4.46559">
        <ele>251</ele>
        <time>2024-08-08T12:40:04Z</time>
      </trkpt>
      <trkpt lat="50.17776" lon="4.46564">
        <ele>250.8</ele>
        <time>2024-08-08T12:40:07Z</time>
      </trkpt>
      <trkpt lat="50.17818" lon="4.46578">
        <ele>250.4</ele>
        <time>2024-08-08T12:40:15Z</time>
      </trkpt>
      <trkpt lat="50.17844" lon="4.4659">
        <ele>250.2</ele>
        <time>2024-08-08T12:40:20Z</time>
      </trkpt>
      <trkpt lat="50.17852" lon="4.466">
        <ele>250</ele>
        <time>2024-08-08T12:40:22Z</time>
      </trkpt>
      <trkpt lat="50.17855" lon="4.46604">
        <ele>250</ele>
        <time>2024-08-08T12:40:23Z</time>
      </trkpt>
      <trkpt lat="50.17862" lon="4.46609">
        <ele>249.8</ele>
        <time>2024-08-08T12:40:25Z</time>
      </trkpt>
      <trkpt lat="50.17865" lon="4.46607">
        <ele>249.8</ele>
        <time>2024-08-08T12:40:26Z</time>
      </trkpt>
      <trkpt lat="50.17874" lon="4.46588">
        <ele>249.6</ele>
        <time>2024-08-08T12:40:30Z</time>
      </trkpt>
      <trkpt lat="50.1788" lon="4.46581">
        <ele>249.4</ele>
        <time>2024-08-08T12:40:32Z</time>
      </trkpt>
      <trkpt lat="50.17886" lon="4.46575">
        <ele>249.2</ele>
        <time>2024-08-08T12:40:34Z</time>
      </trkpt>
      <trkpt lat="50.17892" lon="4.46569">
        <ele>249</ele>
        <time>2024-08-08T12:40:38Z</time>
      </trkpt>
      <trkpt lat="50.17899" lon="4.46556">
        <ele>248.6</ele>
        <time>2024-08-08T12:40:42Z</time>
      </trkpt>
      <trkpt lat="50.17911" lon="4.46526">
        <ele>247.8</ele>
        <time>2024-08-08T12:40:47Z</time>
      </trkpt>
      <trkpt lat="50.17917" lon="4.46482">
        <ele>246.6</ele>
        <time>2024-08-08T12:40:53Z</time>
      </trkpt>
      <trkpt lat="50.17922" lon="4.46453">
        <ele>245.6</ele>
        <time>2024-08-08T12:40:57Z</time>
      </trkpt>
      <trkpt lat="50.17924" lon="4.46446">
        <ele>245.4</ele>
        <time>2024-08-08T12:40:58Z</time>
      </trkpt>
      <trkpt lat="50.17926" lon="4.46438">
        <ele>245.2</ele>
        <time>2024-08-08T12:40:59Z</time>
      </trkpt>
      <trkpt lat="50.17936" lon="4.46409">
        <ele>244</ele>
        <time>2024-08-08T12:41:03Z</time>
      </trkpt>
      <trkpt lat="50.17949" lon="4.46379">
        <ele>242.8</ele>
        <time>2024-08-08T12:41:07Z</time>
      </trkpt>
      <trkpt lat="50.17953" lon="4.46374">
        <ele>242.4</ele>
        <time>2024-08-08T12:41:08Z</time>
      </trkpt>
      <trkpt lat="50.17956" lon="4.4637">
        <ele>242</ele>
        <time>2024-08-08T12:41:09Z</time>
      </trkpt>
      <trkpt lat="50.17965" lon="4.46362">
        <ele>241.4</ele>
        <time>2024-08-08T12:41:11Z</time>
      </trkpt>
      <trkpt lat="50.1797" lon="4.46359">
        <ele>241.2</ele>
        <time>2024-08-08T12:41:12Z</time>
      </trkpt>
      <trkpt lat="50.1799" lon="4.46352">
        <ele>240</ele>
        <time>2024-08-08T12:41:17Z</time>
      </trkpt>
      <trkpt lat="50.18009" lon="4.46343">
        <ele>238.6</ele>
        <time>2024-08-08T12:41:23Z</time>
      </trkpt>
      <trkpt lat="50.18028" lon="4.46332">
        <ele>237.8</ele>
        <time>2024-08-08T12:41:28Z</time>
      </trkpt>
      <trkpt lat="50.18045" lon="4.46316">
        <ele>237</ele>
        <time>2024-08-08T12:41:32Z</time>
      </trkpt>
      <trkpt lat="50.1805" lon="4.46314">
        <ele>236.8</ele>
        <time>2024-08-08T12:41:33Z</time>
      </trkpt>
      <trkpt lat="50.18054" lon="4.46311">
        <ele>236.8</ele>
        <time>2024-08-08T12:41:34Z</time>
      </trkpt>
      <trkpt lat="50.18074" lon="4.46296">
        <ele>236.6</ele>
        <time>2024-08-08T12:41:38Z</time>
      </trkpt>
      <trkpt lat="50.18114" lon="4.46265">
        <ele>236.2</ele>
        <time>2024-08-08T12:41:47Z</time>
      </trkpt>
      <trkpt lat="50.18157" lon="4.46226">
        <ele>235.6</ele>
        <time>2024-08-08T12:41:57Z</time>
      </trkpt>
      <trkpt lat="50.18181" lon="4.46198">
        <ele>235.4</ele>
        <time>2024-08-08T12:42:03Z</time>
      </trkpt>
      <trkpt lat="50.18201" lon="4.46169">
        <ele>235.2</ele>
        <time>2024-08-08T12:42:09Z</time>
      </trkpt>
      <trkpt lat="50.18215" lon="4.46148">
        <ele>235.2</ele>
        <time>2024-08-08T12:42:13Z</time>
      </trkpt>
      <trkpt lat="50.18218" lon="4.46141">
        <ele>235.2</ele>
        <time>2024-08-08T12:42:14Z</time>
      </trkpt>
      <trkpt lat="50.1822" lon="4.46134">
        <ele>235.2</ele>
        <time>2024-08-08T12:42:15Z</time>
      </trkpt>
      <trkpt lat="50.18229" lon="4.46102">
        <ele>235</ele>
        <time>2024-08-08T12:42:19Z</time>
      </trkpt>
      <trkpt lat="50.18239" lon="4.46059">
        <ele>234.8</ele>
        <time>2024-08-08T12:42:25Z</time>
      </trkpt>
      <trkpt lat="50.18247" lon="4.4601">
        <ele>234.6</ele>
        <time>2024-08-08T12:42:31Z</time>
      </trkpt>
      <trkpt lat="50.18253" lon="4.45976">
        <ele>234.4</ele>
        <time>2024-08-08T12:42:35Z</time>
      </trkpt>
      <trkpt lat="50.18257" lon="4.45961">
        <ele>234.4</ele>
        <time>2024-08-08T12:42:37Z</time>
      </trkpt>
      <trkpt lat="50.18273" lon="4.45917">
        <ele>234.2</ele>
        <time>2024-08-08T12:42:43Z</time>
      </trkpt>
      <trkpt lat="50.18283" lon="4.45897">
        <ele>234</ele>
        <time>2024-08-08T12:42:46Z</time>
      </trkpt>
      <trkpt lat="50.1829" lon="4.45885">
        <ele>234</ele>
        <time>2024-08-08T12:42:48Z</time>
      </trkpt>
      <trkpt lat="50.1831" lon="4.45853">
        <ele>233.8</ele>
        <time>2024-08-08T12:42:54Z</time>
      </trkpt>
      <trkpt lat="50.18327" lon="4.4583">
        <ele>233.6</ele>
        <time>2024-08-08T12:43:00Z</time>
      </trkpt>
      <trkpt lat="50.18341" lon="4.45816">
        <ele>233.4</ele>
        <time>2024-08-08T12:43:05Z</time>
      </trkpt>
      <trkpt lat="50.18343" lon="4.45813">
        <ele>233.4</ele>
        <time>2024-08-08T12:43:06Z</time>
      </trkpt>
      <trkpt lat="50.18344" lon="4.45808">
        <ele>233.4</ele>
        <time>2024-08-08T12:43:08Z</time>
      </trkpt>
      <trkpt lat="50.18344" lon="4.45808">
        <ele>233.2</ele>
        <time>2024-08-08T12:43:17Z</time>
      </trkpt>
      <trkpt lat="50.18344" lon="4.45808">
        <ele>233</ele>
        <time>2024-08-08T12:43:24Z</time>
      </trkpt>
      <trkpt lat="50.18344" lon="4.45809">
        <ele>232.8</ele>
        <time>2024-08-08T12:43:32Z</time>
      </trkpt>
      <trkpt lat="50.18344" lon="4.4581">
        <ele>232.6</ele>
        <time>2024-08-08T12:43:39Z</time>
      </trkpt>
      <trkpt lat="50.18344" lon="4.4581">
        <ele>232.4</ele>
        <time>2024-08-08T12:43:55Z</time>
      </trkpt>
      <trkpt lat="50.18344" lon="4.4581">
        <ele>232.2</ele>
        <time>2024-08-08T12:44:08Z</time>
      </trkpt>
      <trkpt lat="50.18346" lon="4.4581">
        <ele>232</ele>
        <time>2024-08-08T12:44:20Z</time>
      </trkpt>
      <trkpt lat="50.18362" lon="4.45816">
        <ele>231.8</ele>
        <time>2024-08-08T12:44:25Z</time>
      </trkpt>
      <trkpt lat="50.18392" lon="4.45828">
        <ele>231.4</ele>
        <time>2024-08-08T12:44:32Z</time>
      </trkpt>
      <trkpt lat="50.18403" lon="4.45831">
        <ele>231.4</ele>
        <time>2024-08-08T12:44:34Z</time>
      </trkpt>
      <trkpt lat="50.18415" lon="4.45828">
        <ele>231.2</ele>
        <time>2024-08-08T12:44:36Z</time>
      </trkpt>
      <trkpt lat="50.18433" lon="4.45814">
        <ele>230.6</ele>
        <time>2024-08-08T12:44:39Z</time>
      </trkpt>
      <trkpt lat="50.18438" lon="4.45807">
        <ele>230.6</ele>
        <time>2024-08-08T12:44:40Z</time>
      </trkpt>
      <trkpt lat="50.18474" lon="4.45756">
        <ele>229.8</ele>
        <time>2024-08-08T12:44:47Z</time>
      </trkpt>
      <trkpt lat="50.18514" lon="4.45708">
        <ele>229.2</ele>
        <time>2024-08-08T12:44:55Z</time>
      </trkpt>
      <trkpt lat="50.18542" lon="4.45693">
        <ele>228.8</ele>
        <time>2024-08-08T12:45:00Z</time>
      </trkpt>
      <trkpt lat="50.1859" lon="4.45687">
        <ele>228.4</ele>
        <time>2024-08-08T12:45:08Z</time>
      </trkpt>
      <trkpt lat="50.18641" lon="4.45681">
        <ele>228</ele>
        <time>2024-08-08T12:45:17Z</time>
      </trkpt>
      <trkpt lat="50.18646" lon="4.4568">
        <ele>228</ele>
        <time>2024-08-08T12:45:18Z</time>
      </trkpt>
      <trkpt lat="50.18668" lon="4.45668">
        <ele>227.6</ele>
        <time>2024-08-08T12:45:22Z</time>
      </trkpt>
      <trkpt lat="50.18699" lon="4.45637">
        <ele>227.4</ele>
        <time>2024-08-08T12:45:29Z</time>
      </trkpt>
      <trkpt lat="50.18731" lon="4.45602">
        <ele>227.8</ele>
        <time>2024-08-08T12:45:37Z</time>
      </trkpt>
      <trkpt lat="50.18762" lon="4.45583">
        <ele>228</ele>
        <time>2024-08-08T12:45:44Z</time>
      </trkpt>
      <trkpt lat="50.18799" lon="4.45579">
        <ele>228.4</ele>
        <time>2024-08-08T12:45:52Z</time>
      </trkpt>
      <trkpt lat="50.18817" lon="4.4558">
        <ele>228.6</ele>
        <time>2024-08-08T12:45:56Z</time>
      </trkpt>
      <trkpt lat="50.1883" lon="4.45581">
        <ele>228.8</ele>
        <time>2024-08-08T12:45:59Z</time>
      </trkpt>
      <trkpt lat="50.18872" lon="4.45587">
        <ele>230</ele>
        <time>2024-08-08T12:46:08Z</time>
      </trkpt>
      <trkpt lat="50.18915" lon="4.4559">
        <ele>231</ele>
        <time>2024-08-08T12:46:17Z</time>
      </trkpt>
      <trkpt lat="50.18961" lon="4.45593">
        <ele>232.4</ele>
        <time>2024-08-08T12:46:27Z</time>
      </trkpt>
      <trkpt lat="50.18971" lon="4.45596">
        <ele>232.8</ele>
        <time>2024-08-08T12:46:29Z</time>
      </trkpt>
      <trkpt lat="50.18983" lon="4.45605">
        <ele>233.2</ele>
        <time>2024-08-08T12:46:32Z</time>
      </trkpt>
      <trkpt lat="50.19023" lon="4.45626">
        <ele>234.4</ele>
        <time>2024-08-08T12:46:41Z</time>
      </trkpt>
      <trkpt lat="50.19056" lon="4.45643">
        <ele>235.4</ele>
        <time>2024-08-08T12:46:49Z</time>
      </trkpt>
      <trkpt lat="50.1906" lon="4.45645">
        <ele>235.6</ele>
        <time>2024-08-08T12:46:50Z</time>
      </trkpt>
      <trkpt lat="50.19072" lon="4.45653">
        <ele>236</ele>
        <time>2024-08-08T12:46:53Z</time>
      </trkpt>
      <trkpt lat="50.19083" lon="4.45663">
        <ele>236.4</ele>
        <time>2024-08-08T12:46:56Z</time>
      </trkpt>
      <trkpt lat="50.19105" lon="4.45691">
        <ele>237.6</ele>
        <time>2024-08-08T12:47:03Z</time>
      </trkpt>
      <trkpt lat="50.19122" lon="4.45709">
        <ele>238.8</ele>
        <time>2024-08-08T12:47:09Z</time>
      </trkpt>
      <trkpt lat="50.1914" lon="4.45724">
        <ele>240.4</ele>
        <time>2024-08-08T12:47:15Z</time>
      </trkpt>
      <trkpt lat="50.19158" lon="4.45733">
        <ele>241.8</ele>
        <time>2024-08-08T12:47:21Z</time>
      </trkpt>
      <trkpt lat="50.19175" lon="4.45739">
        <ele>243.4</ele>
        <time>2024-08-08T12:47:27Z</time>
      </trkpt>
      <trkpt lat="50.19193" lon="4.45744">
        <ele>245.2</ele>
        <time>2024-08-08T12:47:33Z</time>
      </trkpt>
      <trkpt lat="50.1921" lon="4.45748">
        <ele>247</ele>
        <time>2024-08-08T12:47:38Z</time>
      </trkpt>
      <trkpt lat="50.19224" lon="4.45756">
        <ele>249</ele>
        <time>2024-08-08T12:47:43Z</time>
      </trkpt>
      <trkpt lat="50.19236" lon="4.45762">
        <ele>250.4</ele>
        <time>2024-08-08T12:47:47Z</time>
      </trkpt>
      <trkpt lat="50.19251" lon="4.4577">
        <ele>252.4</ele>
        <time>2024-08-08T12:47:52Z</time>
      </trkpt>
      <trkpt lat="50.19272" lon="4.45783">
        <ele>254.6</ele>
        <time>2024-08-08T12:47:58Z</time>
      </trkpt>
      <trkpt lat="50.19279" lon="4.45786">
        <ele>255.4</ele>
        <time>2024-08-08T12:48:00Z</time>
      </trkpt>
      <trkpt lat="50.19286" lon="4.45789">
        <ele>256.2</ele>
        <time>2024-08-08T12:48:02Z</time>
      </trkpt>
      <trkpt lat="50.19302" lon="4.45796">
        <ele>257.6</ele>
        <time>2024-08-08T12:48:06Z</time>
      </trkpt>
      <trkpt lat="50.19317" lon="4.45805">
        <ele>259</ele>
        <time>2024-08-08T12:48:10Z</time>
      </trkpt>
      <trkpt lat="50.19329" lon="4.45811">
        <ele>260</ele>
        <time>2024-08-08T12:48:13Z</time>
      </trkpt>
      <trkpt lat="50.19332" lon="4.45813">
        <ele>260.2</ele>
        <time>2024-08-08T12:48:14Z</time>
      </trkpt>
      <trkpt lat="50.19352" lon="4.45822">
        <ele>261.6</ele>
        <time>2024-08-08T12:48:19Z</time>
      </trkpt>
      <trkpt lat="50.19371" lon="4.45834">
        <ele>262.8</ele>
        <time>2024-08-08T12:48:24Z</time>
      </trkpt>
      <trkpt lat="50.19389" lon="4.45854">
        <ele>264</ele>
        <time>2024-08-08T12:48:29Z</time>
      </trkpt>
      <trkpt lat="50.19403" lon="4.45867">
        <ele>265</ele>
        <time>2024-08-08T12:48:33Z</time>
      </trkpt>
      <trkpt lat="50.19427" lon="4.45875">
        <ele>266.4</ele>
        <time>2024-08-08T12:48:39Z</time>
      </trkpt>
      <trkpt lat="50.19456" lon="4.45884">
        <ele>267.6</ele>
        <time>2024-08-08T12:48:47Z</time>
      </trkpt>
      <trkpt lat="50.19468" lon="4.45889">
        <ele>268.4</ele>
        <time>2024-08-08T12:48:50Z</time>
      </trkpt>
      <trkpt lat="50.19476" lon="4.45897">
        <ele>268.6</ele>
        <time>2024-08-08T12:48:52Z</time>
      </trkpt>
      <trkpt lat="50.19479" lon="4.45901">
        <ele>268.8</ele>
        <time>2024-08-08T12:48:53Z</time>
      </trkpt>
      <trkpt lat="50.19498" lon="4.45919">
        <ele>270</ele>
        <time>2024-08-08T12:48:59Z</time>
      </trkpt>
      <trkpt lat="50.19511" lon="4.45931">
        <ele>270.8</ele>
        <time>2024-08-08T12:49:03Z</time>
      </trkpt>
      <trkpt lat="50.19527" lon="4.45947">
        <ele>271.8</ele>
        <time>2024-08-08T12:49:08Z</time>
      </trkpt>
      <trkpt lat="50.19547" lon="4.45964">
        <ele>272.8</ele>
        <time>2024-08-08T12:49:14Z</time>
      </trkpt>
      <trkpt lat="50.19559" lon="4.45976">
        <ele>273.6</ele>
        <time>2024-08-08T12:49:18Z</time>
      </trkpt>
      <trkpt lat="50.19563" lon="4.45979">
        <ele>273.8</ele>
        <time>2024-08-08T12:49:19Z</time>
      </trkpt>
      <trkpt lat="50.19566" lon="4.45984">
        <ele>274</ele>
        <time>2024-08-08T12:49:20Z</time>
      </trkpt>
      <trkpt lat="50.19578" lon="4.46">
        <ele>274.8</ele>
        <time>2024-08-08T12:49:24Z</time>
      </trkpt>
      <trkpt lat="50.19598" lon="4.46025">
        <ele>276.4</ele>
        <time>2024-08-08T12:49:30Z</time>
      </trkpt>
      <trkpt lat="50.19612" lon="4.46036">
        <ele>277</ele>
        <time>2024-08-08T12:49:34Z</time>
      </trkpt>
      <trkpt lat="50.19628" lon="4.4605">
        <ele>278</ele>
        <time>2024-08-08T12:49:39Z</time>
      </trkpt>
      <trkpt lat="50.19638" lon="4.46062">
        <ele>278.6</ele>
        <time>2024-08-08T12:49:43Z</time>
      </trkpt>
      <trkpt lat="50.19651" lon="4.4608">
        <ele>279.2</ele>
        <time>2024-08-08T12:49:47Z</time>
      </trkpt>
      <trkpt lat="50.19663" lon="4.46098">
        <ele>279.6</ele>
        <time>2024-08-08T12:49:51Z</time>
      </trkpt>
      <trkpt lat="50.19669" lon="4.46104">
        <ele>280</ele>
        <time>2024-08-08T12:49:54Z</time>
      </trkpt>
      <trkpt lat="50.1967" lon="4.46103">
        <ele>280.2</ele>
        <time>2024-08-08T12:49:55Z</time>
      </trkpt>
      <trkpt lat="50.19672" lon="4.461">
        <ele>280.6</ele>
        <time>2024-08-08T12:49:59Z</time>
      </trkpt>
      <trkpt lat="50.19672" lon="4.461">
        <ele>282.4</ele>
        <time>2024-08-08T12:50:14Z</time>
      </trkpt>
      <trkpt lat="50.19672" lon="4.461">
        <ele>284.2</ele>
        <time>2024-08-08T12:50:34Z</time>
      </trkpt>
      <trkpt lat="50.19673" lon="4.461">
        <ele>285</ele>
        <time>2024-08-08T12:50:48Z</time>
      </trkpt>
      <trkpt lat="50.19673" lon="4.461">
        <ele>286.2</ele>
        <time>2024-08-08T12:51:09Z</time>
      </trkpt>
      <trkpt lat="50.19673" lon="4.461">
        <ele>287.2</ele>
        <time>2024-08-08T12:51:33Z</time>
      </trkpt>
      <trkpt lat="50.19673" lon="4.461">
        <ele>287.6</ele>
        <time>2024-08-08T12:51:52Z</time>
      </trkpt>
      <trkpt lat="50.19674" lon="4.46101">
        <ele>287.8</ele>
        <time>2024-08-08T12:52:00Z</time>
      </trkpt>
      <trkpt lat="50.19674" lon="4.46101">
        <ele>288.2</ele>
        <time>2024-08-08T12:52:18Z</time>
      </trkpt>
      <trkpt lat="50.19674" lon="4.46101">
        <ele>288.6</ele>
        <time>2024-08-08T12:52:34Z</time>
      </trkpt>
      <trkpt lat="50.19674" lon="4.46101">
        <ele>288.8</ele>
        <time>2024-08-08T12:52:47Z</time>
      </trkpt>
      <trkpt lat="50.19674" lon="4.46101">
        <ele>289</ele>
        <time>2024-08-08T12:53:04Z</time>
      </trkpt>
      <trkpt lat="50.19674" lon="4.46098">
        <ele>289</ele>
        <time>2024-08-08T12:53:05Z</time>
      </trkpt>
      <trkpt lat="50.19679" lon="4.46075">
        <ele>288.2</ele>
        <time>2024-08-08T12:53:11Z</time>
      </trkpt>
      <trkpt lat="50.19684" lon="4.46046">
        <ele>286.8</ele>
        <time>2024-08-08T12:53:16Z</time>
      </trkpt>
      <trkpt lat="50.1969" lon="4.46015">
        <ele>285.2</ele>
        <time>2024-08-08T12:53:21Z</time>
      </trkpt>
      <trkpt lat="50.19694" lon="4.45998">
        <ele>284.2</ele>
        <time>2024-08-08T12:53:24Z</time>
      </trkpt>
      <trkpt lat="50.19695" lon="4.45985">
        <ele>283.6</ele>
        <time>2024-08-08T12:53:26Z</time>
      </trkpt>
      <trkpt lat="50.19697" lon="4.45972">
        <ele>283</ele>
        <time>2024-08-08T12:53:28Z</time>
      </trkpt>
      <trkpt lat="50.19702" lon="4.4595">
        <ele>282.2</ele>
        <time>2024-08-08T12:53:31Z</time>
      </trkpt>
      <trkpt lat="50.19707" lon="4.45918">
        <ele>280.8</ele>
        <time>2024-08-08T12:53:36Z</time>
      </trkpt>
      <trkpt lat="50.19714" lon="4.4587">
        <ele>279.2</ele>
        <time>2024-08-08T12:53:42Z</time>
      </trkpt>
      <trkpt lat="50.19715" lon="4.45863">
        <ele>278.8</ele>
        <time>2024-08-08T12:53:43Z</time>
      </trkpt>
      <trkpt lat="50.19718" lon="4.45848">
        <ele>278.2</ele>
        <time>2024-08-08T12:53:45Z</time>
      </trkpt>
      <trkpt lat="50.1972" lon="4.45842">
        <ele>278</ele>
        <time>2024-08-08T12:53:46Z</time>
      </trkpt>
      <trkpt lat="50.19721" lon="4.45825">
        <ele>277</ele>
        <time>2024-08-08T12:53:49Z</time>
      </trkpt>
      <trkpt lat="50.19721" lon="4.45818">
        <ele>276.6</ele>
        <time>2024-08-08T12:53:50Z</time>
      </trkpt>
      <trkpt lat="50.19725" lon="4.45799">
        <ele>275.8</ele>
        <time>2024-08-08T12:53:53Z</time>
      </trkpt>
      <trkpt lat="50.19726" lon="4.45772">
        <ele>274.4</ele>
        <time>2024-08-08T12:53:57Z</time>
      </trkpt>
      <trkpt lat="50.19727" lon="4.45765">
        <ele>274</ele>
        <time>2024-08-08T12:53:58Z</time>
      </trkpt>
      <trkpt lat="50.1973" lon="4.45743">
        <ele>273</ele>
        <time>2024-08-08T12:54:01Z</time>
      </trkpt>
      <trkpt lat="50.19731" lon="4.45736">
        <ele>272.6</ele>
        <time>2024-08-08T12:54:02Z</time>
      </trkpt>
      <trkpt lat="50.19731" lon="4.45729">
        <ele>272.4</ele>
        <time>2024-08-08T12:54:03Z</time>
      </trkpt>
      <trkpt lat="50.19735" lon="4.45707">
        <ele>271.4</ele>
        <time>2024-08-08T12:54:06Z</time>
      </trkpt>
      <trkpt lat="50.19734" lon="4.45695">
        <ele>271</ele>
        <time>2024-08-08T12:54:08Z</time>
      </trkpt>
      <trkpt lat="50.19734" lon="4.45681">
        <ele>270.6</ele>
        <time>2024-08-08T12:54:10Z</time>
      </trkpt>
      <trkpt lat="50.19735" lon="4.45666">
        <ele>270.2</ele>
        <time>2024-08-08T12:54:12Z</time>
      </trkpt>
      <trkpt lat="50.19737" lon="4.45645">
        <ele>269.2</ele>
        <time>2024-08-08T12:54:15Z</time>
      </trkpt>
      <trkpt lat="50.19736" lon="4.45629">
        <ele>268.6</ele>
        <time>2024-08-08T12:54:17Z</time>
      </trkpt>
      <trkpt lat="50.19738" lon="4.45614">
        <ele>267.8</ele>
        <time>2024-08-08T12:54:19Z</time>
      </trkpt>
      <trkpt lat="50.19742" lon="4.45588">
        <ele>266.8</ele>
        <time>2024-08-08T12:54:22Z</time>
      </trkpt>
      <trkpt lat="50.19741" lon="4.45582">
        <ele>266.4</ele>
        <time>2024-08-08T12:54:23Z</time>
      </trkpt>
      <trkpt lat="50.1974" lon="4.45549">
        <ele>265.6</ele>
        <time>2024-08-08T12:54:28Z</time>
      </trkpt>
      <trkpt lat="50.1974" lon="4.45542">
        <ele>265.4</ele>
        <time>2024-08-08T12:54:29Z</time>
      </trkpt>
      <trkpt lat="50.19741" lon="4.45506">
        <ele>264.4</ele>
        <time>2024-08-08T12:54:34Z</time>
      </trkpt>
      <trkpt lat="50.19741" lon="4.45498">
        <ele>264</ele>
        <time>2024-08-08T12:54:35Z</time>
      </trkpt>
      <trkpt lat="50.19741" lon="4.45491">
        <ele>263.8</ele>
        <time>2024-08-08T12:54:36Z</time>
      </trkpt>
      <trkpt lat="50.19742" lon="4.45473">
        <ele>263.6</ele>
        <time>2024-08-08T12:54:38Z</time>
      </trkpt>
      <trkpt lat="50.19742" lon="4.45464">
        <ele>263.4</ele>
        <time>2024-08-08T12:54:39Z</time>
      </trkpt>
      <trkpt lat="50.1974" lon="4.45438">
        <ele>262.8</ele>
        <time>2024-08-08T12:54:42Z</time>
      </trkpt>
      <trkpt lat="50.1974" lon="4.45419">
        <ele>262.4</ele>
        <time>2024-08-08T12:54:44Z</time>
      </trkpt>
      <trkpt lat="50.19739" lon="4.45369">
        <ele>262.4</ele>
        <time>2024-08-08T12:54:49Z</time>
      </trkpt>
      <trkpt lat="50.19739" lon="4.45359">
        <ele>262.4</ele>
        <time>2024-08-08T12:54:50Z</time>
      </trkpt>
      <trkpt lat="50.19738" lon="4.45349">
        <ele>262.4</ele>
        <time>2024-08-08T12:54:51Z</time>
      </trkpt>
      <trkpt lat="50.19739" lon="4.45329">
        <ele>262.2</ele>
        <time>2024-08-08T12:54:53Z</time>
      </trkpt>
      <trkpt lat="50.19741" lon="4.45263">
        <ele>262.6</ele>
        <time>2024-08-08T12:54:59Z</time>
      </trkpt>
      <trkpt lat="50.1974" lon="4.45203">
        <ele>262.6</ele>
        <time>2024-08-08T12:55:05Z</time>
      </trkpt>
      <trkpt lat="50.19741" lon="4.45154">
        <ele>262.2</ele>
        <time>2024-08-08T12:55:10Z</time>
      </trkpt>
      <trkpt lat="50.19743" lon="4.45128">
        <ele>262</ele>
        <time>2024-08-08T12:55:13Z</time>
      </trkpt>
      <trkpt lat="50.19743" lon="4.45118">
        <ele>262</ele>
        <time>2024-08-08T12:55:14Z</time>
      </trkpt>
      <trkpt lat="50.19742" lon="4.451">
        <ele>262</ele>
        <time>2024-08-08T12:55:16Z</time>
      </trkpt>
      <trkpt lat="50.19742" lon="4.4508">
        <ele>261.8</ele>
        <time>2024-08-08T12:55:18Z</time>
      </trkpt>
      <trkpt lat="50.19741" lon="4.45027">
        <ele>261.8</ele>
        <time>2024-08-08T12:55:24Z</time>
      </trkpt>
      <trkpt lat="50.19743" lon="4.44985">
        <ele>261.4</ele>
        <time>2024-08-08T12:55:29Z</time>
      </trkpt>
      <trkpt lat="50.19746" lon="4.44959">
        <ele>261.8</ele>
        <time>2024-08-08T12:55:32Z</time>
      </trkpt>
      <trkpt lat="50.19748" lon="4.44949">
        <ele>261.8</ele>
        <time>2024-08-08T12:55:33Z</time>
      </trkpt>
      <trkpt lat="50.19747" lon="4.44902">
        <ele>262.6</ele>
        <time>2024-08-08T12:55:38Z</time>
      </trkpt>
      <trkpt lat="50.19746" lon="4.44886">
        <ele>262.6</ele>
        <time>2024-08-08T12:55:40Z</time>
      </trkpt>
      <trkpt lat="50.19742" lon="4.4487">
        <ele>262.4</ele>
        <time>2024-08-08T12:55:42Z</time>
      </trkpt>
      <trkpt lat="50.19742" lon="4.44851">
        <ele>262.8</ele>
        <time>2024-08-08T12:55:44Z</time>
      </trkpt>
      <trkpt lat="50.19735" lon="4.44823">
        <ele>263.2</ele>
        <time>2024-08-08T12:55:47Z</time>
      </trkpt>
      <trkpt lat="50.1973" lon="4.44775">
        <ele>264.2</ele>
        <time>2024-08-08T12:55:52Z</time>
      </trkpt>
      <trkpt lat="50.19727" lon="4.4472">
        <ele>265.6</ele>
        <time>2024-08-08T12:55:58Z</time>
      </trkpt>
      <trkpt lat="50.19726" lon="4.44712">
        <ele>265.6</ele>
        <time>2024-08-08T12:55:59Z</time>
      </trkpt>
      <trkpt lat="50.19728" lon="4.44677">
        <ele>266.2</ele>
        <time>2024-08-08T12:56:03Z</time>
      </trkpt>
      <trkpt lat="50.19731" lon="4.44641">
        <ele>266.8</ele>
        <time>2024-08-08T12:56:07Z</time>
      </trkpt>
      <trkpt lat="50.19733" lon="4.44624">
        <ele>267.2</ele>
        <time>2024-08-08T12:56:09Z</time>
      </trkpt>
      <trkpt lat="50.19741" lon="4.44555">
        <ele>268.6</ele>
        <time>2024-08-08T12:56:17Z</time>
      </trkpt>
      <trkpt lat="50.19741" lon="4.44501">
        <ele>269.8</ele>
        <time>2024-08-08T12:56:23Z</time>
      </trkpt>
      <trkpt lat="50.19738" lon="4.44464">
        <ele>270.4</ele>
        <time>2024-08-08T12:56:27Z</time>
      </trkpt>
      <trkpt lat="50.19736" lon="4.44446">
        <ele>270.6</ele>
        <time>2024-08-08T12:56:29Z</time>
      </trkpt>
      <trkpt lat="50.19724" lon="4.44374">
        <ele>271.6</ele>
        <time>2024-08-08T12:56:37Z</time>
      </trkpt>
      <trkpt lat="50.19723" lon="4.44366">
        <ele>271.8</ele>
        <time>2024-08-08T12:56:38Z</time>
      </trkpt>
      <trkpt lat="50.19721" lon="4.44332">
        <ele>272.2</ele>
        <time>2024-08-08T12:56:42Z</time>
      </trkpt>
      <trkpt lat="50.1972" lon="4.44273">
        <ele>272.8</ele>
        <time>2024-08-08T12:56:48Z</time>
      </trkpt>
      <trkpt lat="50.1972" lon="4.44238">
        <ele>273</ele>
        <time>2024-08-08T12:56:52Z</time>
      </trkpt>
      <trkpt lat="50.19719" lon="4.44232">
        <ele>273</ele>
        <time>2024-08-08T12:56:53Z</time>
      </trkpt>
      <trkpt lat="50.19719" lon="4.44219">
        <ele>273.4</ele>
        <time>2024-08-08T12:56:57Z</time>
      </trkpt>
      <trkpt lat="50.19716" lon="4.44198">
        <ele>273.4</ele>
        <time>2024-08-08T12:57:01Z</time>
      </trkpt>
      <trkpt lat="50.19717" lon="4.44179">
        <ele>273.4</ele>
        <time>2024-08-08T12:57:05Z</time>
      </trkpt>
      <trkpt lat="50.19716" lon="4.44161">
        <ele>273.6</ele>
        <time>2024-08-08T12:57:09Z</time>
      </trkpt>
      <trkpt lat="50.19716" lon="4.4415">
        <ele>273.8</ele>
        <time>2024-08-08T12:57:14Z</time>
      </trkpt>
      <trkpt lat="50.19716" lon="4.4415">
        <ele>274.4</ele>
        <time>2024-08-08T12:57:28Z</time>
      </trkpt>
      <trkpt lat="50.19716" lon="4.4415">
        <ele>274.8</ele>
        <time>2024-08-08T12:57:47Z</time>
      </trkpt>
      <trkpt lat="50.19716" lon="4.44139">
        <ele>275</ele>
        <time>2024-08-08T12:57:54Z</time>
      </trkpt>
      <trkpt lat="50.19714" lon="4.441">
        <ele>275</ele>
        <time>2024-08-08T12:58:00Z</time>
      </trkpt>
      <trkpt lat="50.19712" lon="4.44052">
        <ele>275.4</ele>
        <time>2024-08-08T12:58:07Z</time>
      </trkpt>
      <trkpt lat="50.19711" lon="4.43998">
        <ele>276</ele>
        <time>2024-08-08T12:58:15Z</time>
      </trkpt>
      <trkpt lat="50.19712" lon="4.43967">
        <ele>276.4</ele>
        <time>2024-08-08T12:58:20Z</time>
      </trkpt>
      <trkpt lat="50.19713" lon="4.43954">
        <ele>276.4</ele>
        <time>2024-08-08T12:58:22Z</time>
      </trkpt>
      <trkpt lat="50.19713" lon="4.43941">
        <ele>276.6</ele>
        <time>2024-08-08T12:58:24Z</time>
      </trkpt>
      <trkpt lat="50.1971" lon="4.43901">
        <ele>276.8</ele>
        <time>2024-08-08T12:58:30Z</time>
      </trkpt>
      <trkpt lat="50.19706" lon="4.43872">
        <ele>277.2</ele>
        <time>2024-08-08T12:58:35Z</time>
      </trkpt>
      <trkpt lat="50.19702" lon="4.43854">
        <ele>277.2</ele>
        <time>2024-08-08T12:58:38Z</time>
      </trkpt>
      <trkpt lat="50.197" lon="4.43842">
        <ele>277.4</ele>
        <time>2024-08-08T12:58:40Z</time>
      </trkpt>
      <trkpt lat="50.19696" lon="4.4382">
        <ele>277.6</ele>
        <time>2024-08-08T12:58:44Z</time>
      </trkpt>
      <trkpt lat="50.19691" lon="4.43802">
        <ele>277.6</ele>
        <time>2024-08-08T12:58:48Z</time>
      </trkpt>
      <trkpt lat="50.19686" lon="4.43788">
        <ele>277.6</ele>
        <time>2024-08-08T12:58:51Z</time>
      </trkpt>
      <trkpt lat="50.19685" lon="4.43782">
        <ele>277.6</ele>
        <time>2024-08-08T12:58:52Z</time>
      </trkpt>
      <trkpt lat="50.19682" lon="4.43768">
        <ele>277.4</ele>
        <time>2024-08-08T12:58:54Z</time>
      </trkpt>
      <trkpt lat="50.19677" lon="4.43748">
        <ele>277.4</ele>
        <time>2024-08-08T12:58:57Z</time>
      </trkpt>
      <trkpt lat="50.19675" lon="4.43733">
        <ele>277.8</ele>
        <time>2024-08-08T12:58:59Z</time>
      </trkpt>
      <trkpt lat="50.19673" lon="4.43712">
        <ele>276.8</ele>
        <time>2024-08-08T12:59:02Z</time>
      </trkpt>
      <trkpt lat="50.19665" lon="4.43678">
        <ele>276.8</ele>
        <time>2024-08-08T12:59:07Z</time>
      </trkpt>
      <trkpt lat="50.19658" lon="4.43647">
        <ele>276.6</ele>
        <time>2024-08-08T12:59:12Z</time>
      </trkpt>
      <trkpt lat="50.19652" lon="4.43608">
        <ele>276</ele>
        <time>2024-08-08T12:59:18Z</time>
      </trkpt>
      <trkpt lat="50.19646" lon="4.43589">
        <ele>275.8</ele>
        <time>2024-08-08T12:59:21Z</time>
      </trkpt>
      <trkpt lat="50.19644" lon="4.43575">
        <ele>275.8</ele>
        <time>2024-08-08T12:59:23Z</time>
      </trkpt>
      <trkpt lat="50.19642" lon="4.4355">
        <ele>276.2</ele>
        <time>2024-08-08T12:59:27Z</time>
      </trkpt>
      <trkpt lat="50.19639" lon="4.4353">
        <ele>276</ele>
        <time>2024-08-08T12:59:31Z</time>
      </trkpt>
      <trkpt lat="50.19639" lon="4.4351">
        <ele>276.2</ele>
        <time>2024-08-08T12:59:35Z</time>
      </trkpt>
      <trkpt lat="50.19637" lon="4.43486">
        <ele>276</ele>
        <time>2024-08-08T12:59:39Z</time>
      </trkpt>
      <trkpt lat="50.19635" lon="4.43463">
        <ele>276.6</ele>
        <time>2024-08-08T12:59:43Z</time>
      </trkpt>
      <trkpt lat="50.19632" lon="4.43434">
        <ele>276.2</ele>
        <time>2024-08-08T12:59:48Z</time>
      </trkpt>
      <trkpt lat="50.1963" lon="4.43413">
        <ele>276.4</ele>
        <time>2024-08-08T12:59:53Z</time>
      </trkpt>
      <trkpt lat="50.19627" lon="4.43385">
        <ele>275.8</ele>
        <time>2024-08-08T12:59:59Z</time>
      </trkpt>
      <trkpt lat="50.19621" lon="4.43364">
        <ele>275.8</ele>
        <time>2024-08-08T13:00:03Z</time>
      </trkpt>
      <trkpt lat="50.19619" lon="4.43351">
        <ele>275.8</ele>
        <time>2024-08-08T13:00:05Z</time>
      </trkpt>
      <trkpt lat="50.19615" lon="4.43329">
        <ele>275.4</ele>
        <time>2024-08-08T13:00:09Z</time>
      </trkpt>
      <trkpt lat="50.19614" lon="4.43316">
        <ele>275.4</ele>
        <time>2024-08-08T13:00:11Z</time>
      </trkpt>
      <trkpt lat="50.19613" lon="4.43303">
        <ele>275.2</ele>
        <time>2024-08-08T13:00:13Z</time>
      </trkpt>
      <trkpt lat="50.19611" lon="4.43274">
        <ele>274.6</ele>
        <time>2024-08-08T13:00:18Z</time>
      </trkpt>
      <trkpt lat="50.19611" lon="4.43249">
        <ele>274</ele>
        <time>2024-08-08T13:00:22Z</time>
      </trkpt>
      <trkpt lat="50.19606" lon="4.43213">
        <ele>273.6</ele>
        <time>2024-08-08T13:00:28Z</time>
      </trkpt>
      <trkpt lat="50.19601" lon="4.43186">
        <ele>273.4</ele>
        <time>2024-08-08T13:00:33Z</time>
      </trkpt>
      <trkpt lat="50.19599" lon="4.43157">
        <ele>273.2</ele>
        <time>2024-08-08T13:00:38Z</time>
      </trkpt>
      <trkpt lat="50.19594" lon="4.43118">
        <ele>273</ele>
        <time>2024-08-08T13:00:45Z</time>
      </trkpt>
      <trkpt lat="50.19592" lon="4.43089">
        <ele>273</ele>
        <time>2024-08-08T13:00:50Z</time>
      </trkpt>
      <trkpt lat="50.19588" lon="4.43059">
        <ele>273</ele>
        <time>2024-08-08T13:00:55Z</time>
      </trkpt>
      <trkpt lat="50.19584" lon="4.43032">
        <ele>272.8</ele>
        <time>2024-08-08T13:01:00Z</time>
      </trkpt>
      <trkpt lat="50.19582" lon="4.43018">
        <ele>272.6</ele>
        <time>2024-08-08T13:01:02Z</time>
      </trkpt>
      <trkpt lat="50.19579" lon="4.43004">
        <ele>272.4</ele>
        <time>2024-08-08T13:01:04Z</time>
      </trkpt>
      <trkpt lat="50.19577" lon="4.42979">
        <ele>272</ele>
        <time>2024-08-08T13:01:08Z</time>
      </trkpt>
      <trkpt lat="50.19574" lon="4.42948">
        <ele>271.8</ele>
        <time>2024-08-08T13:01:13Z</time>
      </trkpt>
      <trkpt lat="50.19569" lon="4.42917">
        <ele>271.6</ele>
        <time>2024-08-08T13:01:18Z</time>
      </trkpt>
      <trkpt lat="50.19566" lon="4.4288">
        <ele>271.6</ele>
        <time>2024-08-08T13:01:24Z</time>
      </trkpt>
      <trkpt lat="50.1956" lon="4.42846">
        <ele>271.6</ele>
        <time>2024-08-08T13:01:30Z</time>
      </trkpt>
      <trkpt lat="50.19557" lon="4.4281">
        <ele>271.4</ele>
        <time>2024-08-08T13:01:36Z</time>
      </trkpt>
      <trkpt lat="50.19554" lon="4.42775">
        <ele>271.4</ele>
        <time>2024-08-08T13:01:42Z</time>
      </trkpt>
      <trkpt lat="50.19551" lon="4.4274">
        <ele>271.8</ele>
        <time>2024-08-08T13:01:48Z</time>
      </trkpt>
      <trkpt lat="50.19548" lon="4.42706">
        <ele>271.8</ele>
        <time>2024-08-08T13:01:54Z</time>
      </trkpt>
      <trkpt lat="50.19545" lon="4.42667">
        <ele>271.8</ele>
        <time>2024-08-08T13:02:00Z</time>
      </trkpt>
      <trkpt lat="50.19544" lon="4.42636">
        <ele>271.8</ele>
        <time>2024-08-08T13:02:05Z</time>
      </trkpt>
      <trkpt lat="50.1954" lon="4.42604">
        <ele>271.6</ele>
        <time>2024-08-08T13:02:11Z</time>
      </trkpt>
      <trkpt lat="50.19539" lon="4.42577">
        <ele>271.2</ele>
        <time>2024-08-08T13:02:17Z</time>
      </trkpt>
      <trkpt lat="50.19536" lon="4.42555">
        <ele>270.8</ele>
        <time>2024-08-08T13:02:22Z</time>
      </trkpt>
      <trkpt lat="50.19534" lon="4.42539">
        <ele>270.6</ele>
        <time>2024-08-08T13:02:25Z</time>
      </trkpt>
      <trkpt lat="50.19534" lon="4.42534">
        <ele>270.6</ele>
        <time>2024-08-08T13:02:26Z</time>
      </trkpt>
      <trkpt lat="50.19532" lon="4.42521">
        <ele>270.4</ele>
        <time>2024-08-08T13:02:28Z</time>
      </trkpt>
      <trkpt lat="50.19531" lon="4.42509">
        <ele>270.2</ele>
        <time>2024-08-08T13:02:30Z</time>
      </trkpt>
      <trkpt lat="50.19524" lon="4.42469">
        <ele>269.8</ele>
        <time>2024-08-08T13:02:36Z</time>
      </trkpt>
      <trkpt lat="50.19523" lon="4.42461">
        <ele>269.6</ele>
        <time>2024-08-08T13:02:37Z</time>
      </trkpt>
      <trkpt lat="50.1952" lon="4.42435">
        <ele>269.4</ele>
        <time>2024-08-08T13:02:41Z</time>
      </trkpt>
      <trkpt lat="50.1952" lon="4.42428">
        <ele>269.2</ele>
        <time>2024-08-08T13:02:42Z</time>
      </trkpt>
      <trkpt lat="50.19515" lon="4.42408">
        <ele>269</ele>
        <time>2024-08-08T13:02:45Z</time>
      </trkpt>
      <trkpt lat="50.19514" lon="4.42401">
        <ele>269</ele>
        <time>2024-08-08T13:02:46Z</time>
      </trkpt>
      <trkpt lat="50.19509" lon="4.42378">
        <ele>268.4</ele>
        <time>2024-08-08T13:02:50Z</time>
      </trkpt>
      <trkpt lat="50.19499" lon="4.42353">
        <ele>268</ele>
        <time>2024-08-08T13:02:54Z</time>
      </trkpt>
      <trkpt lat="50.19497" lon="4.42346">
        <ele>268</ele>
        <time>2024-08-08T13:02:55Z</time>
      </trkpt>
      <trkpt lat="50.19485" lon="4.42298">
        <ele>267.6</ele>
        <time>2024-08-08T13:03:01Z</time>
      </trkpt>
      <trkpt lat="50.1948" lon="4.42253">
        <ele>267.6</ele>
        <time>2024-08-08T13:03:06Z</time>
      </trkpt>
      <trkpt lat="50.19479" lon="4.42237">
        <ele>267.6</ele>
        <time>2024-08-08T13:03:08Z</time>
      </trkpt>
      <trkpt lat="50.19477" lon="4.42211">
        <ele>267.6</ele>
        <time>2024-08-08T13:03:11Z</time>
      </trkpt>
      <trkpt lat="50.19474" lon="4.42166">
        <ele>267.6</ele>
        <time>2024-08-08T13:03:16Z</time>
      </trkpt>
      <trkpt lat="50.19471" lon="4.42124">
        <ele>267.4</ele>
        <time>2024-08-08T13:03:21Z</time>
      </trkpt>
      <trkpt lat="50.19468" lon="4.42069">
        <ele>267.2</ele>
        <time>2024-08-08T13:03:27Z</time>
      </trkpt>
      <trkpt lat="50.19466" lon="4.4199">
        <ele>266.6</ele>
        <time>2024-08-08T13:03:36Z</time>
      </trkpt>
      <trkpt lat="50.19467" lon="4.41936">
        <ele>266</ele>
        <time>2024-08-08T13:03:42Z</time>
      </trkpt>
      <trkpt lat="50.1947" lon="4.41889">
        <ele>265.4</ele>
        <time>2024-08-08T13:03:48Z</time>
      </trkpt>
      <trkpt lat="50.19471" lon="4.41882">
        <ele>265.4</ele>
        <time>2024-08-08T13:03:49Z</time>
      </trkpt>
      <trkpt lat="50.19478" lon="4.41849">
        <ele>265</ele>
        <time>2024-08-08T13:03:53Z</time>
      </trkpt>
      <trkpt lat="50.19479" lon="4.41841">
        <ele>265</ele>
        <time>2024-08-08T13:03:54Z</time>
      </trkpt>
      <trkpt lat="50.1948" lon="4.41833">
        <ele>264.8</ele>
        <time>2024-08-08T13:03:55Z</time>
      </trkpt>
      <trkpt lat="50.19477" lon="4.41799">
        <ele>264.6</ele>
        <time>2024-08-08T13:03:59Z</time>
      </trkpt>
      <trkpt lat="50.19475" lon="4.41783">
        <ele>264.4</ele>
        <time>2024-08-08T13:04:01Z</time>
      </trkpt>
      <trkpt lat="50.19472" lon="4.41759">
        <ele>264.4</ele>
        <time>2024-08-08T13:04:04Z</time>
      </trkpt>
      <trkpt lat="50.19471" lon="4.41751">
        <ele>264.4</ele>
        <time>2024-08-08T13:04:05Z</time>
      </trkpt>
      <trkpt lat="50.19466" lon="4.41694">
        <ele>264.2</ele>
        <time>2024-08-08T13:04:12Z</time>
      </trkpt>
      <trkpt lat="50.19463" lon="4.41658">
        <ele>264.2</ele>
        <time>2024-08-08T13:04:17Z</time>
      </trkpt>
      <trkpt lat="50.19463" lon="4.41641">
        <ele>264.2</ele>
        <time>2024-08-08T13:04:19Z</time>
      </trkpt>
      <trkpt lat="50.19462" lon="4.41606">
        <ele>264.4</ele>
        <time>2024-08-08T13:04:23Z</time>
      </trkpt>
      <trkpt lat="50.19462" lon="4.41544">
        <ele>264.4</ele>
        <time>2024-08-08T13:04:30Z</time>
      </trkpt>
      <trkpt lat="50.19463" lon="4.41503">
        <ele>264.4</ele>
        <time>2024-08-08T13:04:35Z</time>
      </trkpt>
      <trkpt lat="50.19464" lon="4.41461">
        <ele>264.4</ele>
        <time>2024-08-08T13:04:41Z</time>
      </trkpt>
      <trkpt lat="50.19463" lon="4.414">
        <ele>264.6</ele>
        <time>2024-08-08T13:04:49Z</time>
      </trkpt>
      <trkpt lat="50.19465" lon="4.41336">
        <ele>264.6</ele>
        <time>2024-08-08T13:04:57Z</time>
      </trkpt>
      <trkpt lat="50.19471" lon="4.41278">
        <ele>264.6</ele>
        <time>2024-08-08T13:05:04Z</time>
      </trkpt>
      <trkpt lat="50.19474" lon="4.41226">
        <ele>264.6</ele>
        <time>2024-08-08T13:05:10Z</time>
      </trkpt>
      <trkpt lat="50.19477" lon="4.41167">
        <ele>264.6</ele>
        <time>2024-08-08T13:05:17Z</time>
      </trkpt>
      <trkpt lat="50.19477" lon="4.41151">
        <ele>264.6</ele>
        <time>2024-08-08T13:05:19Z</time>
      </trkpt>
      <trkpt lat="50.1948" lon="4.41118">
        <ele>264.6</ele>
        <time>2024-08-08T13:05:23Z</time>
      </trkpt>
      <trkpt lat="50.19482" lon="4.41068">
        <ele>264.6</ele>
        <time>2024-08-08T13:05:29Z</time>
      </trkpt>
      <trkpt lat="50.19485" lon="4.4102">
        <ele>264.4</ele>
        <time>2024-08-08T13:05:35Z</time>
      </trkpt>
      <trkpt lat="50.19485" lon="4.40983">
        <ele>264</ele>
        <time>2024-08-08T13:05:41Z</time>
      </trkpt>
      <trkpt lat="50.19485" lon="4.40979">
        <ele>263.8</ele>
        <time>2024-08-08T13:05:44Z</time>
      </trkpt>
      <trkpt lat="50.19486" lon="4.4097">
        <ele>263.6</ele>
        <time>2024-08-08T13:05:48Z</time>
      </trkpt>
      <trkpt lat="50.19486" lon="4.40955">
        <ele>263.6</ele>
        <time>2024-08-08T13:05:51Z</time>
      </trkpt>
      <trkpt lat="50.19485" lon="4.40952">
        <ele>263.6</ele>
        <time>2024-08-08T13:05:52Z</time>
      </trkpt>
      <trkpt lat="50.19484" lon="4.4095">
        <ele>263.4</ele>
        <time>2024-08-08T13:05:55Z</time>
      </trkpt>
      <trkpt lat="50.19484" lon="4.4095">
        <ele>263.2</ele>
        <time>2024-08-08T13:06:09Z</time>
      </trkpt>
      <trkpt lat="50.19484" lon="4.4095">
        <ele>262.8</ele>
        <time>2024-08-08T13:06:25Z</time>
      </trkpt>
      <trkpt lat="50.19484" lon="4.40949">
        <ele>262.6</ele>
        <time>2024-08-08T13:06:38Z</time>
      </trkpt>
      <trkpt lat="50.1948" lon="4.40934">
        <ele>262.6</ele>
        <time>2024-08-08T13:06:44Z</time>
      </trkpt>
      <trkpt lat="50.1948" lon="4.40931">
        <ele>262.6</ele>
        <time>2024-08-08T13:06:45Z</time>
      </trkpt>
      <trkpt lat="50.19478" lon="4.40926">
        <ele>262.6</ele>
        <time>2024-08-08T13:06:47Z</time>
      </trkpt>
      <trkpt lat="50.19473" lon="4.4091">
        <ele>262.6</ele>
        <time>2024-08-08T13:06:52Z</time>
      </trkpt>
      <trkpt lat="50.19469" lon="4.40898">
        <ele>262.4</ele>
        <time>2024-08-08T13:06:56Z</time>
      </trkpt>
      <trkpt lat="50.19461" lon="4.40879">
        <ele>262.4</ele>
        <time>2024-08-08T13:07:01Z</time>
      </trkpt>
      <trkpt lat="50.19444" lon="4.40852">
        <ele>262.4</ele>
        <time>2024-08-08T13:07:07Z</time>
      </trkpt>
      <trkpt lat="50.19421" lon="4.40817">
        <ele>261.6</ele>
        <time>2024-08-08T13:07:14Z</time>
      </trkpt>
      <trkpt lat="50.19417" lon="4.40813">
        <ele>261.6</ele>
        <time>2024-08-08T13:07:15Z</time>
      </trkpt>
      <trkpt lat="50.19404" lon="4.40801">
        <ele>261.2</ele>
        <time>2024-08-08T13:07:18Z</time>
      </trkpt>
      <trkpt lat="50.19399" lon="4.40798">
        <ele>261</ele>
        <time>2024-08-08T13:07:19Z</time>
      </trkpt>
      <trkpt lat="50.19372" lon="4.40789">
        <ele>260.2</ele>
        <time>2024-08-08T13:07:24Z</time>
      </trkpt>
      <trkpt lat="50.19361" lon="4.40783">
        <ele>260</ele>
        <time>2024-08-08T13:07:26Z</time>
      </trkpt>
      <trkpt lat="50.1935" lon="4.40773">
        <ele>259.6</ele>
        <time>2024-08-08T13:07:28Z</time>
      </trkpt>
      <trkpt lat="50.19336" lon="4.40748">
        <ele>259</ele>
        <time>2024-08-08T13:07:31Z</time>
      </trkpt>
      <trkpt lat="50.19333" lon="4.40738">
        <ele>258.8</ele>
        <time>2024-08-08T13:07:32Z</time>
      </trkpt>
      <trkpt lat="50.19313" lon="4.40667">
        <ele>257.4</ele>
        <time>2024-08-08T13:07:38Z</time>
      </trkpt>
      <trkpt lat="50.19294" lon="4.40607">
        <ele>255.6</ele>
        <time>2024-08-08T13:07:43Z</time>
      </trkpt>
      <trkpt lat="50.19277" lon="4.40577">
        <ele>254.6</ele>
        <time>2024-08-08T13:07:46Z</time>
      </trkpt>
      <trkpt lat="50.19271" lon="4.40568">
        <ele>254.2</ele>
        <time>2024-08-08T13:07:47Z</time>
      </trkpt>
      <trkpt lat="50.19241" lon="4.40522">
        <ele>252</ele>
        <time>2024-08-08T13:07:52Z</time>
      </trkpt>
      <trkpt lat="50.19236" lon="4.40512">
        <ele>251.6</ele>
        <time>2024-08-08T13:07:53Z</time>
      </trkpt>
      <trkpt lat="50.19214" lon="4.40451">
        <ele>249.4</ele>
        <time>2024-08-08T13:07:58Z</time>
      </trkpt>
      <trkpt lat="50.19194" lon="4.4039">
        <ele>247.4</ele>
        <time>2024-08-08T13:08:03Z</time>
      </trkpt>
      <trkpt lat="50.19179" lon="4.40354">
        <ele>245.8</ele>
        <time>2024-08-08T13:08:07Z</time>
      </trkpt>
      <trkpt lat="50.19167" lon="4.40338">
        <ele>244.4</ele>
        <time>2024-08-08T13:08:10Z</time>
      </trkpt>
      <trkpt lat="50.19165" lon="4.4033">
        <ele>244</ele>
        <time>2024-08-08T13:08:11Z</time>
      </trkpt>
      <trkpt lat="50.19165" lon="4.40321">
        <ele>243.6</ele>
        <time>2024-08-08T13:08:12Z</time>
      </trkpt>
      <trkpt lat="50.19166" lon="4.40302">
        <ele>242.8</ele>
        <time>2024-08-08T13:08:14Z</time>
      </trkpt>
      <trkpt lat="50.19167" lon="4.40243">
        <ele>240.6</ele>
        <time>2024-08-08T13:08:19Z</time>
      </trkpt>
      <trkpt lat="50.19163" lon="4.40176">
        <ele>238</ele>
        <time>2024-08-08T13:08:24Z</time>
      </trkpt>
      <trkpt lat="50.19161" lon="4.40163">
        <ele>237.6</ele>
        <time>2024-08-08T13:08:25Z</time>
      </trkpt>
      <trkpt lat="50.19148" lon="4.401">
        <ele>235.2</ele>
        <time>2024-08-08T13:08:30Z</time>
      </trkpt>
      <trkpt lat="50.19143" lon="4.40077">
        <ele>234.4</ele>
        <time>2024-08-08T13:08:32Z</time>
      </trkpt>
      <trkpt lat="50.1914" lon="4.40057">
        <ele>233.4</ele>
        <time>2024-08-08T13:08:34Z</time>
      </trkpt>
      <trkpt lat="50.19139" lon="4.40046">
        <ele>233</ele>
        <time>2024-08-08T13:08:35Z</time>
      </trkpt>
      <trkpt lat="50.1914" lon="4.40026">
        <ele>232.4</ele>
        <time>2024-08-08T13:08:37Z</time>
      </trkpt>
      <trkpt lat="50.19142" lon="4.40017">
        <ele>232</ele>
        <time>2024-08-08T13:08:38Z</time>
      </trkpt>
      <trkpt lat="50.19149" lon="4.39981">
        <ele>230</ele>
        <time>2024-08-08T13:08:43Z</time>
      </trkpt>
      <trkpt lat="50.19154" lon="4.39977">
        <ele>229.4</ele>
        <time>2024-08-08T13:08:45Z</time>
      </trkpt>
      <trkpt lat="50.19157" lon="4.39978">
        <ele>229</ele>
        <time>2024-08-08T13:08:46Z</time>
      </trkpt>
      <trkpt lat="50.19175" lon="4.39984">
        <ele>227.6</ele>
        <time>2024-08-08T13:08:51Z</time>
      </trkpt>
      <trkpt lat="50.19196" lon="4.39984">
        <ele>226.4</ele>
        <time>2024-08-08T13:08:57Z</time>
      </trkpt>
      <trkpt lat="50.19219" lon="4.39986">
        <ele>225</ele>
        <time>2024-08-08T13:09:04Z</time>
      </trkpt>
      <trkpt lat="50.19229" lon="4.39987">
        <ele>224.4</ele>
        <time>2024-08-08T13:09:08Z</time>
      </trkpt>
      <trkpt lat="50.19244" lon="4.39989">
        <ele>223.8</ele>
        <time>2024-08-08T13:09:13Z</time>
      </trkpt>
      <trkpt lat="50.19263" lon="4.39989">
        <ele>223.4</ele>
        <time>2024-08-08T13:09:19Z</time>
      </trkpt>
      <trkpt lat="50.19279" lon="4.39983">
        <ele>223.6</ele>
        <time>2024-08-08T13:09:24Z</time>
      </trkpt>
      <trkpt lat="50.19302" lon="4.39975">
        <ele>223.8</ele>
        <time>2024-08-08T13:09:31Z</time>
      </trkpt>
      <trkpt lat="50.19316" lon="4.39967">
        <ele>224.2</ele>
        <time>2024-08-08T13:09:36Z</time>
      </trkpt>
      <trkpt lat="50.19337" lon="4.39954">
        <ele>224.8</ele>
        <time>2024-08-08T13:09:44Z</time>
      </trkpt>
      <trkpt lat="50.19352" lon="4.39948">
        <ele>226</ele>
        <time>2024-08-08T13:09:50Z</time>
      </trkpt>
      <trkpt lat="50.19363" lon="4.39938">
        <ele>227</ele>
        <time>2024-08-08T13:09:55Z</time>
      </trkpt>
      <trkpt lat="50.19371" lon="4.39928">
        <ele>227.6</ele>
        <time>2024-08-08T13:09:59Z</time>
      </trkpt>
      <trkpt lat="50.19382" lon="4.39918">
        <ele>228</ele>
        <time>2024-08-08T13:10:03Z</time>
      </trkpt>
      <trkpt lat="50.19394" lon="4.39906">
        <ele>228.6</ele>
        <time>2024-08-08T13:10:07Z</time>
      </trkpt>
      <trkpt lat="50.19412" lon="4.39887">
        <ele>229.8</ele>
        <time>2024-08-08T13:10:13Z</time>
      </trkpt>
      <trkpt lat="50.19433" lon="4.3987">
        <ele>231.4</ele>
        <time>2024-08-08T13:10:20Z</time>
      </trkpt>
      <trkpt lat="50.19445" lon="4.39863">
        <ele>232</ele>
        <time>2024-08-08T13:10:24Z</time>
      </trkpt>
      <trkpt lat="50.19467" lon="4.39852">
        <ele>233.2</ele>
        <time>2024-08-08T13:10:31Z</time>
      </trkpt>
      <trkpt lat="50.19492" lon="4.39843">
        <ele>234.4</ele>
        <time>2024-08-08T13:10:38Z</time>
      </trkpt>
      <trkpt lat="50.19521" lon="4.39837">
        <ele>235.6</ele>
        <time>2024-08-08T13:10:45Z</time>
      </trkpt>
      <trkpt lat="50.19549" lon="4.39833">
        <ele>237</ele>
        <time>2024-08-08T13:10:52Z</time>
      </trkpt>
      <trkpt lat="50.19561" lon="4.39834">
        <ele>237.6</ele>
        <time>2024-08-08T13:10:55Z</time>
      </trkpt>
      <trkpt lat="50.19573" lon="4.39839">
        <ele>238</ele>
        <time>2024-08-08T13:10:58Z</time>
      </trkpt>
      <trkpt lat="50.19602" lon="4.39851">
        <ele>239.4</ele>
        <time>2024-08-08T13:11:05Z</time>
      </trkpt>
      <trkpt lat="50.19629" lon="4.39863">
        <ele>240.6</ele>
        <time>2024-08-08T13:11:12Z</time>
      </trkpt>
      <trkpt lat="50.19649" lon="4.39873">
        <ele>241.2</ele>
        <time>2024-08-08T13:11:17Z</time>
      </trkpt>
      <trkpt lat="50.19653" lon="4.39876">
        <ele>241.4</ele>
        <time>2024-08-08T13:11:18Z</time>
      </trkpt>
      <trkpt lat="50.19675" lon="4.39895">
        <ele>242</ele>
        <time>2024-08-08T13:11:23Z</time>
      </trkpt>
      <trkpt lat="50.19709" lon="4.39926">
        <ele>242.4</ele>
        <time>2024-08-08T13:11:30Z</time>
      </trkpt>
      <trkpt lat="50.19743" lon="4.39958">
        <ele>242.8</ele>
        <time>2024-08-08T13:11:38Z</time>
      </trkpt>
      <trkpt lat="50.19753" lon="4.39969">
        <ele>242.8</ele>
        <time>2024-08-08T13:11:41Z</time>
      </trkpt>
      <trkpt lat="50.19759" lon="4.39974">
        <ele>243</ele>
        <time>2024-08-08T13:11:43Z</time>
      </trkpt>
      <trkpt lat="50.19767" lon="4.39978">
        <ele>243</ele>
        <time>2024-08-08T13:11:46Z</time>
      </trkpt>
      <trkpt lat="50.19768" lon="4.39978">
        <ele>243.2</ele>
        <time>2024-08-08T13:11:50Z</time>
      </trkpt>
      <trkpt lat="50.19768" lon="4.39978">
        <ele>243.6</ele>
        <time>2024-08-08T13:12:03Z</time>
      </trkpt>
      <trkpt lat="50.19768" lon="4.39978">
        <ele>244.2</ele>
        <time>2024-08-08T13:12:23Z</time>
      </trkpt>
      <trkpt lat="50.19771" lon="4.39979">
        <ele>244.6</ele>
        <time>2024-08-08T13:12:32Z</time>
      </trkpt>
      <trkpt lat="50.19773" lon="4.39979">
        <ele>244.6</ele>
        <time>2024-08-08T13:12:33Z</time>
      </trkpt>
      <trkpt lat="50.19786" lon="4.39975">
        <ele>244.8</ele>
        <time>2024-08-08T13:12:38Z</time>
      </trkpt>
      <trkpt lat="50.19804" lon="4.39972">
        <ele>244.8</ele>
        <time>2024-08-08T13:12:43Z</time>
      </trkpt>
      <trkpt lat="50.19816" lon="4.3997">
        <ele>244.6</ele>
        <time>2024-08-08T13:12:47Z</time>
      </trkpt>
      <trkpt lat="50.19834" lon="4.39969">
        <ele>244.2</ele>
        <time>2024-08-08T13:12:52Z</time>
      </trkpt>
      <trkpt lat="50.19854" lon="4.39968">
        <ele>244.8</ele>
        <time>2024-08-08T13:12:58Z</time>
      </trkpt>
      <trkpt lat="50.1987" lon="4.39968">
        <ele>245</ele>
        <time>2024-08-08T13:13:04Z</time>
      </trkpt>
      <trkpt lat="50.1988" lon="4.39977">
        <ele>245.2</ele>
        <time>2024-08-08T13:13:08Z</time>
      </trkpt>
      <trkpt lat="50.19897" lon="4.39996">
        <ele>245.4</ele>
        <time>2024-08-08T13:13:14Z</time>
      </trkpt>
      <trkpt lat="50.19908" lon="4.40006">
        <ele>245.6</ele>
        <time>2024-08-08T13:13:18Z</time>
      </trkpt>
      <trkpt lat="50.19919" lon="4.4002">
        <ele>245.8</ele>
        <time>2024-08-08T13:13:22Z</time>
      </trkpt>
      <trkpt lat="50.19934" lon="4.40036">
        <ele>246.4</ele>
        <time>2024-08-08T13:13:27Z</time>
      </trkpt>
      <trkpt lat="50.19941" lon="4.40046">
        <ele>246.8</ele>
        <time>2024-08-08T13:13:30Z</time>
      </trkpt>
      <trkpt lat="50.19945" lon="4.40049">
        <ele>247</ele>
        <time>2024-08-08T13:13:31Z</time>
      </trkpt>
      <trkpt lat="50.19959" lon="4.40061">
        <ele>247.6</ele>
        <time>2024-08-08T13:13:35Z</time>
      </trkpt>
      <trkpt lat="50.19962" lon="4.40065">
        <ele>247.8</ele>
        <time>2024-08-08T13:13:36Z</time>
      </trkpt>
      <trkpt lat="50.19972" lon="4.40076">
        <ele>248</ele>
        <time>2024-08-08T13:13:39Z</time>
      </trkpt>
      <trkpt lat="50.19989" lon="4.40093">
        <ele>248.4</ele>
        <time>2024-08-08T13:13:43Z</time>
      </trkpt>
      <trkpt lat="50.19993" lon="4.40097">
        <ele>248.6</ele>
        <time>2024-08-08T13:13:44Z</time>
      </trkpt>
      <trkpt lat="50.20004" lon="4.40106">
        <ele>248.8</ele>
        <time>2024-08-08T13:13:46Z</time>
      </trkpt>
      <trkpt lat="50.20011" lon="4.40115">
        <ele>249</ele>
        <time>2024-08-08T13:13:48Z</time>
      </trkpt>
      <trkpt lat="50.20016" lon="4.40119">
        <ele>249.2</ele>
        <time>2024-08-08T13:13:49Z</time>
      </trkpt>
      <trkpt lat="50.20047" lon="4.40158">
        <ele>250</ele>
        <time>2024-08-08T13:13:56Z</time>
      </trkpt>
      <trkpt lat="50.20078" lon="4.40194">
        <ele>250.2</ele>
        <time>2024-08-08T13:14:02Z</time>
      </trkpt>
      <trkpt lat="50.20113" lon="4.40231">
        <ele>249.8</ele>
        <time>2024-08-08T13:14:08Z</time>
      </trkpt>
      <trkpt lat="50.20156" lon="4.40278">
        <ele>248.6</ele>
        <time>2024-08-08T13:14:15Z</time>
      </trkpt>
      <trkpt lat="50.20162" lon="4.40285">
        <ele>248.4</ele>
        <time>2024-08-08T13:14:16Z</time>
      </trkpt>
      <trkpt lat="50.20179" lon="4.40304">
        <ele>247.8</ele>
        <time>2024-08-08T13:14:19Z</time>
      </trkpt>
      <trkpt lat="50.20215" lon="4.40345">
        <ele>246.2</ele>
        <time>2024-08-08T13:14:25Z</time>
      </trkpt>
      <trkpt lat="50.20245" lon="4.4038">
        <ele>243.8</ele>
        <time>2024-08-08T13:14:30Z</time>
      </trkpt>
      <trkpt lat="50.20268" lon="4.40405">
        <ele>241.2</ele>
        <time>2024-08-08T13:14:34Z</time>
      </trkpt>
      <trkpt lat="50.20273" lon="4.40409">
        <ele>240.8</ele>
        <time>2024-08-08T13:14:35Z</time>
      </trkpt>
      <trkpt lat="50.20279" lon="4.40414">
        <ele>240.2</ele>
        <time>2024-08-08T13:14:36Z</time>
      </trkpt>
      <trkpt lat="50.2029" lon="4.40427">
        <ele>239.2</ele>
        <time>2024-08-08T13:14:38Z</time>
      </trkpt>
      <trkpt lat="50.203" lon="4.40442">
        <ele>238</ele>
        <time>2024-08-08T13:14:40Z</time>
      </trkpt>
      <trkpt lat="50.20308" lon="4.40461">
        <ele>237</ele>
        <time>2024-08-08T13:14:42Z</time>
      </trkpt>
      <trkpt lat="50.20322" lon="4.40509">
        <ele>234.6</ele>
        <time>2024-08-08T13:14:47Z</time>
      </trkpt>
      <trkpt lat="50.20328" lon="4.40524">
        <ele>233.6</ele>
        <time>2024-08-08T13:14:49Z</time>
      </trkpt>
      <trkpt lat="50.2033" lon="4.40529">
        <ele>233</ele>
        <time>2024-08-08T13:14:50Z</time>
      </trkpt>
      <trkpt lat="50.20338" lon="4.40544">
        <ele>231</ele>
        <time>2024-08-08T13:14:54Z</time>
      </trkpt>
      <trkpt lat="50.20344" lon="4.40549">
        <ele>229.4</ele>
        <time>2024-08-08T13:14:58Z</time>
      </trkpt>
      <trkpt lat="50.20353" lon="4.40552">
        <ele>227.8</ele>
        <time>2024-08-08T13:15:02Z</time>
      </trkpt>
      <trkpt lat="50.20363" lon="4.40557">
        <ele>226.8</ele>
        <time>2024-08-08T13:15:05Z</time>
      </trkpt>
      <trkpt lat="50.20366" lon="4.40566">
        <ele>226.2</ele>
        <time>2024-08-08T13:15:07Z</time>
      </trkpt>
      <trkpt lat="50.2037" lon="4.40572">
        <ele>225.8</ele>
        <time>2024-08-08T13:15:11Z</time>
      </trkpt>
      <trkpt lat="50.2037" lon="4.40572">
        <ele>222</ele>
        <time>2024-08-08T13:15:24Z</time>
      </trkpt>
      <trkpt lat="50.2037" lon="4.40572">
        <ele>218.8</ele>
        <time>2024-08-08T13:15:40Z</time>
      </trkpt>
      <trkpt lat="50.2037" lon="4.40572">
        <ele>217.4</ele>
        <time>2024-08-08T13:15:48Z</time>
      </trkpt>
      <trkpt lat="50.20373" lon="4.40576">
        <ele>217.6</ele>
        <time>2024-08-08T13:15:50Z</time>
      </trkpt>
      <trkpt lat="50.20375" lon="4.40595">
        <ele>217.6</ele>
        <time>2024-08-08T13:15:54Z</time>
      </trkpt>
      <trkpt lat="50.20375" lon="4.40619">
        <ele>217.2</ele>
        <time>2024-08-08T13:15:58Z</time>
      </trkpt>
      <trkpt lat="50.20373" lon="4.40627">
        <ele>217.2</ele>
        <time>2024-08-08T13:15:59Z</time>
      </trkpt>
      <trkpt lat="50.20358" lon="4.40671">
        <ele>216.8</ele>
        <time>2024-08-08T13:16:05Z</time>
      </trkpt>
      <trkpt lat="50.20348" lon="4.40699">
        <ele>216.4</ele>
        <time>2024-08-08T13:16:09Z</time>
      </trkpt>
      <trkpt lat="50.20343" lon="4.40713">
        <ele>216.4</ele>
        <time>2024-08-08T13:16:11Z</time>
      </trkpt>
      <trkpt lat="50.20341" lon="4.4072">
        <ele>216.2</ele>
        <time>2024-08-08T13:16:12Z</time>
      </trkpt>
      <trkpt lat="50.20332" lon="4.40753">
        <ele>216</ele>
        <time>2024-08-08T13:16:16Z</time>
      </trkpt>
      <trkpt lat="50.20323" lon="4.40785">
        <ele>215.8</ele>
        <time>2024-08-08T13:16:20Z</time>
      </trkpt>
      <trkpt lat="50.20321" lon="4.40801">
        <ele>215.8</ele>
        <time>2024-08-08T13:16:22Z</time>
      </trkpt>
      <trkpt lat="50.20313" lon="4.40852">
        <ele>215.6</ele>
        <time>2024-08-08T13:16:28Z</time>
      </trkpt>
      <trkpt lat="50.2031" lon="4.40923">
        <ele>215.4</ele>
        <time>2024-08-08T13:16:36Z</time>
      </trkpt>
      <trkpt lat="50.20317" lon="4.40994">
        <ele>215.4</ele>
        <time>2024-08-08T13:16:44Z</time>
      </trkpt>
      <trkpt lat="50.20319" lon="4.41012">
        <ele>215.4</ele>
        <time>2024-08-08T13:16:46Z</time>
      </trkpt>
      <trkpt lat="50.20328" lon="4.41055">
        <ele>215.2</ele>
        <time>2024-08-08T13:16:51Z</time>
      </trkpt>
      <trkpt lat="50.20342" lon="4.41103">
        <ele>215.6</ele>
        <time>2024-08-08T13:16:57Z</time>
      </trkpt>
      <trkpt lat="50.20367" lon="4.41166">
        <ele>215.8</ele>
        <time>2024-08-08T13:17:05Z</time>
      </trkpt>
      <trkpt lat="50.20395" lon="4.41227">
        <ele>216</ele>
        <time>2024-08-08T13:17:13Z</time>
      </trkpt>
      <trkpt lat="50.20425" lon="4.41294">
        <ele>216</ele>
        <time>2024-08-08T13:17:22Z</time>
      </trkpt>
      <trkpt lat="50.20452" lon="4.41356">
        <ele>216.6</ele>
        <time>2024-08-08T13:17:30Z</time>
      </trkpt>
      <trkpt lat="50.20469" lon="4.4142">
        <ele>217.2</ele>
        <time>2024-08-08T13:17:37Z</time>
      </trkpt>
      <trkpt lat="50.2048" lon="4.41476">
        <ele>217.8</ele>
        <time>2024-08-08T13:17:43Z</time>
      </trkpt>
      <trkpt lat="50.20492" lon="4.41539">
        <ele>218.4</ele>
        <time>2024-08-08T13:17:50Z</time>
      </trkpt>
      <trkpt lat="50.20496" lon="4.41556">
        <ele>218.8</ele>
        <time>2024-08-08T13:17:52Z</time>
      </trkpt>
      <trkpt lat="50.20506" lon="4.41597">
        <ele>219.6</ele>
        <time>2024-08-08T13:17:57Z</time>
      </trkpt>
      <trkpt lat="50.20515" lon="4.41628">
        <ele>220.2</ele>
        <time>2024-08-08T13:18:01Z</time>
      </trkpt>
      <trkpt lat="50.20521" lon="4.41642">
        <ele>220.6</ele>
        <time>2024-08-08T13:18:03Z</time>
      </trkpt>
      <trkpt lat="50.20543" lon="4.41692">
        <ele>221.8</ele>
        <time>2024-08-08T13:18:10Z</time>
      </trkpt>
      <trkpt lat="50.20569" lon="4.41736">
        <ele>222.6</ele>
        <time>2024-08-08T13:18:17Z</time>
      </trkpt>
      <trkpt lat="50.20597" lon="4.41774">
        <ele>222.8</ele>
        <time>2024-08-08T13:18:24Z</time>
      </trkpt>
      <trkpt lat="50.20623" lon="4.41807">
        <ele>223.2</ele>
        <time>2024-08-08T13:18:31Z</time>
      </trkpt>
      <trkpt lat="50.20664" lon="4.41849">
        <ele>223</ele>
        <time>2024-08-08T13:18:40Z</time>
      </trkpt>
      <trkpt lat="50.20696" lon="4.41891">
        <ele>222.6</ele>
        <time>2024-08-08T13:18:47Z</time>
      </trkpt>
      <trkpt lat="50.20717" lon="4.4193">
        <ele>222.4</ele>
        <time>2024-08-08T13:18:53Z</time>
      </trkpt>
      <trkpt lat="50.2074" lon="4.41959">
        <ele>222</ele>
        <time>2024-08-08T13:18:59Z</time>
      </trkpt>
      <trkpt lat="50.20749" lon="4.41962">
        <ele>222</ele>
        <time>2024-08-08T13:19:01Z</time>
      </trkpt>
      <trkpt lat="50.20759" lon="4.41962">
        <ele>222</ele>
        <time>2024-08-08T13:19:03Z</time>
      </trkpt>
      <trkpt lat="50.20764" lon="4.41962">
        <ele>222</ele>
        <time>2024-08-08T13:19:04Z</time>
      </trkpt>
      <trkpt lat="50.20783" lon="4.41954">
        <ele>222</ele>
        <time>2024-08-08T13:19:08Z</time>
      </trkpt>
      <trkpt lat="50.20808" lon="4.41938">
        <ele>222.2</ele>
        <time>2024-08-08T13:19:14Z</time>
      </trkpt>
      <trkpt lat="50.20829" lon="4.41922">
        <ele>222.4</ele>
        <time>2024-08-08T13:19:20Z</time>
      </trkpt>
      <trkpt lat="50.20853" lon="4.419">
        <ele>222.4</ele>
        <time>2024-08-08T13:19:28Z</time>
      </trkpt>
      <trkpt lat="50.20873" lon="4.41885">
        <ele>222.2</ele>
        <time>2024-08-08T13:19:34Z</time>
      </trkpt>
      <trkpt lat="50.20891" lon="4.41874">
        <ele>222.4</ele>
        <time>2024-08-08T13:19:39Z</time>
      </trkpt>
      <trkpt lat="50.20914" lon="4.41869">
        <ele>222.2</ele>
        <time>2024-08-08T13:19:46Z</time>
      </trkpt>
      <trkpt lat="50.20937" lon="4.41873">
        <ele>222.4</ele>
        <time>2024-08-08T13:19:54Z</time>
      </trkpt>
      <trkpt lat="50.20951" lon="4.41886">
        <ele>222.6</ele>
        <time>2024-08-08T13:20:00Z</time>
      </trkpt>
      <trkpt lat="50.20965" lon="4.41908">
        <ele>222.8</ele>
        <time>2024-08-08T13:20:06Z</time>
      </trkpt>
      <trkpt lat="50.20979" lon="4.41927">
        <ele>223.4</ele>
        <time>2024-08-08T13:20:12Z</time>
      </trkpt>
      <trkpt lat="50.20985" lon="4.41935">
        <ele>224</ele>
        <time>2024-08-08T13:20:15Z</time>
      </trkpt>
      <trkpt lat="50.21004" lon="4.41951">
        <ele>226</ele>
        <time>2024-08-08T13:20:21Z</time>
      </trkpt>
      <trkpt lat="50.21026" lon="4.41961">
        <ele>228.2</ele>
        <time>2024-08-08T13:20:26Z</time>
      </trkpt>
      <trkpt lat="50.21044" lon="4.41965">
        <ele>229.6</ele>
        <time>2024-08-08T13:20:31Z</time>
      </trkpt>
      <trkpt lat="50.21058" lon="4.41967">
        <ele>230.8</ele>
        <time>2024-08-08T13:20:35Z</time>
      </trkpt>
      <trkpt lat="50.21062" lon="4.41968">
        <ele>231</ele>
        <time>2024-08-08T13:20:36Z</time>
      </trkpt>
      <trkpt lat="50.21071" lon="4.4197">
        <ele>231.6</ele>
        <time>2024-08-08T13:20:38Z</time>
      </trkpt>
      <trkpt lat="50.211" lon="4.41973">
        <ele>234.4</ele>
        <time>2024-08-08T13:20:46Z</time>
      </trkpt>
      <trkpt lat="50.21123" lon="4.41976">
        <ele>236.8</ele>
        <time>2024-08-08T13:20:52Z</time>
      </trkpt>
      <trkpt lat="50.21147" lon="4.41978">
        <ele>238.8</ele>
        <time>2024-08-08T13:20:58Z</time>
      </trkpt>
      <trkpt lat="50.21151" lon="4.41977">
        <ele>239.2</ele>
        <time>2024-08-08T13:20:59Z</time>
      </trkpt>
      <trkpt lat="50.2116" lon="4.41976">
        <ele>239.8</ele>
        <time>2024-08-08T13:21:01Z</time>
      </trkpt>
      <trkpt lat="50.21169" lon="4.41977">
        <ele>240.4</ele>
        <time>2024-08-08T13:21:03Z</time>
      </trkpt>
      <trkpt lat="50.21184" lon="4.41972">
        <ele>241.8</ele>
        <time>2024-08-08T13:21:08Z</time>
      </trkpt>
      <trkpt lat="50.21186" lon="4.41965">
        <ele>242.6</ele>
        <time>2024-08-08T13:21:11Z</time>
      </trkpt>
      <trkpt lat="50.21186" lon="4.41965">
        <ele>245.8</ele>
        <time>2024-08-08T13:21:23Z</time>
      </trkpt>
      <trkpt lat="50.21186" lon="4.41965">
        <ele>249</ele>
        <time>2024-08-08T13:21:38Z</time>
      </trkpt>
      <trkpt lat="50.21186" lon="4.41966">
        <ele>251.8</ele>
        <time>2024-08-08T13:21:54Z</time>
      </trkpt>
      <trkpt lat="50.21186" lon="4.41966">
        <ele>254.4</ele>
        <time>2024-08-08T13:22:11Z</time>
      </trkpt>
      <trkpt lat="50.21186" lon="4.41965">
        <ele>256.8</ele>
        <time>2024-08-08T13:22:33Z</time>
      </trkpt>
      <trkpt lat="50.21186" lon="4.41965">
        <ele>258.4</ele>
        <time>2024-08-08T13:22:51Z</time>
      </trkpt>
      <trkpt lat="50.21186" lon="4.41965">
        <ele>259.8</ele>
        <time>2024-08-08T13:23:09Z</time>
      </trkpt>
      <trkpt lat="50.21186" lon="4.41966">
        <ele>260.8</ele>
        <time>2024-08-08T13:23:26Z</time>
      </trkpt>
      <trkpt lat="50.21186" lon="4.41966">
        <ele>261.4</ele>
        <time>2024-08-08T13:23:40Z</time>
      </trkpt>
      <trkpt lat="50.21186" lon="4.41965">
        <ele>262</ele>
        <time>2024-08-08T13:23:53Z</time>
      </trkpt>
      <trkpt lat="50.21186" lon="4.41965">
        <ele>262.6</ele>
        <time>2024-08-08T13:24:08Z</time>
      </trkpt>
      <trkpt lat="50.21185" lon="4.41961">
        <ele>263</ele>
        <time>2024-08-08T13:24:14Z</time>
      </trkpt>
      <trkpt lat="50.21191" lon="4.41944">
        <ele>263.4</ele>
        <time>2024-08-08T13:24:18Z</time>
      </trkpt>
      <trkpt lat="50.21193" lon="4.41932">
        <ele>263.6</ele>
        <time>2024-08-08T13:24:21Z</time>
      </trkpt>
      <trkpt lat="50.21193" lon="4.41923">
        <ele>263.6</ele>
        <time>2024-08-08T13:24:23Z</time>
      </trkpt>
      <trkpt lat="50.21194" lon="4.41919">
        <ele>263.6</ele>
        <time>2024-08-08T13:24:24Z</time>
      </trkpt>
      <trkpt lat="50.21196" lon="4.41906">
        <ele>263.6</ele>
        <time>2024-08-08T13:24:27Z</time>
      </trkpt>
      <trkpt lat="50.21199" lon="4.41873">
        <ele>263.8</ele>
        <time>2024-08-08T13:24:33Z</time>
      </trkpt>
      <trkpt lat="50.21203" lon="4.41845">
        <ele>264</ele>
        <time>2024-08-08T13:24:38Z</time>
      </trkpt>
      <trkpt lat="50.2121" lon="4.41814">
        <ele>264.2</ele>
        <time>2024-08-08T13:24:44Z</time>
      </trkpt>
      <trkpt lat="50.21224" lon="4.41775">
        <ele>264.4</ele>
        <time>2024-08-08T13:24:51Z</time>
      </trkpt>
      <trkpt lat="50.2124" lon="4.41732">
        <ele>264.6</ele>
        <time>2024-08-08T13:24:59Z</time>
      </trkpt>
      <trkpt lat="50.21242" lon="4.41727">
        <ele>264.4</ele>
        <time>2024-08-08T13:25:00Z</time>
      </trkpt>
      <trkpt lat="50.21251" lon="4.41704">
        <ele>264.4</ele>
        <time>2024-08-08T13:25:04Z</time>
      </trkpt>
      <trkpt lat="50.2127" lon="4.41656">
        <ele>264.4</ele>
        <time>2024-08-08T13:25:12Z</time>
      </trkpt>
      <trkpt lat="50.21284" lon="4.41622">
        <ele>264.2</ele>
        <time>2024-08-08T13:25:18Z</time>
      </trkpt>
      <trkpt lat="50.21291" lon="4.41609">
        <ele>264.2</ele>
        <time>2024-08-08T13:25:20Z</time>
      </trkpt>
      <trkpt lat="50.21313" lon="4.41567">
        <ele>264</ele>
        <time>2024-08-08T13:25:27Z</time>
      </trkpt>
      <trkpt lat="50.21342" lon="4.41516">
        <ele>263.4</ele>
        <time>2024-08-08T13:25:35Z</time>
      </trkpt>
      <trkpt lat="50.21364" lon="4.41473">
        <ele>262.6</ele>
        <time>2024-08-08T13:25:41Z</time>
      </trkpt>
      <trkpt lat="50.21374" lon="4.41447">
        <ele>262</ele>
        <time>2024-08-08T13:25:45Z</time>
      </trkpt>
      <trkpt lat="50.21378" lon="4.4144">
        <ele>261.8</ele>
        <time>2024-08-08T13:25:46Z</time>
      </trkpt>
      <trkpt lat="50.21388" lon="4.41419">
        <ele>261.4</ele>
        <time>2024-08-08T13:25:49Z</time>
      </trkpt>
      <trkpt lat="50.21397" lon="4.41396">
        <ele>261</ele>
        <time>2024-08-08T13:25:52Z</time>
      </trkpt>
      <trkpt lat="50.21399" lon="4.41389">
        <ele>260.8</ele>
        <time>2024-08-08T13:25:53Z</time>
      </trkpt>
      <trkpt lat="50.21404" lon="4.41366">
        <ele>260.4</ele>
        <time>2024-08-08T13:25:56Z</time>
      </trkpt>
      <trkpt lat="50.21421" lon="4.41321">
        <ele>259.4</ele>
        <time>2024-08-08T13:26:03Z</time>
      </trkpt>
      <trkpt lat="50.21433" lon="4.41281">
        <ele>258.6</ele>
        <time>2024-08-08T13:26:09Z</time>
      </trkpt>
      <trkpt lat="50.2144" lon="4.41254">
        <ele>257.6</ele>
        <time>2024-08-08T13:26:14Z</time>
      </trkpt>
      <trkpt lat="50.21447" lon="4.41223">
        <ele>256.6</ele>
        <time>2024-08-08T13:26:20Z</time>
      </trkpt>
      <trkpt lat="50.21447" lon="4.41219">
        <ele>256.4</ele>
        <time>2024-08-08T13:26:21Z</time>
      </trkpt>
      <trkpt lat="50.21448" lon="4.41209">
        <ele>256</ele>
        <time>2024-08-08T13:26:23Z</time>
      </trkpt>
      <trkpt lat="50.21452" lon="4.41187">
        <ele>255.2</ele>
        <time>2024-08-08T13:26:27Z</time>
      </trkpt>
      <trkpt lat="50.21456" lon="4.41169">
        <ele>254.2</ele>
        <time>2024-08-08T13:26:31Z</time>
      </trkpt>
      <trkpt lat="50.2146" lon="4.41157">
        <ele>253.4</ele>
        <time>2024-08-08T13:26:34Z</time>
      </trkpt>
      <trkpt lat="50.21463" lon="4.41143">
        <ele>252.4</ele>
        <time>2024-08-08T13:26:37Z</time>
      </trkpt>
      <trkpt lat="50.21468" lon="4.41118">
        <ele>250.8</ele>
        <time>2024-08-08T13:26:42Z</time>
      </trkpt>
      <trkpt lat="50.21472" lon="4.41099">
        <ele>249.8</ele>
        <time>2024-08-08T13:26:45Z</time>
      </trkpt>
      <trkpt lat="50.21473" lon="4.41093">
        <ele>249.4</ele>
        <time>2024-08-08T13:26:46Z</time>
      </trkpt>
      <trkpt lat="50.21474" lon="4.41065">
        <ele>247.6</ele>
        <time>2024-08-08T13:26:51Z</time>
      </trkpt>
      <trkpt lat="50.21475" lon="4.41046">
        <ele>246.2</ele>
        <time>2024-08-08T13:26:55Z</time>
      </trkpt>
      <trkpt lat="50.21477" lon="4.41018">
        <ele>244.4</ele>
        <time>2024-08-08T13:27:00Z</time>
      </trkpt>
      <trkpt lat="50.21477" lon="4.41004">
        <ele>244</ele>
        <time>2024-08-08T13:27:02Z</time>
      </trkpt>
      <trkpt lat="50.21479" lon="4.40998">
        <ele>243.6</ele>
        <time>2024-08-08T13:27:03Z</time>
      </trkpt>
      <trkpt lat="50.21482" lon="4.40993">
        <ele>243.4</ele>
        <time>2024-08-08T13:27:04Z</time>
      </trkpt>
      <trkpt lat="50.21489" lon="4.40985">
        <ele>242.8</ele>
        <time>2024-08-08T13:27:06Z</time>
      </trkpt>
      <trkpt lat="50.21502" lon="4.40979">
        <ele>241.6</ele>
        <time>2024-08-08T13:27:09Z</time>
      </trkpt>
      <trkpt lat="50.21519" lon="4.40976">
        <ele>239.2</ele>
        <time>2024-08-08T13:27:14Z</time>
      </trkpt>
      <trkpt lat="50.21531" lon="4.40973">
        <ele>237.2</ele>
        <time>2024-08-08T13:27:18Z</time>
      </trkpt>
      <trkpt lat="50.21533" lon="4.40974">
        <ele>236.6</ele>
        <time>2024-08-08T13:27:19Z</time>
      </trkpt>
      <trkpt lat="50.21537" lon="4.40973">
        <ele>236.2</ele>
        <time>2024-08-08T13:27:20Z</time>
      </trkpt>
      <trkpt lat="50.2154" lon="4.40973">
        <ele>235.6</ele>
        <time>2024-08-08T13:27:21Z</time>
      </trkpt>
      <trkpt lat="50.21542" lon="4.40974">
        <ele>235</ele>
        <time>2024-08-08T13:27:22Z</time>
      </trkpt>
      <trkpt lat="50.21544" lon="4.40975">
        <ele>234.4</ele>
        <time>2024-08-08T13:27:23Z</time>
      </trkpt>
      <trkpt lat="50.21559" lon="4.4098">
        <ele>232</ele>
        <time>2024-08-08T13:27:28Z</time>
      </trkpt>
      <trkpt lat="50.21573" lon="4.40982">
        <ele>230</ele>
        <time>2024-08-08T13:27:32Z</time>
      </trkpt>
      <trkpt lat="50.21589" lon="4.40981">
        <ele>227.2</ele>
        <time>2024-08-08T13:27:38Z</time>
      </trkpt>
      <trkpt lat="50.21599" lon="4.40984">
        <ele>225.2</ele>
        <time>2024-08-08T13:27:42Z</time>
      </trkpt>
      <trkpt lat="50.21605" lon="4.40986">
        <ele>224.2</ele>
        <time>2024-08-08T13:27:44Z</time>
      </trkpt>
      <trkpt lat="50.21607" lon="4.40987">
        <ele>223.6</ele>
        <time>2024-08-08T13:27:45Z</time>
      </trkpt>
      <trkpt lat="50.21619" lon="4.4099">
        <ele>221.2</ele>
        <time>2024-08-08T13:27:49Z</time>
      </trkpt>
      <trkpt lat="50.21625" lon="4.40992">
        <ele>219.6</ele>
        <time>2024-08-08T13:27:52Z</time>
      </trkpt>
      <trkpt lat="50.21627" lon="4.40996">
        <ele>218.4</ele>
        <time>2024-08-08T13:27:54Z</time>
      </trkpt>
      <trkpt lat="50.21632" lon="4.40998">
        <ele>216.6</ele>
        <time>2024-08-08T13:27:57Z</time>
      </trkpt>
      <trkpt lat="50.21637" lon="4.40997">
        <ele>215.4</ele>
        <time>2024-08-08T13:27:59Z</time>
      </trkpt>
      <trkpt lat="50.21642" lon="4.40997">
        <ele>214.4</ele>
        <time>2024-08-08T13:28:01Z</time>
      </trkpt>
      <trkpt lat="50.21646" lon="4.40998">
        <ele>213.2</ele>
        <time>2024-08-08T13:28:03Z</time>
      </trkpt>
      <trkpt lat="50.21658" lon="4.40996">
        <ele>210.6</ele>
        <time>2024-08-08T13:28:08Z</time>
      </trkpt>
      <trkpt lat="50.21668" lon="4.40992">
        <ele>208.4</ele>
        <time>2024-08-08T13:28:12Z</time>
      </trkpt>
      <trkpt lat="50.21689" lon="4.4098">
        <ele>204.6</ele>
        <time>2024-08-08T13:28:19Z</time>
      </trkpt>
      <trkpt lat="50.21699" lon="4.40975">
        <ele>203.2</ele>
        <time>2024-08-08T13:28:22Z</time>
      </trkpt>
      <trkpt lat="50.21714" lon="4.40964">
        <ele>202</ele>
        <time>2024-08-08T13:28:26Z</time>
      </trkpt>
      <trkpt lat="50.21718" lon="4.40959">
        <ele>202</ele>
        <time>2024-08-08T13:28:27Z</time>
      </trkpt>
      <trkpt lat="50.21728" lon="4.4094">
        <ele>201</ele>
        <time>2024-08-08T13:28:30Z</time>
      </trkpt>
      <trkpt lat="50.21731" lon="4.40933">
        <ele>200.6</ele>
        <time>2024-08-08T13:28:31Z</time>
      </trkpt>
      <trkpt lat="50.21738" lon="4.40918">
        <ele>200</ele>
        <time>2024-08-08T13:28:33Z</time>
      </trkpt>
      <trkpt lat="50.21741" lon="4.40898">
        <ele>199.2</ele>
        <time>2024-08-08T13:28:35Z</time>
      </trkpt>
      <trkpt lat="50.21743" lon="4.40877">
        <ele>198.6</ele>
        <time>2024-08-08T13:28:37Z</time>
      </trkpt>
      <trkpt lat="50.21748" lon="4.40832">
        <ele>198.8</ele>
        <time>2024-08-08T13:28:42Z</time>
      </trkpt>
      <trkpt lat="50.21748" lon="4.40825">
        <ele>198.8</ele>
        <time>2024-08-08T13:28:43Z</time>
      </trkpt>
      <trkpt lat="50.21752" lon="4.40775">
        <ele>197.6</ele>
        <time>2024-08-08T13:28:49Z</time>
      </trkpt>
      <trkpt lat="50.21759" lon="4.4073">
        <ele>196.8</ele>
        <time>2024-08-08T13:28:55Z</time>
      </trkpt>
      <trkpt lat="50.21774" lon="4.40693">
        <ele>196</ele>
        <time>2024-08-08T13:29:00Z</time>
      </trkpt>
      <trkpt lat="50.21782" lon="4.40678">
        <ele>195.4</ele>
        <time>2024-08-08T13:29:03Z</time>
      </trkpt>
      <trkpt lat="50.21785" lon="4.40674">
        <ele>195.2</ele>
        <time>2024-08-08T13:29:04Z</time>
      </trkpt>
      <trkpt lat="50.21803" lon="4.40657">
        <ele>194.4</ele>
        <time>2024-08-08T13:29:08Z</time>
      </trkpt>
      <trkpt lat="50.21834" lon="4.40644">
        <ele>193.2</ele>
        <time>2024-08-08T13:29:13Z</time>
      </trkpt>
      <trkpt lat="50.21876" lon="4.40627">
        <ele>191.6</ele>
        <time>2024-08-08T13:29:20Z</time>
      </trkpt>
      <trkpt lat="50.21882" lon="4.40626">
        <ele>191.4</ele>
        <time>2024-08-08T13:29:21Z</time>
      </trkpt>
      <trkpt lat="50.21892" lon="4.4063">
        <ele>191</ele>
        <time>2024-08-08T13:29:23Z</time>
      </trkpt>
      <trkpt lat="50.21907" lon="4.40636">
        <ele>190.4</ele>
        <time>2024-08-08T13:29:27Z</time>
      </trkpt>
      <trkpt lat="50.21914" lon="4.40638">
        <ele>190.2</ele>
        <time>2024-08-08T13:29:29Z</time>
      </trkpt>
      <trkpt lat="50.21922" lon="4.40632">
        <ele>190</ele>
        <time>2024-08-08T13:29:31Z</time>
      </trkpt>
      <trkpt lat="50.21928" lon="4.4061">
        <ele>189.6</ele>
        <time>2024-08-08T13:29:35Z</time>
      </trkpt>
      <trkpt lat="50.21928" lon="4.40565">
        <ele>188.6</ele>
        <time>2024-08-08T13:29:41Z</time>
      </trkpt>
      <trkpt lat="50.21924" lon="4.40529">
        <ele>188</ele>
        <time>2024-08-08T13:29:46Z</time>
      </trkpt>
      <trkpt lat="50.21923" lon="4.40523">
        <ele>188</ele>
        <time>2024-08-08T13:29:47Z</time>
      </trkpt>
      <trkpt lat="50.21919" lon="4.40504">
        <ele>187.6</ele>
        <time>2024-08-08T13:29:50Z</time>
      </trkpt>
      <trkpt lat="50.21917" lon="4.40497">
        <ele>187.6</ele>
        <time>2024-08-08T13:29:51Z</time>
      </trkpt>
      <trkpt lat="50.21899" lon="4.40453">
        <ele>187.2</ele>
        <time>2024-08-08T13:29:58Z</time>
      </trkpt>
      <trkpt lat="50.21891" lon="4.40437">
        <ele>187</ele>
        <time>2024-08-08T13:30:01Z</time>
      </trkpt>
      <trkpt lat="50.21883" lon="4.40419">
        <ele>186.8</ele>
        <time>2024-08-08T13:30:04Z</time>
      </trkpt>
      <trkpt lat="50.21869" lon="4.40376">
        <ele>186.4</ele>
        <time>2024-08-08T13:30:10Z</time>
      </trkpt>
      <trkpt lat="50.21855" lon="4.40335">
        <ele>186.2</ele>
        <time>2024-08-08T13:30:16Z</time>
      </trkpt>
      <trkpt lat="50.21838" lon="4.40285">
        <ele>185.8</ele>
        <time>2024-08-08T13:30:23Z</time>
      </trkpt>
      <trkpt lat="50.21824" lon="4.40244">
        <ele>185.8</ele>
        <time>2024-08-08T13:30:29Z</time>
      </trkpt>
      <trkpt lat="50.21809" lon="4.402">
        <ele>185.6</ele>
        <time>2024-08-08T13:30:36Z</time>
      </trkpt>
      <trkpt lat="50.21804" lon="4.40187">
        <ele>185.6</ele>
        <time>2024-08-08T13:30:38Z</time>
      </trkpt>
      <trkpt lat="50.21797" lon="4.40166">
        <ele>185.4</ele>
        <time>2024-08-08T13:30:41Z</time>
      </trkpt>
      <trkpt lat="50.21788" lon="4.40138">
        <ele>185.2</ele>
        <time>2024-08-08T13:30:45Z</time>
      </trkpt>
      <trkpt lat="50.21785" lon="4.4013">
        <ele>185.2</ele>
        <time>2024-08-08T13:30:46Z</time>
      </trkpt>
      <trkpt lat="50.21783" lon="4.40124">
        <ele>185</ele>
        <time>2024-08-08T13:30:47Z</time>
      </trkpt>
      <trkpt lat="50.21772" lon="4.4009">
        <ele>185</ele>
        <time>2024-08-08T13:30:52Z</time>
      </trkpt>
      <trkpt lat="50.21756" lon="4.40043">
        <ele>184.8</ele>
        <time>2024-08-08T13:30:59Z</time>
      </trkpt>
      <trkpt lat="50.21742" lon="4.40004">
        <ele>184.6</ele>
        <time>2024-08-08T13:31:05Z</time>
      </trkpt>
      <trkpt lat="50.21737" lon="4.39985">
        <ele>184.6</ele>
        <time>2024-08-08T13:31:08Z</time>
      </trkpt>
      <trkpt lat="50.21737" lon="4.39971">
        <ele>184.6</ele>
        <time>2024-08-08T13:31:10Z</time>
      </trkpt>
      <trkpt lat="50.2175" lon="4.39918">
        <ele>184.4</ele>
        <time>2024-08-08T13:31:18Z</time>
      </trkpt>
      <trkpt lat="50.2175" lon="4.39911">
        <ele>184.4</ele>
        <time>2024-08-08T13:31:19Z</time>
      </trkpt>
      <trkpt lat="50.21749" lon="4.39894">
        <ele>184.4</ele>
        <time>2024-08-08T13:31:22Z</time>
      </trkpt>
      <trkpt lat="50.21738" lon="4.39858">
        <ele>184.4</ele>
        <time>2024-08-08T13:31:29Z</time>
      </trkpt>
      <trkpt lat="50.21729" lon="4.39826">
        <ele>184.6</ele>
        <time>2024-08-08T13:31:36Z</time>
      </trkpt>
      <trkpt lat="50.21729" lon="4.39823">
        <ele>184.6</ele>
        <time>2024-08-08T13:31:37Z</time>
      </trkpt>
      <trkpt lat="50.21731" lon="4.39818">
        <ele>184.6</ele>
        <time>2024-08-08T13:31:39Z</time>
      </trkpt>
      <trkpt lat="50.21732" lon="4.39817">
        <ele>184.8</ele>
        <time>2024-08-08T13:31:43Z</time>
      </trkpt>
      <trkpt lat="50.21732" lon="4.39817">
        <ele>184.8</ele>
        <time>2024-08-08T13:31:55Z</time>
      </trkpt>
      <trkpt lat="50.21732" lon="4.39817">
        <ele>185.2</ele>
        <time>2024-08-08T13:32:16Z</time>
      </trkpt>
      <trkpt lat="50.21732" lon="4.39817">
        <ele>185.2</ele>
        <time>2024-08-08T13:32:32Z</time>
      </trkpt>
      <trkpt lat="50.21732" lon="4.39817">
        <ele>185.2</ele>
        <time>2024-08-08T13:32:44Z</time>
      </trkpt>
      <trkpt lat="50.21732" lon="4.39817">
        <ele>185.2</ele>
        <time>2024-08-08T13:32:55Z</time>
      </trkpt>
      <trkpt lat="50.21732" lon="4.39817">
        <ele>185.2</ele>
        <time>2024-08-08T13:33:10Z</time>
      </trkpt>
      <trkpt lat="50.21732" lon="4.39815">
        <ele>185.4</ele>
        <time>2024-08-08T13:33:15Z</time>
      </trkpt>
      <trkpt lat="50.21732" lon="4.39815">
        <ele>185.4</ele>
        <time>2024-08-08T13:33:26Z</time>
      </trkpt>
      <trkpt lat="50.21732" lon="4.39815">
        <ele>185.4</ele>
        <time>2024-08-08T13:33:46Z</time>
      </trkpt>
      <trkpt lat="50.21744" lon="4.39809">
        <ele>185.4</ele>
        <time>2024-08-08T13:33:50Z</time>
      </trkpt>
      <trkpt lat="50.21761" lon="4.39801">
        <ele>185.2</ele>
        <time>2024-08-08T13:33:55Z</time>
      </trkpt>
      <trkpt lat="50.21774" lon="4.39801">
        <ele>184.6</ele>
        <time>2024-08-08T13:34:00Z</time>
      </trkpt>
      <trkpt lat="50.21793" lon="4.39811">
        <ele>183.8</ele>
        <time>2024-08-08T13:34:05Z</time>
      </trkpt>
      <trkpt lat="50.21814" lon="4.39834">
        <ele>184.4</ele>
        <time>2024-08-08T13:34:11Z</time>
      </trkpt>
      <trkpt lat="50.21826" lon="4.39859">
        <ele>185.2</ele>
        <time>2024-08-08T13:34:16Z</time>
      </trkpt>
      <trkpt lat="50.21839" lon="4.39902">
        <ele>186.2</ele>
        <time>2024-08-08T13:34:24Z</time>
      </trkpt>
      <trkpt lat="50.21854" lon="4.39934">
        <ele>186.8</ele>
        <time>2024-08-08T13:34:31Z</time>
      </trkpt>
      <trkpt lat="50.21871" lon="4.39942">
        <ele>187.4</ele>
        <time>2024-08-08T13:34:36Z</time>
      </trkpt>
      <trkpt lat="50.21889" lon="4.39935">
        <ele>188.4</ele>
        <time>2024-08-08T13:34:41Z</time>
      </trkpt>
      <trkpt lat="50.21902" lon="4.39915">
        <ele>189.4</ele>
        <time>2024-08-08T13:34:46Z</time>
      </trkpt>
      <trkpt lat="50.21908" lon="4.39883">
        <ele>190.6</ele>
        <time>2024-08-08T13:34:52Z</time>
      </trkpt>
      <trkpt lat="50.21904" lon="4.39856">
        <ele>191.6</ele>
        <time>2024-08-08T13:34:57Z</time>
      </trkpt>
      <trkpt lat="50.21898" lon="4.39818">
        <ele>193</ele>
        <time>2024-08-08T13:35:04Z</time>
      </trkpt>
      <trkpt lat="50.21892" lon="4.39786">
        <ele>194.4</ele>
        <time>2024-08-08T13:35:10Z</time>
      </trkpt>
      <trkpt lat="50.21887" lon="4.3975">
        <ele>196.2</ele>
        <time>2024-08-08T13:35:17Z</time>
      </trkpt>
      <trkpt lat="50.21894" lon="4.39725">
        <ele>197.6</ele>
        <time>2024-08-08T13:35:22Z</time>
      </trkpt>
      <trkpt lat="50.2191" lon="4.39713">
        <ele>198.8</ele>
        <time>2024-08-08T13:35:27Z</time>
      </trkpt>
      <trkpt lat="50.21921" lon="4.39716">
        <ele>199.6</ele>
        <time>2024-08-08T13:35:30Z</time>
      </trkpt>
      <trkpt lat="50.21928" lon="4.39723">
        <ele>200.2</ele>
        <time>2024-08-08T13:35:32Z</time>
      </trkpt>
      <trkpt lat="50.21942" lon="4.3975">
        <ele>201.4</ele>
        <time>2024-08-08T13:35:37Z</time>
      </trkpt>
      <trkpt lat="50.21962" lon="4.3979">
        <ele>203</ele>
        <time>2024-08-08T13:35:44Z</time>
      </trkpt>
      <trkpt lat="50.21967" lon="4.39802">
        <ele>203.6</ele>
        <time>2024-08-08T13:35:46Z</time>
      </trkpt>
      <trkpt lat="50.21991" lon="4.39854">
        <ele>205.4</ele>
        <time>2024-08-08T13:35:54Z</time>
      </trkpt>
      <trkpt lat="50.22015" lon="4.3991">
        <ele>207.6</ele>
        <time>2024-08-08T13:36:03Z</time>
      </trkpt>
      <trkpt lat="50.22039" lon="4.39957">
        <ele>209.8</ele>
        <time>2024-08-08T13:36:11Z</time>
      </trkpt>
      <trkpt lat="50.22042" lon="4.39961">
        <ele>210</ele>
        <time>2024-08-08T13:36:12Z</time>
      </trkpt>
      <trkpt lat="50.22047" lon="4.39963">
        <ele>210.4</ele>
        <time>2024-08-08T13:36:13Z</time>
      </trkpt>
      <trkpt lat="50.22057" lon="4.39964">
        <ele>211</ele>
        <time>2024-08-08T13:36:15Z</time>
      </trkpt>
      <trkpt lat="50.22062" lon="4.39963">
        <ele>211.4</ele>
        <time>2024-08-08T13:36:16Z</time>
      </trkpt>
      <trkpt lat="50.22067" lon="4.3996">
        <ele>211.6</ele>
        <time>2024-08-08T13:36:17Z</time>
      </trkpt>
      <trkpt lat="50.22074" lon="4.39951">
        <ele>212.2</ele>
        <time>2024-08-08T13:36:19Z</time>
      </trkpt>
      <trkpt lat="50.22077" lon="4.39945">
        <ele>212.6</ele>
        <time>2024-08-08T13:36:20Z</time>
      </trkpt>
      <trkpt lat="50.2208" lon="4.39938">
        <ele>212.8</ele>
        <time>2024-08-08T13:36:21Z</time>
      </trkpt>
      <trkpt lat="50.22082" lon="4.39926">
        <ele>213.4</ele>
        <time>2024-08-08T13:36:23Z</time>
      </trkpt>
      <trkpt lat="50.22083" lon="4.39919">
        <ele>213.6</ele>
        <time>2024-08-08T13:36:24Z</time>
      </trkpt>
      <trkpt lat="50.22083" lon="4.39913">
        <ele>214</ele>
        <time>2024-08-08T13:36:25Z</time>
      </trkpt>
      <trkpt lat="50.2208" lon="4.399">
        <ele>214.4</ele>
        <time>2024-08-08T13:36:27Z</time>
      </trkpt>
      <trkpt lat="50.22077" lon="4.39896">
        <ele>214.6</ele>
        <time>2024-08-08T13:36:28Z</time>
      </trkpt>
      <trkpt lat="50.22053" lon="4.39867">
        <ele>216</ele>
        <time>2024-08-08T13:36:34Z</time>
      </trkpt>
      <trkpt lat="50.22049" lon="4.39861">
        <ele>216.2</ele>
        <time>2024-08-08T13:36:35Z</time>
      </trkpt>
      <trkpt lat="50.22044" lon="4.39843">
        <ele>216.8</ele>
        <time>2024-08-08T13:36:38Z</time>
      </trkpt>
      <trkpt lat="50.22039" lon="4.3983">
        <ele>217.8</ele>
        <time>2024-08-08T13:36:42Z</time>
      </trkpt>
      <trkpt lat="50.22038" lon="4.39829">
        <ele>218.8</ele>
        <time>2024-08-08T13:36:47Z</time>
      </trkpt>
      <trkpt lat="50.22038" lon="4.39829">
        <ele>221.6</ele>
        <time>2024-08-08T13:37:03Z</time>
      </trkpt>
      <trkpt lat="50.22038" lon="4.39829">
        <ele>224.4</ele>
        <time>2024-08-08T13:37:22Z</time>
      </trkpt>
      <trkpt lat="50.22039" lon="4.39829">
        <ele>226.8</ele>
        <time>2024-08-08T13:37:41Z</time>
      </trkpt>
      <trkpt lat="50.22039" lon="4.39829">
        <ele>228.2</ele>
        <time>2024-08-08T13:37:56Z</time>
      </trkpt>
      <trkpt lat="50.22038" lon="4.39828">
        <ele>230</ele>
        <time>2024-08-08T13:38:16Z</time>
      </trkpt>
      <trkpt lat="50.22037" lon="4.39822">
        <ele>230.4</ele>
        <time>2024-08-08T13:38:22Z</time>
      </trkpt>
      <trkpt lat="50.22028" lon="4.39804">
        <ele>230.6</ele>
        <time>2024-08-08T13:38:28Z</time>
      </trkpt>
      <trkpt lat="50.22014" lon="4.39779">
        <ele>230.8</ele>
        <time>2024-08-08T13:38:35Z</time>
      </trkpt>
      <trkpt lat="50.21999" lon="4.39745">
        <ele>231.2</ele>
        <time>2024-08-08T13:38:43Z</time>
      </trkpt>
      <trkpt lat="50.21989" lon="4.39722">
        <ele>231.2</ele>
        <time>2024-08-08T13:38:48Z</time>
      </trkpt>
      <trkpt lat="50.21983" lon="4.39712">
        <ele>231.2</ele>
        <time>2024-08-08T13:38:50Z</time>
      </trkpt>
      <trkpt lat="50.2198" lon="4.39707">
        <ele>231.2</ele>
        <time>2024-08-08T13:38:51Z</time>
      </trkpt>
      <trkpt lat="50.21968" lon="4.39688">
        <ele>231.2</ele>
        <time>2024-08-08T13:38:55Z</time>
      </trkpt>
      <trkpt lat="50.21956" lon="4.39671">
        <ele>231.2</ele>
        <time>2024-08-08T13:38:59Z</time>
      </trkpt>
      <trkpt lat="50.21949" lon="4.39663">
        <ele>230.8</ele>
        <time>2024-08-08T13:39:01Z</time>
      </trkpt>
      <trkpt lat="50.21941" lon="4.39654">
        <ele>230.8</ele>
        <time>2024-08-08T13:39:03Z</time>
      </trkpt>
      <trkpt lat="50.21935" lon="4.39644">
        <ele>230.8</ele>
        <time>2024-08-08T13:39:05Z</time>
      </trkpt>
      <trkpt lat="50.21933" lon="4.39638">
        <ele>230.8</ele>
        <time>2024-08-08T13:39:06Z</time>
      </trkpt>
      <trkpt lat="50.21912" lon="4.39591">
        <ele>230.6</ele>
        <time>2024-08-08T13:39:13Z</time>
      </trkpt>
      <trkpt lat="50.21883" lon="4.39527">
        <ele>230.4</ele>
        <time>2024-08-08T13:39:21Z</time>
      </trkpt>
      <trkpt lat="50.21863" lon="4.39484">
        <ele>230</ele>
        <time>2024-08-08T13:39:27Z</time>
      </trkpt>
      <trkpt lat="50.2184" lon="4.39439">
        <ele>229.6</ele>
        <time>2024-08-08T13:39:34Z</time>
      </trkpt>
      <trkpt lat="50.21832" lon="4.39427">
        <ele>229.6</ele>
        <time>2024-08-08T13:39:36Z</time>
      </trkpt>
      <trkpt lat="50.21818" lon="4.39408">
        <ele>229.4</ele>
        <time>2024-08-08T13:39:39Z</time>
      </trkpt>
      <trkpt lat="50.21783" lon="4.3937">
        <ele>229</ele>
        <time>2024-08-08T13:39:46Z</time>
      </trkpt>
      <trkpt lat="50.21756" lon="4.39349">
        <ele>228.4</ele>
        <time>2024-08-08T13:39:51Z</time>
      </trkpt>
      <trkpt lat="50.21749" lon="4.39346">
        <ele>228.4</ele>
        <time>2024-08-08T13:39:52Z</time>
      </trkpt>
      <trkpt lat="50.21711" lon="4.39333">
        <ele>227.8</ele>
        <time>2024-08-08T13:39:58Z</time>
      </trkpt>
      <trkpt lat="50.21668" lon="4.39326">
        <ele>227.2</ele>
        <time>2024-08-08T13:40:04Z</time>
      </trkpt>
      <trkpt lat="50.21661" lon="4.39326">
        <ele>227</ele>
        <time>2024-08-08T13:40:05Z</time>
      </trkpt>
      <trkpt lat="50.21637" lon="4.39333">
        <ele>226.4</ele>
        <time>2024-08-08T13:40:08Z</time>
      </trkpt>
      <trkpt lat="50.21612" lon="4.39342">
        <ele>225.6</ele>
        <time>2024-08-08T13:40:11Z</time>
      </trkpt>
      <trkpt lat="50.21604" lon="4.39344">
        <ele>225</ele>
        <time>2024-08-08T13:40:12Z</time>
      </trkpt>
      <trkpt lat="50.21578" lon="4.39353">
        <ele>223</ele>
        <time>2024-08-08T13:40:16Z</time>
      </trkpt>
      <trkpt lat="50.21566" lon="4.39356">
        <ele>221</ele>
        <time>2024-08-08T13:40:20Z</time>
      </trkpt>
      <trkpt lat="50.21565" lon="4.39354">
        <ele>219</ele>
        <time>2024-08-08T13:40:27Z</time>
      </trkpt>
      <trkpt lat="50.21565" lon="4.39354">
        <ele>217.4</ele>
        <time>2024-08-08T13:40:35Z</time>
      </trkpt>
      <trkpt lat="50.21563" lon="4.39353">
        <ele>215.2</ele>
        <time>2024-08-08T13:40:41Z</time>
      </trkpt>
      <trkpt lat="50.21544" lon="4.39362">
        <ele>214.4</ele>
        <time>2024-08-08T13:40:47Z</time>
      </trkpt>
      <trkpt lat="50.21531" lon="4.39351">
        <ele>214.4</ele>
        <time>2024-08-08T13:40:51Z</time>
      </trkpt>
      <trkpt lat="50.21529" lon="4.39338">
        <ele>214.2</ele>
        <time>2024-08-08T13:40:53Z</time>
      </trkpt>
      <trkpt lat="50.21529" lon="4.39323">
        <ele>214</ele>
        <time>2024-08-08T13:40:55Z</time>
      </trkpt>
      <trkpt lat="50.21533" lon="4.39272">
        <ele>213.8</ele>
        <time>2024-08-08T13:41:01Z</time>
      </trkpt>
      <trkpt lat="50.21537" lon="4.39189">
        <ele>213.4</ele>
        <time>2024-08-08T13:41:10Z</time>
      </trkpt>
      <trkpt lat="50.21538" lon="4.39099">
        <ele>213.2</ele>
        <time>2024-08-08T13:41:20Z</time>
      </trkpt>
      <trkpt lat="50.21538" lon="4.39017">
        <ele>213.2</ele>
        <time>2024-08-08T13:41:29Z</time>
      </trkpt>
      <trkpt lat="50.21537" lon="4.38938">
        <ele>213</ele>
        <time>2024-08-08T13:41:37Z</time>
      </trkpt>
      <trkpt lat="50.21536" lon="4.3889">
        <ele>212.8</ele>
        <time>2024-08-08T13:41:42Z</time>
      </trkpt>
      <trkpt lat="50.21537" lon="4.38881">
        <ele>212.8</ele>
        <time>2024-08-08T13:41:43Z</time>
      </trkpt>
      <trkpt lat="50.21537" lon="4.38841">
        <ele>212.8</ele>
        <time>2024-08-08T13:41:47Z</time>
      </trkpt>
      <trkpt lat="50.21546" lon="4.38751">
        <ele>212.4</ele>
        <time>2024-08-08T13:41:55Z</time>
      </trkpt>
      <trkpt lat="50.21551" lon="4.38694">
        <ele>212.2</ele>
        <time>2024-08-08T13:42:00Z</time>
      </trkpt>
      <trkpt lat="50.21555" lon="4.38672">
        <ele>212</ele>
        <time>2024-08-08T13:42:02Z</time>
      </trkpt>
      <trkpt lat="50.21563" lon="4.38641">
        <ele>211.8</ele>
        <time>2024-08-08T13:42:05Z</time>
      </trkpt>
      <trkpt lat="50.2157" lon="4.38622">
        <ele>211.6</ele>
        <time>2024-08-08T13:42:07Z</time>
      </trkpt>
      <trkpt lat="50.216" lon="4.38565">
        <ele>211.2</ele>
        <time>2024-08-08T13:42:14Z</time>
      </trkpt>
      <trkpt lat="50.21635" lon="4.385">
        <ele>211</ele>
        <time>2024-08-08T13:42:23Z</time>
      </trkpt>
      <trkpt lat="50.21646" lon="4.38482">
        <ele>211</ele>
        <time>2024-08-08T13:42:26Z</time>
      </trkpt>
      <trkpt lat="50.21661" lon="4.38467">
        <ele>211.2</ele>
        <time>2024-08-08T13:42:29Z</time>
      </trkpt>
      <trkpt lat="50.21687" lon="4.38449">
        <ele>211.6</ele>
        <time>2024-08-08T13:42:34Z</time>
      </trkpt>
      <trkpt lat="50.21692" lon="4.38449">
        <ele>211.6</ele>
        <time>2024-08-08T13:42:35Z</time>
      </trkpt>
      <trkpt lat="50.21696" lon="4.38448">
        <ele>211.6</ele>
        <time>2024-08-08T13:42:36Z</time>
      </trkpt>
      <trkpt lat="50.21711" lon="4.38444">
        <ele>211.8</ele>
        <time>2024-08-08T13:42:39Z</time>
      </trkpt>
      <trkpt lat="50.21734" lon="4.3844">
        <ele>211.8</ele>
        <time>2024-08-08T13:42:44Z</time>
      </trkpt>
      <trkpt lat="50.21739" lon="4.3844">
        <ele>211.8</ele>
        <time>2024-08-08T13:42:45Z</time>
      </trkpt>
      <trkpt lat="50.21748" lon="4.38441">
        <ele>211.8</ele>
        <time>2024-08-08T13:42:47Z</time>
      </trkpt>
      <trkpt lat="50.21762" lon="4.38444">
        <ele>212</ele>
        <time>2024-08-08T13:42:50Z</time>
      </trkpt>
      <trkpt lat="50.21782" lon="4.38449">
        <ele>212.2</ele>
        <time>2024-08-08T13:42:55Z</time>
      </trkpt>
      <trkpt lat="50.21804" lon="4.38447">
        <ele>212.6</ele>
        <time>2024-08-08T13:43:00Z</time>
      </trkpt>
      <trkpt lat="50.21827" lon="4.38441">
        <ele>213.2</ele>
        <time>2024-08-08T13:43:05Z</time>
      </trkpt>
      <trkpt lat="50.21831" lon="4.38438">
        <ele>213.2</ele>
        <time>2024-08-08T13:43:06Z</time>
      </trkpt>
      <trkpt lat="50.21839" lon="4.38431">
        <ele>213.6</ele>
        <time>2024-08-08T13:43:08Z</time>
      </trkpt>
      <trkpt lat="50.21846" lon="4.38422">
        <ele>213.6</ele>
        <time>2024-08-08T13:43:10Z</time>
      </trkpt>
      <trkpt lat="50.2185" lon="4.38418">
        <ele>213.6</ele>
        <time>2024-08-08T13:43:11Z</time>
      </trkpt>
      <trkpt lat="50.21858" lon="4.38402">
        <ele>213.6</ele>
        <time>2024-08-08T13:43:14Z</time>
      </trkpt>
      <trkpt lat="50.2186" lon="4.38389">
        <ele>213.6</ele>
        <time>2024-08-08T13:43:16Z</time>
      </trkpt>
      <trkpt lat="50.21862" lon="4.38375">
        <ele>213.8</ele>
        <time>2024-08-08T13:43:18Z</time>
      </trkpt>
      <trkpt lat="50.21864" lon="4.38343">
        <ele>214</ele>
        <time>2024-08-08T13:43:24Z</time>
      </trkpt>
      <trkpt lat="50.21857" lon="4.38326">
        <ele>214.2</ele>
        <time>2024-08-08T13:43:28Z</time>
      </trkpt>
      <trkpt lat="50.21857" lon="4.38314">
        <ele>214.4</ele>
        <time>2024-08-08T13:43:31Z</time>
      </trkpt>
      <trkpt lat="50.21859" lon="4.38309">
        <ele>214.4</ele>
        <time>2024-08-08T13:43:32Z</time>
      </trkpt>
      <trkpt lat="50.21873" lon="4.38294">
        <ele>214.2</ele>
        <time>2024-08-08T13:43:37Z</time>
      </trkpt>
      <trkpt lat="50.21889" lon="4.38292">
        <ele>214.2</ele>
        <time>2024-08-08T13:43:42Z</time>
      </trkpt>
      <trkpt lat="50.21912" lon="4.38305">
        <ele>213.6</ele>
        <time>2024-08-08T13:43:48Z</time>
      </trkpt>
      <trkpt lat="50.21932" lon="4.38316">
        <ele>213.8</ele>
        <time>2024-08-08T13:43:54Z</time>
      </trkpt>
      <trkpt lat="50.21952" lon="4.38327">
        <ele>213.8</ele>
        <time>2024-08-08T13:44:00Z</time>
      </trkpt>
      <trkpt lat="50.21962" lon="4.3833">
        <ele>214</ele>
        <time>2024-08-08T13:44:04Z</time>
      </trkpt>
      <trkpt lat="50.21962" lon="4.3833">
        <ele>214.2</ele>
        <time>2024-08-08T13:44:08Z</time>
      </trkpt>
      <trkpt lat="50.21965" lon="4.38329">
        <ele>214.2</ele>
        <time>2024-08-08T13:44:18Z</time>
      </trkpt>
      <trkpt lat="50.21965" lon="4.38329">
        <ele>214.4</ele>
        <time>2024-08-08T13:44:24Z</time>
      </trkpt>
      <trkpt lat="50.21965" lon="4.38329">
        <ele>214.4</ele>
        <time>2024-08-08T13:44:36Z</time>
      </trkpt>
      <trkpt lat="50.21965" lon="4.38329">
        <ele>214.6</ele>
        <time>2024-08-08T13:44:47Z</time>
      </trkpt>
      <trkpt lat="50.21965" lon="4.38329">
        <ele>214.8</ele>
        <time>2024-08-08T13:44:54Z</time>
      </trkpt>
      <trkpt lat="50.21965" lon="4.38329">
        <ele>214.8</ele>
        <time>2024-08-08T13:45:00Z</time>
      </trkpt>
      <trkpt lat="50.21965" lon="4.38328">
        <ele>214.8</ele>
        <time>2024-08-08T13:45:09Z</time>
      </trkpt>
      <trkpt lat="50.21965" lon="4.38328">
        <ele>214.8</ele>
        <time>2024-08-08T13:45:11Z</time>
      </trkpt>
      <trkpt lat="50.21963" lon="4.38323">
        <ele>215</ele>
        <time>2024-08-08T13:45:13Z</time>
      </trkpt>
      <trkpt lat="50.21948" lon="4.38307">
        <ele>215.2</ele>
        <time>2024-08-08T13:45:20Z</time>
      </trkpt>
      <trkpt lat="50.21946" lon="4.38304">
        <ele>215.2</ele>
        <time>2024-08-08T13:45:21Z</time>
      </trkpt>
      <trkpt lat="50.21945" lon="4.38298">
        <ele>215.2</ele>
        <time>2024-08-08T13:45:23Z</time>
      </trkpt>
      <trkpt lat="50.21946" lon="4.38295">
        <ele>215.2</ele>
        <time>2024-08-08T13:45:24Z</time>
      </trkpt>
      <trkpt lat="50.21948" lon="4.38284">
        <ele>215.2</ele>
        <time>2024-08-08T13:45:29Z</time>
      </trkpt>
      <trkpt lat="50.21948" lon="4.38284">
        <ele>215.2</ele>
        <time>2024-08-08T13:45:37Z</time>
      </trkpt>
      <trkpt lat="50.21948" lon="4.38284">
        <ele>215.2</ele>
        <time>2024-08-08T13:45:51Z</time>
      </trkpt>
      <trkpt lat="50.21948" lon="4.38281">
        <ele>215.2</ele>
        <time>2024-08-08T13:45:56Z</time>
      </trkpt>
      <trkpt lat="50.21948" lon="4.38278">
        <ele>215.2</ele>
        <time>2024-08-08T13:45:57Z</time>
      </trkpt>
      <trkpt lat="50.2195" lon="4.38255">
        <ele>214.6</ele>
        <time>2024-08-08T13:46:01Z</time>
      </trkpt>
      <trkpt lat="50.21951" lon="4.38247">
        <ele>214.6</ele>
        <time>2024-08-08T13:46:02Z</time>
      </trkpt>
      <trkpt lat="50.21956" lon="4.38216">
        <ele>214</ele>
        <time>2024-08-08T13:46:05Z</time>
      </trkpt>
      <trkpt lat="50.21963" lon="4.38159">
        <ele>214.2</ele>
        <time>2024-08-08T13:46:10Z</time>
      </trkpt>
      <trkpt lat="50.21966" lon="4.38073">
        <ele>214.4</ele>
        <time>2024-08-08T13:46:19Z</time>
      </trkpt>
      <trkpt lat="50.21969" lon="4.37981">
        <ele>214.8</ele>
        <time>2024-08-08T13:46:29Z</time>
      </trkpt>
      <trkpt lat="50.21969" lon="4.37972">
        <ele>214.8</ele>
        <time>2024-08-08T13:46:30Z</time>
      </trkpt>
      <trkpt lat="50.21971" lon="4.37899">
        <ele>215</ele>
        <time>2024-08-08T13:46:38Z</time>
      </trkpt>
      <trkpt lat="50.21972" lon="4.37818">
        <ele>215.6</ele>
        <time>2024-08-08T13:46:47Z</time>
      </trkpt>
      <trkpt lat="50.21967" lon="4.37755">
        <ele>216</ele>
        <time>2024-08-08T13:46:54Z</time>
      </trkpt>
      <trkpt lat="50.21955" lon="4.3769">
        <ele>216.4</ele>
        <time>2024-08-08T13:47:02Z</time>
      </trkpt>
      <trkpt lat="50.2195" lon="4.37646">
        <ele>216.8</ele>
        <time>2024-08-08T13:47:08Z</time>
      </trkpt>
      <trkpt lat="50.21948" lon="4.37633">
        <ele>217</ele>
        <time>2024-08-08T13:47:10Z</time>
      </trkpt>
      <trkpt lat="50.21942" lon="4.37614">
        <ele>217.2</ele>
        <time>2024-08-08T13:47:13Z</time>
      </trkpt>
      <trkpt lat="50.21927" lon="4.37571">
        <ele>217.4</ele>
        <time>2024-08-08T13:47:19Z</time>
      </trkpt>
      <trkpt lat="50.21909" lon="4.37517">
        <ele>217.8</ele>
        <time>2024-08-08T13:47:26Z</time>
      </trkpt>
      <trkpt lat="50.21893" lon="4.37449">
        <ele>218.2</ele>
        <time>2024-08-08T13:47:34Z</time>
      </trkpt>
      <trkpt lat="50.21884" lon="4.37387">
        <ele>218.4</ele>
        <time>2024-08-08T13:47:41Z</time>
      </trkpt>
      <trkpt lat="50.21876" lon="4.37306">
        <ele>219</ele>
        <time>2024-08-08T13:47:51Z</time>
      </trkpt>
      <trkpt lat="50.21871" lon="4.37266">
        <ele>219.4</ele>
        <time>2024-08-08T13:47:57Z</time>
      </trkpt>
      <trkpt lat="50.21867" lon="4.37254">
        <ele>219.4</ele>
        <time>2024-08-08T13:47:59Z</time>
      </trkpt>
      <trkpt lat="50.21859" lon="4.37246">
        <ele>219.6</ele>
        <time>2024-08-08T13:48:01Z</time>
      </trkpt>
      <trkpt lat="50.21838" lon="4.37238">
        <ele>219.6</ele>
        <time>2024-08-08T13:48:05Z</time>
      </trkpt>
      <trkpt lat="50.21832" lon="4.37237">
        <ele>219.6</ele>
        <time>2024-08-08T13:48:06Z</time>
      </trkpt>
      <trkpt lat="50.21815" lon="4.37235">
        <ele>219.8</ele>
        <time>2024-08-08T13:48:09Z</time>
      </trkpt>
      <trkpt lat="50.21803" lon="4.37239">
        <ele>219.8</ele>
        <time>2024-08-08T13:48:11Z</time>
      </trkpt>
      <trkpt lat="50.21793" lon="4.3725">
        <ele>219.8</ele>
        <time>2024-08-08T13:48:13Z</time>
      </trkpt>
      <trkpt lat="50.21785" lon="4.37264">
        <ele>220</ele>
        <time>2024-08-08T13:48:15Z</time>
      </trkpt>
      <trkpt lat="50.21768" lon="4.37294">
        <ele>220</ele>
        <time>2024-08-08T13:48:19Z</time>
      </trkpt>
      <trkpt lat="50.21757" lon="4.37307">
        <ele>220</ele>
        <time>2024-08-08T13:48:21Z</time>
      </trkpt>
      <trkpt lat="50.21725" lon="4.37333">
        <ele>220.2</ele>
        <time>2024-08-08T13:48:27Z</time>
      </trkpt>
      <trkpt lat="50.21689" lon="4.37353">
        <ele>220.4</ele>
        <time>2024-08-08T13:48:34Z</time>
      </trkpt>
      <trkpt lat="50.21644" lon="4.37365">
        <ele>220.8</ele>
        <time>2024-08-08T13:48:43Z</time>
      </trkpt>
      <trkpt lat="50.21597" lon="4.37373">
        <ele>221.4</ele>
        <time>2024-08-08T13:48:53Z</time>
      </trkpt>
      <trkpt lat="50.21567" lon="4.37377">
        <ele>221.6</ele>
        <time>2024-08-08T13:49:00Z</time>
      </trkpt>
      <trkpt lat="50.21548" lon="4.3738">
        <ele>221.8</ele>
        <time>2024-08-08T13:49:05Z</time>
      </trkpt>
      <trkpt lat="50.21538" lon="4.37378">
        <ele>221.8</ele>
        <time>2024-08-08T13:49:11Z</time>
      </trkpt>
      <trkpt lat="50.2153" lon="4.37378">
        <ele>222</ele>
        <time>2024-08-08T13:49:14Z</time>
      </trkpt>
      <trkpt lat="50.21527" lon="4.37375">
        <ele>222</ele>
        <time>2024-08-08T13:49:15Z</time>
      </trkpt>
      <trkpt lat="50.21515" lon="4.37353">
        <ele>221.8</ele>
        <time>2024-08-08T13:49:20Z</time>
      </trkpt>
      <trkpt lat="50.21511" lon="4.37339">
        <ele>221.6</ele>
        <time>2024-08-08T13:49:22Z</time>
      </trkpt>
      <trkpt lat="50.21505" lon="4.37319">
        <ele>221.2</ele>
        <time>2024-08-08T13:49:25Z</time>
      </trkpt>
      <trkpt lat="50.215" lon="4.37293">
        <ele>220.8</ele>
        <time>2024-08-08T13:49:28Z</time>
      </trkpt>
      <trkpt lat="50.21496" lon="4.37245">
        <ele>220</ele>
        <time>2024-08-08T13:49:33Z</time>
      </trkpt>
      <trkpt lat="50.21492" lon="4.37201">
        <ele>219.2</ele>
        <time>2024-08-08T13:49:38Z</time>
      </trkpt>
      <trkpt lat="50.21491" lon="4.37186">
        <ele>218.8</ele>
        <time>2024-08-08T13:49:40Z</time>
      </trkpt>
      <trkpt lat="50.21489" lon="4.37172">
        <ele>218.4</ele>
        <time>2024-08-08T13:49:42Z</time>
      </trkpt>
      <trkpt lat="50.21487" lon="4.37164">
        <ele>218.2</ele>
        <time>2024-08-08T13:49:43Z</time>
      </trkpt>
      <trkpt lat="50.21486" lon="4.37157">
        <ele>218.2</ele>
        <time>2024-08-08T13:49:44Z</time>
      </trkpt>
      <trkpt lat="50.21478" lon="4.37148">
        <ele>217.8</ele>
        <time>2024-08-08T13:49:46Z</time>
      </trkpt>
      <trkpt lat="50.21455" lon="4.37145">
        <ele>217.2</ele>
        <time>2024-08-08T13:49:51Z</time>
      </trkpt>
      <trkpt lat="50.21433" lon="4.37147">
        <ele>216.2</ele>
        <time>2024-08-08T13:49:56Z</time>
      </trkpt>
      <trkpt lat="50.21412" lon="4.37153">
        <ele>215.8</ele>
        <time>2024-08-08T13:50:01Z</time>
      </trkpt>
      <trkpt lat="50.21396" lon="4.37161">
        <ele>215.4</ele>
        <time>2024-08-08T13:50:06Z</time>
      </trkpt>
      <trkpt lat="50.2138" lon="4.37173">
        <ele>216</ele>
        <time>2024-08-08T13:50:11Z</time>
      </trkpt>
      <trkpt lat="50.21362" lon="4.37185">
        <ele>214.8</ele>
        <time>2024-08-08T13:50:16Z</time>
      </trkpt>
      <trkpt lat="50.2134" lon="4.37193">
        <ele>216</ele>
        <time>2024-08-08T13:50:21Z</time>
      </trkpt>
      <trkpt lat="50.21315" lon="4.37198">
        <ele>216.4</ele>
        <time>2024-08-08T13:50:26Z</time>
      </trkpt>
      <trkpt lat="50.2131" lon="4.372">
        <ele>216.6</ele>
        <time>2024-08-08T13:50:27Z</time>
      </trkpt>
      <trkpt lat="50.213" lon="4.37203">
        <ele>216</ele>
        <time>2024-08-08T13:50:29Z</time>
      </trkpt>
      <trkpt lat="50.21285" lon="4.37207">
        <ele>216.4</ele>
        <time>2024-08-08T13:50:32Z</time>
      </trkpt>
      <trkpt lat="50.2125" lon="4.37212">
        <ele>217</ele>
        <time>2024-08-08T13:50:39Z</time>
      </trkpt>
      <trkpt lat="50.21219" lon="4.37219">
        <ele>218</ele>
        <time>2024-08-08T13:50:46Z</time>
      </trkpt>
      <trkpt lat="50.21205" lon="4.37223">
        <ele>218.4</ele>
        <time>2024-08-08T13:50:50Z</time>
      </trkpt>
      <trkpt lat="50.21184" lon="4.37227">
        <ele>219.4</ele>
        <time>2024-08-08T13:50:56Z</time>
      </trkpt>
      <trkpt lat="50.21168" lon="4.3723">
        <ele>220.2</ele>
        <time>2024-08-08T13:51:01Z</time>
      </trkpt>
      <trkpt lat="50.21155" lon="4.37231">
        <ele>220.8</ele>
        <time>2024-08-08T13:51:06Z</time>
      </trkpt>
      <trkpt lat="50.21151" lon="4.37233">
        <ele>221.2</ele>
        <time>2024-08-08T13:51:08Z</time>
      </trkpt>
      <trkpt lat="50.21148" lon="4.37234">
        <ele>221.4</ele>
        <time>2024-08-08T13:51:10Z</time>
      </trkpt>
      <trkpt lat="50.21137" lon="4.37231">
        <ele>221.8</ele>
        <time>2024-08-08T13:51:15Z</time>
      </trkpt>
      <trkpt lat="50.21133" lon="4.37231">
        <ele>222</ele>
        <time>2024-08-08T13:51:19Z</time>
      </trkpt>
      <trkpt lat="50.21131" lon="4.37232">
        <ele>222.2</ele>
        <time>2024-08-08T13:51:20Z</time>
      </trkpt>
      <trkpt lat="50.21127" lon="4.37235">
        <ele>222.4</ele>
        <time>2024-08-08T13:51:22Z</time>
      </trkpt>
      <trkpt lat="50.21124" lon="4.37237">
        <ele>223.2</ele>
        <time>2024-08-08T13:51:27Z</time>
      </trkpt>
      <trkpt lat="50.21124" lon="4.37237">
        <ele>224</ele>
        <time>2024-08-08T13:51:37Z</time>
      </trkpt>
      <trkpt lat="50.21116" lon="4.37237">
        <ele>224.2</ele>
        <time>2024-08-08T13:51:41Z</time>
      </trkpt>
      <trkpt lat="50.21112" lon="4.3724">
        <ele>224.4</ele>
        <time>2024-08-08T13:51:42Z</time>
      </trkpt>
      <trkpt lat="50.21099" lon="4.37246">
        <ele>224.6</ele>
        <time>2024-08-08T13:51:46Z</time>
      </trkpt>
      <trkpt lat="50.21095" lon="4.37248">
        <ele>224.8</ele>
        <time>2024-08-08T13:51:48Z</time>
      </trkpt>
      <trkpt lat="50.21088" lon="4.37247">
        <ele>224.8</ele>
        <time>2024-08-08T13:51:51Z</time>
      </trkpt>
      <trkpt lat="50.2108" lon="4.37248">
        <ele>225.2</ele>
        <time>2024-08-08T13:51:55Z</time>
      </trkpt>
      <trkpt lat="50.21079" lon="4.37248">
        <ele>225.2</ele>
        <time>2024-08-08T13:51:56Z</time>
      </trkpt>
      <trkpt lat="50.21074" lon="4.37249">
        <ele>225.4</ele>
        <time>2024-08-08T13:51:58Z</time>
      </trkpt>
      <trkpt lat="50.21072" lon="4.3725">
        <ele>225.4</ele>
        <time>2024-08-08T13:51:59Z</time>
      </trkpt>
      <trkpt lat="50.21058" lon="4.37253">
        <ele>225.8</ele>
        <time>2024-08-08T13:52:05Z</time>
      </trkpt>
      <trkpt lat="50.21045" lon="4.37254">
        <ele>225.8</ele>
        <time>2024-08-08T13:52:10Z</time>
      </trkpt>
      <trkpt lat="50.21027" lon="4.37259">
        <ele>225.8</ele>
        <time>2024-08-08T13:52:15Z</time>
      </trkpt>
      <trkpt lat="50.21011" lon="4.37263">
        <ele>225.8</ele>
        <time>2024-08-08T13:52:19Z</time>
      </trkpt>
      <trkpt lat="50.20989" lon="4.3727">
        <ele>226</ele>
        <time>2024-08-08T13:52:24Z</time>
      </trkpt>
      <trkpt lat="50.20965" lon="4.3728">
        <ele>226.2</ele>
        <time>2024-08-08T13:52:30Z</time>
      </trkpt>
      <trkpt lat="50.20948" lon="4.3729">
        <ele>226.2</ele>
        <time>2024-08-08T13:52:34Z</time>
      </trkpt>
      <trkpt lat="50.20938" lon="4.37296">
        <ele>226.2</ele>
        <time>2024-08-08T13:52:36Z</time>
      </trkpt>
      <trkpt lat="50.20908" lon="4.37312">
        <ele>226</ele>
        <time>2024-08-08T13:52:42Z</time>
      </trkpt>
      <trkpt lat="50.2087" lon="4.37328">
        <ele>225.8</ele>
        <time>2024-08-08T13:52:48Z</time>
      </trkpt>
      <trkpt lat="50.20858" lon="4.37333">
        <ele>225.8</ele>
        <time>2024-08-08T13:52:50Z</time>
      </trkpt>
      <trkpt lat="50.20847" lon="4.37339">
        <ele>225.8</ele>
        <time>2024-08-08T13:52:52Z</time>
      </trkpt>
      <trkpt lat="50.20818" lon="4.37357">
        <ele>225.6</ele>
        <time>2024-08-08T13:52:57Z</time>
      </trkpt>
      <trkpt lat="50.20785" lon="4.37372">
        <ele>225.4</ele>
        <time>2024-08-08T13:53:02Z</time>
      </trkpt>
      <trkpt lat="50.20771" lon="4.37378">
        <ele>225.6</ele>
        <time>2024-08-08T13:53:04Z</time>
      </trkpt>
      <trkpt lat="50.20758" lon="4.37383">
        <ele>225.6</ele>
        <time>2024-08-08T13:53:06Z</time>
      </trkpt>
      <trkpt lat="50.20739" lon="4.37387">
        <ele>225.4</ele>
        <time>2024-08-08T13:53:09Z</time>
      </trkpt>
      <trkpt lat="50.20727" lon="4.37387">
        <ele>225.4</ele>
        <time>2024-08-08T13:53:11Z</time>
      </trkpt>
      <trkpt lat="50.20702" lon="4.37387">
        <ele>225.2</ele>
        <time>2024-08-08T13:53:15Z</time>
      </trkpt>
      <trkpt lat="50.20671" lon="4.37383">
        <ele>225.2</ele>
        <time>2024-08-08T13:53:20Z</time>
      </trkpt>
      <trkpt lat="50.20649" lon="4.37377">
        <ele>225.4</ele>
        <time>2024-08-08T13:53:24Z</time>
      </trkpt>
      <trkpt lat="50.20627" lon="4.37366">
        <ele>225.6</ele>
        <time>2024-08-08T13:53:28Z</time>
      </trkpt>
      <trkpt lat="50.20602" lon="4.37352">
        <ele>226</ele>
        <time>2024-08-08T13:53:33Z</time>
      </trkpt>
      <trkpt lat="50.20593" lon="4.37351">
        <ele>226.4</ele>
        <time>2024-08-08T13:53:35Z</time>
      </trkpt>
      <trkpt lat="50.20577" lon="4.37351">
        <ele>226.8</ele>
        <time>2024-08-08T13:53:38Z</time>
      </trkpt>
      <trkpt lat="50.20563" lon="4.3735">
        <ele>227.2</ele>
        <time>2024-08-08T13:53:41Z</time>
      </trkpt>
      <trkpt lat="50.20558" lon="4.3735">
        <ele>228.2</ele>
        <time>2024-08-08T13:53:45Z</time>
      </trkpt>
      <trkpt lat="50.20557" lon="4.37349">
        <ele>228.8</ele>
        <time>2024-08-08T13:53:48Z</time>
      </trkpt>
      <trkpt lat="50.20556" lon="4.37344">
        <ele>229.4</ele>
        <time>2024-08-08T13:53:50Z</time>
      </trkpt>
      <trkpt lat="50.20556" lon="4.37325">
        <ele>230</ele>
        <time>2024-08-08T13:53:54Z</time>
      </trkpt>
      <trkpt lat="50.20554" lon="4.37314">
        <ele>230.4</ele>
        <time>2024-08-08T13:53:57Z</time>
      </trkpt>
      <trkpt lat="50.20553" lon="4.37294">
        <ele>231.4</ele>
        <time>2024-08-08T13:54:02Z</time>
      </trkpt>
      <trkpt lat="50.20553" lon="4.37287">
        <ele>231.8</ele>
        <time>2024-08-08T13:54:04Z</time>
      </trkpt>
      <trkpt lat="50.20552" lon="4.3728">
        <ele>232.2</ele>
        <time>2024-08-08T13:54:06Z</time>
      </trkpt>
      <trkpt lat="50.20552" lon="4.37262">
        <ele>232.6</ele>
        <time>2024-08-08T13:54:10Z</time>
      </trkpt>
      <trkpt lat="50.2055" lon="4.37243">
        <ele>233</ele>
        <time>2024-08-08T13:54:14Z</time>
      </trkpt>
      <trkpt lat="50.2055" lon="4.37211">
        <ele>233.6</ele>
        <time>2024-08-08T13:54:20Z</time>
      </trkpt>
      <trkpt lat="50.20551" lon="4.3719">
        <ele>234</ele>
        <time>2024-08-08T13:54:24Z</time>
      </trkpt>
      <trkpt lat="50.20555" lon="4.37157">
        <ele>234.6</ele>
        <time>2024-08-08T13:54:30Z</time>
      </trkpt>
      <trkpt lat="50.20559" lon="4.37134">
        <ele>235.4</ele>
        <time>2024-08-08T13:54:35Z</time>
      </trkpt>
      <trkpt lat="50.20559" lon="4.37131">
        <ele>235.4</ele>
        <time>2024-08-08T13:54:36Z</time>
      </trkpt>
      <trkpt lat="50.20558" lon="4.37124">
        <ele>235.6</ele>
        <time>2024-08-08T13:54:38Z</time>
      </trkpt>
      <trkpt lat="50.20559" lon="4.37121">
        <ele>235.6</ele>
        <time>2024-08-08T13:54:39Z</time>
      </trkpt>
      <trkpt lat="50.20556" lon="4.37103">
        <ele>236.2</ele>
        <time>2024-08-08T13:54:43Z</time>
      </trkpt>
      <trkpt lat="50.20545" lon="4.37097">
        <ele>237</ele>
        <time>2024-08-08T13:54:47Z</time>
      </trkpt>
      <trkpt lat="50.20528" lon="4.37094">
        <ele>237.8</ele>
        <time>2024-08-08T13:54:52Z</time>
      </trkpt>
      <trkpt lat="50.20512" lon="4.37088">
        <ele>238.8</ele>
        <time>2024-08-08T13:54:57Z</time>
      </trkpt>
      <trkpt lat="50.20498" lon="4.37088">
        <ele>240</ele>
        <time>2024-08-08T13:55:02Z</time>
      </trkpt>
      <trkpt lat="50.20489" lon="4.37087">
        <ele>241</ele>
        <time>2024-08-08T13:55:07Z</time>
      </trkpt>
      <trkpt lat="50.2048" lon="4.37087">
        <ele>241.8</ele>
        <time>2024-08-08T13:55:11Z</time>
      </trkpt>
      <trkpt lat="50.20477" lon="4.37086">
        <ele>242</ele>
        <time>2024-08-08T13:55:12Z</time>
      </trkpt>
      <trkpt lat="50.20464" lon="4.37085">
        <ele>243</ele>
        <time>2024-08-08T13:55:17Z</time>
      </trkpt>
      <trkpt lat="50.20445" lon="4.37087">
        <ele>243.8</ele>
        <time>2024-08-08T13:55:22Z</time>
      </trkpt>
      <trkpt lat="50.20425" lon="4.37089">
        <ele>245</ele>
        <time>2024-08-08T13:55:27Z</time>
      </trkpt>
      <trkpt lat="50.20407" lon="4.37085">
        <ele>245.8</ele>
        <time>2024-08-08T13:55:32Z</time>
      </trkpt>
      <trkpt lat="50.20391" lon="4.37083">
        <ele>246.6</ele>
        <time>2024-08-08T13:55:36Z</time>
      </trkpt>
      <trkpt lat="50.20376" lon="4.37076">
        <ele>247.4</ele>
        <time>2024-08-08T13:55:42Z</time>
      </trkpt>
      <trkpt lat="50.20376" lon="4.37066">
        <ele>247.8</ele>
        <time>2024-08-08T13:55:46Z</time>
      </trkpt>
      <trkpt lat="50.20379" lon="4.37038">
        <ele>248.2</ele>
        <time>2024-08-08T13:55:50Z</time>
      </trkpt>
      <trkpt lat="50.20381" lon="4.37017">
        <ele>248.4</ele>
        <time>2024-08-08T13:55:53Z</time>
      </trkpt>
      <trkpt lat="50.20383" lon="4.36993">
        <ele>248.4</ele>
        <time>2024-08-08T13:55:57Z</time>
      </trkpt>
      <trkpt lat="50.20384" lon="4.36986">
        <ele>248.6</ele>
        <time>2024-08-08T13:55:58Z</time>
      </trkpt>
      <trkpt lat="50.20386" lon="4.36972">
        <ele>248.4</ele>
        <time>2024-08-08T13:56:00Z</time>
      </trkpt>
      <trkpt lat="50.20387" lon="4.36965">
        <ele>248.4</ele>
        <time>2024-08-08T13:56:01Z</time>
      </trkpt>
      <trkpt lat="50.20388" lon="4.36958">
        <ele>248.4</ele>
        <time>2024-08-08T13:56:02Z</time>
      </trkpt>
      <trkpt lat="50.20389" lon="4.36939">
        <ele>248.6</ele>
        <time>2024-08-08T13:56:05Z</time>
      </trkpt>
      <trkpt lat="50.20392" lon="4.36913">
        <ele>248.6</ele>
        <time>2024-08-08T13:56:09Z</time>
      </trkpt>
      <trkpt lat="50.20399" lon="4.36869">
        <ele>248.4</ele>
        <time>2024-08-08T13:56:15Z</time>
      </trkpt>
      <trkpt lat="50.20402" lon="4.36853">
        <ele>248.6</ele>
        <time>2024-08-08T13:56:17Z</time>
      </trkpt>
      <trkpt lat="50.20403" lon="4.36838">
        <ele>248.2</ele>
        <time>2024-08-08T13:56:19Z</time>
      </trkpt>
      <trkpt lat="50.20404" lon="4.36831">
        <ele>248</ele>
        <time>2024-08-08T13:56:20Z</time>
      </trkpt>
      <trkpt lat="50.20408" lon="4.36795">
        <ele>248.4</ele>
        <time>2024-08-08T13:56:25Z</time>
      </trkpt>
      <trkpt lat="50.20413" lon="4.36754">
        <ele>248.2</ele>
        <time>2024-08-08T13:56:31Z</time>
      </trkpt>
      <trkpt lat="50.20419" lon="4.36705">
        <ele>247.8</ele>
        <time>2024-08-08T13:56:38Z</time>
      </trkpt>
      <trkpt lat="50.2042" lon="4.36698">
        <ele>247.6</ele>
        <time>2024-08-08T13:56:39Z</time>
      </trkpt>
      <trkpt lat="50.20421" lon="4.36691">
        <ele>247.6</ele>
        <time>2024-08-08T13:56:40Z</time>
      </trkpt>
      <trkpt lat="50.20423" lon="4.36677">
        <ele>247.6</ele>
        <time>2024-08-08T13:56:42Z</time>
      </trkpt>
      <trkpt lat="50.20424" lon="4.36671">
        <ele>247.4</ele>
        <time>2024-08-08T13:56:43Z</time>
      </trkpt>
      <trkpt lat="50.20427" lon="4.36641">
        <ele>247.2</ele>
        <time>2024-08-08T13:56:47Z</time>
      </trkpt>
      <trkpt lat="50.20428" lon="4.36633">
        <ele>247.2</ele>
        <time>2024-08-08T13:56:48Z</time>
      </trkpt>
      <trkpt lat="50.20436" lon="4.3659">
        <ele>246.6</ele>
        <time>2024-08-08T13:56:53Z</time>
      </trkpt>
      <trkpt lat="50.20452" lon="4.36544">
        <ele>246.6</ele>
        <time>2024-08-08T13:56:58Z</time>
      </trkpt>
      <trkpt lat="50.20472" lon="4.36502">
        <ele>248</ele>
        <time>2024-08-08T13:57:03Z</time>
      </trkpt>
      <trkpt lat="50.20507" lon="4.36459">
        <ele>248</ele>
        <time>2024-08-08T13:57:10Z</time>
      </trkpt>
      <trkpt lat="50.20546" lon="4.36427">
        <ele>248</ele>
        <time>2024-08-08T13:57:17Z</time>
      </trkpt>
      <trkpt lat="50.20566" lon="4.36409">
        <ele>248.6</ele>
        <time>2024-08-08T13:57:22Z</time>
      </trkpt>
      <trkpt lat="50.20568" lon="4.36398">
        <ele>248.2</ele>
        <time>2024-08-08T13:57:24Z</time>
      </trkpt>
      <trkpt lat="50.20562" lon="4.3639">
        <ele>248</ele>
        <time>2024-08-08T13:57:26Z</time>
      </trkpt>
      <trkpt lat="50.20558" lon="4.36386">
        <ele>248</ele>
        <time>2024-08-08T13:57:27Z</time>
      </trkpt>
      <trkpt lat="50.20524" lon="4.36356">
        <ele>248.2</ele>
        <time>2024-08-08T13:57:35Z</time>
      </trkpt>
      <trkpt lat="50.20491" lon="4.36327">
        <ele>248.2</ele>
        <time>2024-08-08T13:57:43Z</time>
      </trkpt>
      <trkpt lat="50.2046" lon="4.363">
        <ele>248.4</ele>
        <time>2024-08-08T13:57:51Z</time>
      </trkpt>
      <trkpt lat="50.20426" lon="4.36267">
        <ele>248.8</ele>
        <time>2024-08-08T13:57:59Z</time>
      </trkpt>
      <trkpt lat="50.20397" lon="4.3623">
        <ele>249</ele>
        <time>2024-08-08T13:58:06Z</time>
      </trkpt>
      <trkpt lat="50.20373" lon="4.36187">
        <ele>249.2</ele>
        <time>2024-08-08T13:58:13Z</time>
      </trkpt>
      <trkpt lat="50.20351" lon="4.36145">
        <ele>249.2</ele>
        <time>2024-08-08T13:58:20Z</time>
      </trkpt>
      <trkpt lat="50.20333" lon="4.36103">
        <ele>249.4</ele>
        <time>2024-08-08T13:58:26Z</time>
      </trkpt>
      <trkpt lat="50.20312" lon="4.36058">
        <ele>249.6</ele>
        <time>2024-08-08T13:58:33Z</time>
      </trkpt>
      <trkpt lat="50.20291" lon="4.36002">
        <ele>249.8</ele>
        <time>2024-08-08T13:58:41Z</time>
      </trkpt>
      <trkpt lat="50.20283" lon="4.35981">
        <ele>249.8</ele>
        <time>2024-08-08T13:58:44Z</time>
      </trkpt>
      <trkpt lat="50.20274" lon="4.35962">
        <ele>249.8</ele>
        <time>2024-08-08T13:58:47Z</time>
      </trkpt>
      <trkpt lat="50.20263" lon="4.3591">
        <ele>250.2</ele>
        <time>2024-08-08T13:58:54Z</time>
      </trkpt>
      <trkpt lat="50.2025" lon="4.35857">
        <ele>250.4</ele>
        <time>2024-08-08T13:59:01Z</time>
      </trkpt>
      <trkpt lat="50.20243" lon="4.35834">
        <ele>250.4</ele>
        <time>2024-08-08T13:59:04Z</time>
      </trkpt>
      <trkpt lat="50.2024" lon="4.35818">
        <ele>250.4</ele>
        <time>2024-08-08T13:59:06Z</time>
      </trkpt>
      <trkpt lat="50.20226" lon="4.35777">
        <ele>250.4</ele>
        <time>2024-08-08T13:59:11Z</time>
      </trkpt>
      <trkpt lat="50.20223" lon="4.3577">
        <ele>250.4</ele>
        <time>2024-08-08T13:59:12Z</time>
      </trkpt>
      <trkpt lat="50.2022" lon="4.35763">
        <ele>250.4</ele>
        <time>2024-08-08T13:59:13Z</time>
      </trkpt>
      <trkpt lat="50.2021" lon="4.35743">
        <ele>250.4</ele>
        <time>2024-08-08T13:59:16Z</time>
      </trkpt>
      <trkpt lat="50.20201" lon="4.35723">
        <ele>250.4</ele>
        <time>2024-08-08T13:59:20Z</time>
      </trkpt>
      <trkpt lat="50.20192" lon="4.35704">
        <ele>250.4</ele>
        <time>2024-08-08T13:59:25Z</time>
      </trkpt>
      <trkpt lat="50.20186" lon="4.35695">
        <ele>250.4</ele>
        <time>2024-08-08T13:59:27Z</time>
      </trkpt>
      <trkpt lat="50.20182" lon="4.35685">
        <ele>250.4</ele>
        <time>2024-08-08T13:59:29Z</time>
      </trkpt>
      <trkpt lat="50.20172" lon="4.35665">
        <ele>250.6</ele>
        <time>2024-08-08T13:59:34Z</time>
      </trkpt>
      <trkpt lat="50.20169" lon="4.35664">
        <ele>250.6</ele>
        <time>2024-08-08T13:59:35Z</time>
      </trkpt>
      <trkpt lat="50.20162" lon="4.35667">
        <ele>250.6</ele>
        <time>2024-08-08T13:59:37Z</time>
      </trkpt>
      <trkpt lat="50.2015" lon="4.35676">
        <ele>250.6</ele>
        <time>2024-08-08T13:59:42Z</time>
      </trkpt>
      <trkpt lat="50.2013" lon="4.35687">
        <ele>250.6</ele>
        <time>2024-08-08T13:59:47Z</time>
      </trkpt>
      <trkpt lat="50.20095" lon="4.35709">
        <ele>250.6</ele>
        <time>2024-08-08T13:59:54Z</time>
      </trkpt>
      <trkpt lat="50.20082" lon="4.35717">
        <ele>250.6</ele>
        <time>2024-08-08T13:59:57Z</time>
      </trkpt>
      <trkpt lat="50.20068" lon="4.35726">
        <ele>250.6</ele>
        <time>2024-08-08T14:00:00Z</time>
      </trkpt>
      <trkpt lat="50.20027" lon="4.35748">
        <ele>250.2</ele>
        <time>2024-08-08T14:00:07Z</time>
      </trkpt>
      <trkpt lat="50.19998" lon="4.35763">
        <ele>249.8</ele>
        <time>2024-08-08T14:00:11Z</time>
      </trkpt>
      <trkpt lat="50.1996" lon="4.35781">
        <ele>249.6</ele>
        <time>2024-08-08T14:00:16Z</time>
      </trkpt>
      <trkpt lat="50.19926" lon="4.35798">
        <ele>249.2</ele>
        <time>2024-08-08T14:00:21Z</time>
      </trkpt>
      <trkpt lat="50.1992" lon="4.35802">
        <ele>249.2</ele>
        <time>2024-08-08T14:00:22Z</time>
      </trkpt>
      <trkpt lat="50.19911" lon="4.35812">
        <ele>249</ele>
        <time>2024-08-08T14:00:24Z</time>
      </trkpt>
      <trkpt lat="50.19897" lon="4.35829">
        <ele>248.8</ele>
        <time>2024-08-08T14:00:27Z</time>
      </trkpt>
      <trkpt lat="50.19874" lon="4.35846">
        <ele>249</ele>
        <time>2024-08-08T14:00:32Z</time>
      </trkpt>
      <trkpt lat="50.19846" lon="4.35854">
        <ele>249</ele>
        <time>2024-08-08T14:00:39Z</time>
      </trkpt>
      <trkpt lat="50.19814" lon="4.35859">
        <ele>249.8</ele>
        <time>2024-08-08T14:00:46Z</time>
      </trkpt>
      <trkpt lat="50.19788" lon="4.35864">
        <ele>249.8</ele>
        <time>2024-08-08T14:00:52Z</time>
      </trkpt>
      <trkpt lat="50.19762" lon="4.35867">
        <ele>250</ele>
        <time>2024-08-08T14:00:58Z</time>
      </trkpt>
      <trkpt lat="50.19737" lon="4.35867">
        <ele>250.4</ele>
        <time>2024-08-08T14:01:04Z</time>
      </trkpt>
      <trkpt lat="50.19706" lon="4.35866">
        <ele>250.6</ele>
        <time>2024-08-08T14:01:11Z</time>
      </trkpt>
      <trkpt lat="50.19702" lon="4.35865">
        <ele>250.8</ele>
        <time>2024-08-08T14:01:12Z</time>
      </trkpt>
      <trkpt lat="50.1967" lon="4.35863">
        <ele>251</ele>
        <time>2024-08-08T14:01:19Z</time>
      </trkpt>
      <trkpt lat="50.19641" lon="4.35859">
        <ele>251.2</ele>
        <time>2024-08-08T14:01:25Z</time>
      </trkpt>
      <trkpt lat="50.19615" lon="4.35854">
        <ele>251.2</ele>
        <time>2024-08-08T14:01:30Z</time>
      </trkpt>
      <trkpt lat="50.19596" lon="4.35846">
        <ele>251.4</ele>
        <time>2024-08-08T14:01:34Z</time>
      </trkpt>
      <trkpt lat="50.19591" lon="4.35844">
        <ele>251.4</ele>
        <time>2024-08-08T14:01:35Z</time>
      </trkpt>
      <trkpt lat="50.19586" lon="4.35843">
        <ele>251.6</ele>
        <time>2024-08-08T14:01:36Z</time>
      </trkpt>
      <trkpt lat="50.19571" lon="4.35839">
        <ele>252</ele>
        <time>2024-08-08T14:01:39Z</time>
      </trkpt>
      <trkpt lat="50.19543" lon="4.35828">
        <ele>252.2</ele>
        <time>2024-08-08T14:01:45Z</time>
      </trkpt>
      <trkpt lat="50.1951" lon="4.35817">
        <ele>252.6</ele>
        <time>2024-08-08T14:01:52Z</time>
      </trkpt>
      <trkpt lat="50.19485" lon="4.35808">
        <ele>253</ele>
        <time>2024-08-08T14:01:58Z</time>
      </trkpt>
      <trkpt lat="50.19455" lon="4.35795">
        <ele>253.6</ele>
        <time>2024-08-08T14:02:06Z</time>
      </trkpt>
      <trkpt lat="50.19442" lon="4.3579">
        <ele>254</ele>
        <time>2024-08-08T14:02:11Z</time>
      </trkpt>
      <trkpt lat="50.19433" lon="4.35795">
        <ele>254.2</ele>
        <time>2024-08-08T14:02:15Z</time>
      </trkpt>
      <trkpt lat="50.1943" lon="4.35797">
        <ele>254.4</ele>
        <time>2024-08-08T14:02:19Z</time>
      </trkpt>
      <trkpt lat="50.19433" lon="4.35817">
        <ele>254.2</ele>
        <time>2024-08-08T14:02:24Z</time>
      </trkpt>
      <trkpt lat="50.19434" lon="4.35836">
        <ele>254.6</ele>
        <time>2024-08-08T14:02:28Z</time>
      </trkpt>
      <trkpt lat="50.19433" lon="4.3586">
        <ele>253.2</ele>
        <time>2024-08-08T14:02:33Z</time>
      </trkpt>
      <trkpt lat="50.1943" lon="4.35876">
        <ele>252.4</ele>
        <time>2024-08-08T14:02:37Z</time>
      </trkpt>
      <trkpt lat="50.19431" lon="4.35895">
        <ele>251.4</ele>
        <time>2024-08-08T14:02:41Z</time>
      </trkpt>
      <trkpt lat="50.19434" lon="4.35905">
        <ele>251.2</ele>
        <time>2024-08-08T14:02:43Z</time>
      </trkpt>
      <trkpt lat="50.19436" lon="4.35911">
        <ele>251</ele>
        <time>2024-08-08T14:02:45Z</time>
      </trkpt>
      <trkpt lat="50.19439" lon="4.35924">
        <ele>251</ele>
        <time>2024-08-08T14:02:48Z</time>
      </trkpt>
      <trkpt lat="50.19439" lon="4.35932">
        <ele>251</ele>
        <time>2024-08-08T14:02:50Z</time>
      </trkpt>
      <trkpt lat="50.19439" lon="4.35938">
        <ele>250.8</ele>
        <time>2024-08-08T14:02:52Z</time>
      </trkpt>
      <trkpt lat="50.19437" lon="4.35943">
        <ele>250.6</ele>
        <time>2024-08-08T14:02:54Z</time>
      </trkpt>
      <trkpt lat="50.19437" lon="4.35946">
        <ele>250.4</ele>
        <time>2024-08-08T14:02:55Z</time>
      </trkpt>
      <trkpt lat="50.19432" lon="4.35961">
        <ele>250</ele>
        <time>2024-08-08T14:03:00Z</time>
      </trkpt>
      <trkpt lat="50.19432" lon="4.35963">
        <ele>249.4</ele>
        <time>2024-08-08T14:03:05Z</time>
      </trkpt>
      <trkpt lat="50.19432" lon="4.35963">
        <ele>248.4</ele>
        <time>2024-08-08T14:03:18Z</time>
      </trkpt>
      <trkpt lat="50.19432" lon="4.35963">
        <ele>247.8</ele>
        <time>2024-08-08T14:03:26Z</time>
      </trkpt>
      <trkpt lat="50.19432" lon="4.35963">
        <ele>247.4</ele>
        <time>2024-08-08T14:03:34Z</time>
      </trkpt>
      <trkpt lat="50.19432" lon="4.35963">
        <ele>247.2</ele>
        <time>2024-08-08T14:03:35Z</time>
      </trkpt>
      <trkpt lat="50.19431" lon="4.3597">
        <ele>247</ele>
        <time>2024-08-08T14:03:38Z</time>
      </trkpt>
      <trkpt lat="50.19428" lon="4.35982">
        <ele>246.6</ele>
        <time>2024-08-08T14:03:44Z</time>
      </trkpt>
      <trkpt lat="50.19421" lon="4.36001">
        <ele>246.6</ele>
        <time>2024-08-08T14:03:48Z</time>
      </trkpt>
      <trkpt lat="50.1942" lon="4.36004">
        <ele>246.6</ele>
        <time>2024-08-08T14:03:49Z</time>
      </trkpt>
      <trkpt lat="50.19416" lon="4.36018">
        <ele>246.6</ele>
        <time>2024-08-08T14:03:52Z</time>
      </trkpt>
      <trkpt lat="50.19406" lon="4.36042">
        <ele>246.6</ele>
        <time>2024-08-08T14:03:57Z</time>
      </trkpt>
      <trkpt lat="50.19398" lon="4.36059">
        <ele>247.2</ele>
        <time>2024-08-08T14:04:02Z</time>
      </trkpt>
      <trkpt lat="50.19394" lon="4.36067">
        <ele>247.4</ele>
        <time>2024-08-08T14:04:04Z</time>
      </trkpt>
      <trkpt lat="50.1939" lon="4.36081">
        <ele>247.6</ele>
        <time>2024-08-08T14:04:07Z</time>
      </trkpt>
      <trkpt lat="50.19388" lon="4.36089">
        <ele>247.6</ele>
        <time>2024-08-08T14:04:09Z</time>
      </trkpt>
      <trkpt lat="50.19385" lon="4.36095">
        <ele>247.6</ele>
        <time>2024-08-08T14:04:10Z</time>
      </trkpt>
      <trkpt lat="50.19374" lon="4.36122">
        <ele>247.8</ele>
        <time>2024-08-08T14:04:15Z</time>
      </trkpt>
      <trkpt lat="50.19371" lon="4.36131">
        <ele>248</ele>
        <time>2024-08-08T14:04:17Z</time>
      </trkpt>
      <trkpt lat="50.19369" lon="4.36138">
        <ele>248.2</ele>
        <time>2024-08-08T14:04:18Z</time>
      </trkpt>
      <trkpt lat="50.1936" lon="4.36158">
        <ele>248.4</ele>
        <time>2024-08-08T14:04:22Z</time>
      </trkpt>
      <trkpt lat="50.19351" lon="4.36182">
        <ele>248.6</ele>
        <time>2024-08-08T14:04:26Z</time>
      </trkpt>
      <trkpt lat="50.19341" lon="4.36205">
        <ele>249</ele>
        <time>2024-08-08T14:04:30Z</time>
      </trkpt>
      <trkpt lat="50.19332" lon="4.36226">
        <ele>249.2</ele>
        <time>2024-08-08T14:04:34Z</time>
      </trkpt>
      <trkpt lat="50.19326" lon="4.36247">
        <ele>249.4</ele>
        <time>2024-08-08T14:04:38Z</time>
      </trkpt>
      <trkpt lat="50.19314" lon="4.36274">
        <ele>250</ele>
        <time>2024-08-08T14:04:42Z</time>
      </trkpt>
      <trkpt lat="50.193" lon="4.36305">
        <ele>250.8</ele>
        <time>2024-08-08T14:04:47Z</time>
      </trkpt>
      <trkpt lat="50.19292" lon="4.36328">
        <ele>251.4</ele>
        <time>2024-08-08T14:04:51Z</time>
      </trkpt>
      <trkpt lat="50.19279" lon="4.36363">
        <ele>252.6</ele>
        <time>2024-08-08T14:04:57Z</time>
      </trkpt>
      <trkpt lat="50.19276" lon="4.36379">
        <ele>253.2</ele>
        <time>2024-08-08T14:05:00Z</time>
      </trkpt>
      <trkpt lat="50.19272" lon="4.36398">
        <ele>253.8</ele>
        <time>2024-08-08T14:05:05Z</time>
      </trkpt>
      <trkpt lat="50.19272" lon="4.36398">
        <ele>254.6</ele>
        <time>2024-08-08T14:05:12Z</time>
      </trkpt>
      <trkpt lat="50.19272" lon="4.36398">
        <ele>257</ele>
        <time>2024-08-08T14:05:33Z</time>
      </trkpt>
      <trkpt lat="50.19271" lon="4.36397">
        <ele>258.2</ele>
        <time>2024-08-08T14:05:48Z</time>
      </trkpt>
      <trkpt lat="50.19271" lon="4.36397">
        <ele>259.6</ele>
        <time>2024-08-08T14:06:09Z</time>
      </trkpt>
      <trkpt lat="50.19271" lon="4.36397">
        <ele>260.6</ele>
        <time>2024-08-08T14:06:28Z</time>
      </trkpt>
      <trkpt lat="50.1927" lon="4.36401">
        <ele>260.6</ele>
        <time>2024-08-08T14:06:31Z</time>
      </trkpt>
      <trkpt lat="50.19269" lon="4.36403">
        <ele>260.8</ele>
        <time>2024-08-08T14:06:32Z</time>
      </trkpt>
      <trkpt lat="50.19265" lon="4.36421">
        <ele>261.2</ele>
        <time>2024-08-08T14:06:37Z</time>
      </trkpt>
      <trkpt lat="50.1926" lon="4.36445">
        <ele>261.6</ele>
        <time>2024-08-08T14:06:42Z</time>
      </trkpt>
      <trkpt lat="50.19255" lon="4.36473">
        <ele>262</ele>
        <time>2024-08-08T14:06:47Z</time>
      </trkpt>
      <trkpt lat="50.1925" lon="4.36498">
        <ele>262.4</ele>
        <time>2024-08-08T14:06:52Z</time>
      </trkpt>
      <trkpt lat="50.1924" lon="4.36544">
        <ele>262.6</ele>
        <time>2024-08-08T14:07:00Z</time>
      </trkpt>
      <trkpt lat="50.19232" lon="4.36583">
        <ele>263</ele>
        <time>2024-08-08T14:07:07Z</time>
      </trkpt>
      <trkpt lat="50.19223" lon="4.36624">
        <ele>263.2</ele>
        <time>2024-08-08T14:07:14Z</time>
      </trkpt>
      <trkpt lat="50.19217" lon="4.36655">
        <ele>263.4</ele>
        <time>2024-08-08T14:07:19Z</time>
      </trkpt>
      <trkpt lat="50.19213" lon="4.36669">
        <ele>263.4</ele>
        <time>2024-08-08T14:07:21Z</time>
      </trkpt>
      <trkpt lat="50.19201" lon="4.36726">
        <ele>263.6</ele>
        <time>2024-08-08T14:07:29Z</time>
      </trkpt>
      <trkpt lat="50.19194" lon="4.36767">
        <ele>263.8</ele>
        <time>2024-08-08T14:07:35Z</time>
      </trkpt>
      <trkpt lat="50.19183" lon="4.36823">
        <ele>264</ele>
        <time>2024-08-08T14:07:43Z</time>
      </trkpt>
      <trkpt lat="50.19173" lon="4.36875">
        <ele>264.2</ele>
        <time>2024-08-08T14:07:50Z</time>
      </trkpt>
      <trkpt lat="50.19164" lon="4.36918">
        <ele>264.2</ele>
        <time>2024-08-08T14:07:55Z</time>
      </trkpt>
      <trkpt lat="50.19153" lon="4.36971">
        <ele>264.4</ele>
        <time>2024-08-08T14:08:02Z</time>
      </trkpt>
      <trkpt lat="50.19142" lon="4.37024">
        <ele>264.4</ele>
        <time>2024-08-08T14:08:09Z</time>
      </trkpt>
      <trkpt lat="50.19131" lon="4.37079">
        <ele>264.4</ele>
        <time>2024-08-08T14:08:16Z</time>
      </trkpt>
      <trkpt lat="50.19122" lon="4.37127">
        <ele>264</ele>
        <time>2024-08-08T14:08:22Z</time>
      </trkpt>
      <trkpt lat="50.19112" lon="4.37177">
        <ele>263.4</ele>
        <time>2024-08-08T14:08:28Z</time>
      </trkpt>
      <trkpt lat="50.19101" lon="4.37229">
        <ele>263</ele>
        <time>2024-08-08T14:08:35Z</time>
      </trkpt>
      <trkpt lat="50.19089" lon="4.37285">
        <ele>262.6</ele>
        <time>2024-08-08T14:08:43Z</time>
      </trkpt>
      <trkpt lat="50.19078" lon="4.37334">
        <ele>262</ele>
        <time>2024-08-08T14:08:51Z</time>
      </trkpt>
      <trkpt lat="50.19071" lon="4.3737">
        <ele>261.8</ele>
        <time>2024-08-08T14:08:57Z</time>
      </trkpt>
      <trkpt lat="50.19069" lon="4.37382">
        <ele>261.8</ele>
        <time>2024-08-08T14:08:59Z</time>
      </trkpt>
      <trkpt lat="50.1907" lon="4.37397">
        <ele>261.6</ele>
        <time>2024-08-08T14:09:01Z</time>
      </trkpt>
      <trkpt lat="50.1908" lon="4.37449">
        <ele>261.2</ele>
        <time>2024-08-08T14:09:08Z</time>
      </trkpt>
      <trkpt lat="50.19084" lon="4.37468">
        <ele>260.8</ele>
        <time>2024-08-08T14:09:11Z</time>
      </trkpt>
      <trkpt lat="50.19087" lon="4.37487">
        <ele>260.8</ele>
        <time>2024-08-08T14:09:14Z</time>
      </trkpt>
      <trkpt lat="50.19088" lon="4.37494">
        <ele>260.8</ele>
        <time>2024-08-08T14:09:15Z</time>
      </trkpt>
      <trkpt lat="50.19094" lon="4.37525">
        <ele>260.6</ele>
        <time>2024-08-08T14:09:20Z</time>
      </trkpt>
      <trkpt lat="50.19101" lon="4.37564">
        <ele>260.2</ele>
        <time>2024-08-08T14:09:27Z</time>
      </trkpt>
      <trkpt lat="50.19109" lon="4.3761">
        <ele>259.6</ele>
        <time>2024-08-08T14:09:35Z</time>
      </trkpt>
      <trkpt lat="50.19108" lon="4.37629">
        <ele>259.2</ele>
        <time>2024-08-08T14:09:40Z</time>
      </trkpt>
      <trkpt lat="50.191" lon="4.37648">
        <ele>259</ele>
        <time>2024-08-08T14:09:45Z</time>
      </trkpt>
      <trkpt lat="50.19084" lon="4.37662">
        <ele>258.8</ele>
        <time>2024-08-08T14:09:50Z</time>
      </trkpt>
      <trkpt lat="50.19065" lon="4.37679">
        <ele>258.6</ele>
        <time>2024-08-08T14:09:57Z</time>
      </trkpt>
      <trkpt lat="50.19059" lon="4.37688">
        <ele>258.2</ele>
        <time>2024-08-08T14:10:01Z</time>
      </trkpt>
      <trkpt lat="50.19059" lon="4.37696">
        <ele>258</ele>
        <time>2024-08-08T14:10:03Z</time>
      </trkpt>
      <trkpt lat="50.1906" lon="4.377">
        <ele>258</ele>
        <time>2024-08-08T14:10:04Z</time>
      </trkpt>
      <trkpt lat="50.19071" lon="4.37711">
        <ele>257.6</ele>
        <time>2024-08-08T14:10:09Z</time>
      </trkpt>
      <trkpt lat="50.19082" lon="4.37728">
        <ele>257.4</ele>
        <time>2024-08-08T14:10:15Z</time>
      </trkpt>
      <trkpt lat="50.19086" lon="4.37756">
        <ele>257.2</ele>
        <time>2024-08-08T14:10:20Z</time>
      </trkpt>
      <trkpt lat="50.19095" lon="4.37799">
        <ele>256.8</ele>
        <time>2024-08-08T14:10:28Z</time>
      </trkpt>
      <trkpt lat="50.19101" lon="4.37829">
        <ele>256</ele>
        <time>2024-08-08T14:10:34Z</time>
      </trkpt>
      <trkpt lat="50.19113" lon="4.37876">
        <ele>255.6</ele>
        <time>2024-08-08T14:10:44Z</time>
      </trkpt>
      <trkpt lat="50.19123" lon="4.37921">
        <ele>255.4</ele>
        <time>2024-08-08T14:10:52Z</time>
      </trkpt>
      <trkpt lat="50.19126" lon="4.37949">
        <ele>255.4</ele>
        <time>2024-08-08T14:10:58Z</time>
      </trkpt>
      <trkpt lat="50.19126" lon="4.37981">
        <ele>255.4</ele>
        <time>2024-08-08T14:11:04Z</time>
      </trkpt>
      <trkpt lat="50.19131" lon="4.38005">
        <ele>255.4</ele>
        <time>2024-08-08T14:11:09Z</time>
      </trkpt>
      <trkpt lat="50.1913" lon="4.38041">
        <ele>255.2</ele>
        <time>2024-08-08T14:11:16Z</time>
      </trkpt>
      <trkpt lat="50.19132" lon="4.3807">
        <ele>255.2</ele>
        <time>2024-08-08T14:11:22Z</time>
      </trkpt>
      <trkpt lat="50.19136" lon="4.38075">
        <ele>255.2</ele>
        <time>2024-08-08T14:11:24Z</time>
      </trkpt>
      <trkpt lat="50.19139" lon="4.38074">
        <ele>255.2</ele>
        <time>2024-08-08T14:11:25Z</time>
      </trkpt>
      <trkpt lat="50.19152" lon="4.38064">
        <ele>255.4</ele>
        <time>2024-08-08T14:11:30Z</time>
      </trkpt>
      <trkpt lat="50.19154" lon="4.38064">
        <ele>255.4</ele>
        <time>2024-08-08T14:11:31Z</time>
      </trkpt>
      <trkpt lat="50.19159" lon="4.38069">
        <ele>255.4</ele>
        <time>2024-08-08T14:11:33Z</time>
      </trkpt>
      <trkpt lat="50.19176" lon="4.38092">
        <ele>255.4</ele>
        <time>2024-08-08T14:11:40Z</time>
      </trkpt>
      <trkpt lat="50.19191" lon="4.38116">
        <ele>255.2</ele>
        <time>2024-08-08T14:11:47Z</time>
      </trkpt>
      <trkpt lat="50.19203" lon="4.38131">
        <ele>255.4</ele>
        <time>2024-08-08T14:11:52Z</time>
      </trkpt>
      <trkpt lat="50.19218" lon="4.38137">
        <ele>255.4</ele>
        <time>2024-08-08T14:11:57Z</time>
      </trkpt>
      <trkpt lat="50.1924" lon="4.38137">
        <ele>255.6</ele>
        <time>2024-08-08T14:12:04Z</time>
      </trkpt>
      <trkpt lat="50.19256" lon="4.38137">
        <ele>255.8</ele>
        <time>2024-08-08T14:12:11Z</time>
      </trkpt>
      <trkpt lat="50.19266" lon="4.38145">
        <ele>255.8</ele>
        <time>2024-08-08T14:12:15Z</time>
      </trkpt>
      <trkpt lat="50.19273" lon="4.38165">
        <ele>255.6</ele>
        <time>2024-08-08T14:12:19Z</time>
      </trkpt>
      <trkpt lat="50.19283" lon="4.382">
        <ele>255.4</ele>
        <time>2024-08-08T14:12:25Z</time>
      </trkpt>
      <trkpt lat="50.19284" lon="4.38206">
        <ele>255.4</ele>
        <time>2024-08-08T14:12:26Z</time>
      </trkpt>
      <trkpt lat="50.19281" lon="4.38228">
        <ele>255.4</ele>
        <time>2024-08-08T14:12:30Z</time>
      </trkpt>
      <trkpt lat="50.19278" lon="4.38233">
        <ele>255.2</ele>
        <time>2024-08-08T14:12:31Z</time>
      </trkpt>
      <trkpt lat="50.19267" lon="4.38242">
        <ele>255</ele>
        <time>2024-08-08T14:12:34Z</time>
      </trkpt>
      <trkpt lat="50.19249" lon="4.38257">
        <ele>254.8</ele>
        <time>2024-08-08T14:12:39Z</time>
      </trkpt>
      <trkpt lat="50.1923" lon="4.38274">
        <ele>254.6</ele>
        <time>2024-08-08T14:12:44Z</time>
      </trkpt>
      <trkpt lat="50.19222" lon="4.38283">
        <ele>254.6</ele>
        <time>2024-08-08T14:12:46Z</time>
      </trkpt>
      <trkpt lat="50.192" lon="4.38303">
        <ele>254.4</ele>
        <time>2024-08-08T14:12:52Z</time>
      </trkpt>
      <trkpt lat="50.19174" lon="4.38328">
        <ele>254.4</ele>
        <time>2024-08-08T14:12:59Z</time>
      </trkpt>
      <trkpt lat="50.19149" lon="4.3835">
        <ele>254.4</ele>
        <time>2024-08-08T14:13:05Z</time>
      </trkpt>
      <trkpt lat="50.19109" lon="4.38385">
        <ele>254.4</ele>
        <time>2024-08-08T14:13:14Z</time>
      </trkpt>
      <trkpt lat="50.19068" lon="4.38422">
        <ele>254.4</ele>
        <time>2024-08-08T14:13:23Z</time>
      </trkpt>
      <trkpt lat="50.19036" lon="4.3845">
        <ele>254.6</ele>
        <time>2024-08-08T14:13:30Z</time>
      </trkpt>
      <trkpt lat="50.19004" lon="4.38478">
        <ele>254.6</ele>
        <time>2024-08-08T14:13:37Z</time>
      </trkpt>
      <trkpt lat="50.18967" lon="4.38511">
        <ele>254.6</ele>
        <time>2024-08-08T14:13:45Z</time>
      </trkpt>
      <trkpt lat="50.18934" lon="4.3854">
        <ele>254.8</ele>
        <time>2024-08-08T14:13:52Z</time>
      </trkpt>
      <trkpt lat="50.189" lon="4.38569">
        <ele>254.8</ele>
        <time>2024-08-08T14:13:59Z</time>
      </trkpt>
      <trkpt lat="50.18877" lon="4.38589">
        <ele>254.8</ele>
        <time>2024-08-08T14:14:04Z</time>
      </trkpt>
      <trkpt lat="50.18871" lon="4.38593">
        <ele>254.6</ele>
        <time>2024-08-08T14:14:05Z</time>
      </trkpt>
      <trkpt lat="50.18862" lon="4.386">
        <ele>254.6</ele>
        <time>2024-08-08T14:14:07Z</time>
      </trkpt>
      <trkpt lat="50.18848" lon="4.38612">
        <ele>254.4</ele>
        <time>2024-08-08T14:14:10Z</time>
      </trkpt>
      <trkpt lat="50.18799" lon="4.38652">
        <ele>253.8</ele>
        <time>2024-08-08T14:14:19Z</time>
      </trkpt>
      <trkpt lat="50.18769" lon="4.38682">
        <ele>253.8</ele>
        <time>2024-08-08T14:14:25Z</time>
      </trkpt>
      <trkpt lat="50.18732" lon="4.38716">
        <ele>253.8</ele>
        <time>2024-08-08T14:14:32Z</time>
      </trkpt>
      <trkpt lat="50.18695" lon="4.38748">
        <ele>253.8</ele>
        <time>2024-08-08T14:14:39Z</time>
      </trkpt>
      <trkpt lat="50.18659" lon="4.3878">
        <ele>253.6</ele>
        <time>2024-08-08T14:14:46Z</time>
      </trkpt>
      <trkpt lat="50.18618" lon="4.38819">
        <ele>253.8</ele>
        <time>2024-08-08T14:14:54Z</time>
      </trkpt>
      <trkpt lat="50.18601" lon="4.38847">
        <ele>253.6</ele>
        <time>2024-08-08T14:14:58Z</time>
      </trkpt>
      <trkpt lat="50.18597" lon="4.38855">
        <ele>253.8</ele>
        <time>2024-08-08T14:14:59Z</time>
      </trkpt>
      <trkpt lat="50.18586" lon="4.38896">
        <ele>253.6</ele>
        <time>2024-08-08T14:15:04Z</time>
      </trkpt>
      <trkpt lat="50.18581" lon="4.38922">
        <ele>254</ele>
        <time>2024-08-08T14:15:07Z</time>
      </trkpt>
      <trkpt lat="50.18575" lon="4.38945">
        <ele>253.8</ele>
        <time>2024-08-08T14:15:10Z</time>
      </trkpt>
      <trkpt lat="50.18571" lon="4.3896">
        <ele>254</ele>
        <time>2024-08-08T14:15:12Z</time>
      </trkpt>
      <trkpt lat="50.18562" lon="4.38978">
        <ele>254.2</ele>
        <time>2024-08-08T14:15:15Z</time>
      </trkpt>
      <trkpt lat="50.18537" lon="4.39008">
        <ele>254.6</ele>
        <time>2024-08-08T14:15:21Z</time>
      </trkpt>
      <trkpt lat="50.18532" lon="4.39011">
        <ele>254.6</ele>
        <time>2024-08-08T14:15:22Z</time>
      </trkpt>
      <trkpt lat="50.18516" lon="4.39019">
        <ele>254.8</ele>
        <time>2024-08-08T14:15:25Z</time>
      </trkpt>
      <trkpt lat="50.1851" lon="4.39021">
        <ele>254.8</ele>
        <time>2024-08-08T14:15:26Z</time>
      </trkpt>
      <trkpt lat="50.18504" lon="4.39022">
        <ele>254.8</ele>
        <time>2024-08-08T14:15:27Z</time>
      </trkpt>
      <trkpt lat="50.18492" lon="4.39022">
        <ele>254.8</ele>
        <time>2024-08-08T14:15:29Z</time>
      </trkpt>
      <trkpt lat="50.18486" lon="4.39022">
        <ele>254.8</ele>
        <time>2024-08-08T14:15:30Z</time>
      </trkpt>
      <trkpt lat="50.1848" lon="4.39021">
        <ele>254.8</ele>
        <time>2024-08-08T14:15:31Z</time>
      </trkpt>
      <trkpt lat="50.18455" lon="4.39012">
        <ele>255</ele>
        <time>2024-08-08T14:15:35Z</time>
      </trkpt>
      <trkpt lat="50.184" lon="4.38991">
        <ele>255.6</ele>
        <time>2024-08-08T14:15:44Z</time>
      </trkpt>
      <trkpt lat="50.18394" lon="4.3899">
        <ele>255.8</ele>
        <time>2024-08-08T14:15:45Z</time>
      </trkpt>
      <trkpt lat="50.18356" lon="4.38993">
        <ele>256.2</ele>
        <time>2024-08-08T14:15:51Z</time>
      </trkpt>
      <trkpt lat="50.18318" lon="4.39014">
        <ele>256.6</ele>
        <time>2024-08-08T14:15:57Z</time>
      </trkpt>
      <trkpt lat="50.18279" lon="4.39035">
        <ele>256.8</ele>
        <time>2024-08-08T14:16:03Z</time>
      </trkpt>
      <trkpt lat="50.1824" lon="4.39057">
        <ele>257.4</ele>
        <time>2024-08-08T14:16:10Z</time>
      </trkpt>
      <trkpt lat="50.1821" lon="4.39074">
        <ele>258</ele>
        <time>2024-08-08T14:16:16Z</time>
      </trkpt>
      <trkpt lat="50.18168" lon="4.39098">
        <ele>258.4</ele>
        <time>2024-08-08T14:16:23Z</time>
      </trkpt>
      <trkpt lat="50.18145" lon="4.39111">
        <ele>258.6</ele>
        <time>2024-08-08T14:16:27Z</time>
      </trkpt>
      <trkpt lat="50.1814" lon="4.39114">
        <ele>258.6</ele>
        <time>2024-08-08T14:16:28Z</time>
      </trkpt>
      <trkpt lat="50.18113" lon="4.39132">
        <ele>258.6</ele>
        <time>2024-08-08T14:16:34Z</time>
      </trkpt>
      <trkpt lat="50.18109" lon="4.39136">
        <ele>258.6</ele>
        <time>2024-08-08T14:16:35Z</time>
      </trkpt>
      <trkpt lat="50.18101" lon="4.39142">
        <ele>258.4</ele>
        <time>2024-08-08T14:16:37Z</time>
      </trkpt>
      <trkpt lat="50.18094" lon="4.3915">
        <ele>258.4</ele>
        <time>2024-08-08T14:16:39Z</time>
      </trkpt>
      <trkpt lat="50.18079" lon="4.39172">
        <ele>257.6</ele>
        <time>2024-08-08T14:16:44Z</time>
      </trkpt>
      <trkpt lat="50.18067" lon="4.39203">
        <ele>256.6</ele>
        <time>2024-08-08T14:16:49Z</time>
      </trkpt>
      <trkpt lat="50.18064" lon="4.39209">
        <ele>256.6</ele>
        <time>2024-08-08T14:16:50Z</time>
      </trkpt>
      <trkpt lat="50.18059" lon="4.39223">
        <ele>256.2</ele>
        <time>2024-08-08T14:16:52Z</time>
      </trkpt>
      <trkpt lat="50.18054" lon="4.39237">
        <ele>256</ele>
        <time>2024-08-08T14:16:54Z</time>
      </trkpt>
      <trkpt lat="50.18047" lon="4.39266">
        <ele>256</ele>
        <time>2024-08-08T14:16:59Z</time>
      </trkpt>
      <trkpt lat="50.18043" lon="4.3929">
        <ele>255.8</ele>
        <time>2024-08-08T14:17:05Z</time>
      </trkpt>
      <trkpt lat="50.18037" lon="4.39302">
        <ele>255.8</ele>
        <time>2024-08-08T14:17:09Z</time>
      </trkpt>
      <trkpt lat="50.18032" lon="4.39306">
        <ele>255.6</ele>
        <time>2024-08-08T14:17:12Z</time>
      </trkpt>
      <trkpt lat="50.1803" lon="4.3931">
        <ele>255.6</ele>
        <time>2024-08-08T14:17:14Z</time>
      </trkpt>
      <trkpt lat="50.18028" lon="4.39314">
        <ele>255.6</ele>
        <time>2024-08-08T14:17:16Z</time>
      </trkpt>
      <trkpt lat="50.18025" lon="4.39319">
        <ele>255.6</ele>
        <time>2024-08-08T14:17:18Z</time>
      </trkpt>
      <trkpt lat="50.18017" lon="4.39337">
        <ele>255.2</ele>
        <time>2024-08-08T14:17:24Z</time>
      </trkpt>
      <trkpt lat="50.18015" lon="4.39341">
        <ele>255.2</ele>
        <time>2024-08-08T14:17:26Z</time>
      </trkpt>
      <trkpt lat="50.1801" lon="4.39347">
        <ele>255.4</ele>
        <time>2024-08-08T14:17:29Z</time>
      </trkpt>
      <trkpt lat="50.1801" lon="4.39347">
        <ele>255.2</ele>
        <time>2024-08-08T14:17:38Z</time>
      </trkpt>
      <trkpt lat="50.1801" lon="4.39347">
        <ele>255.2</ele>
        <time>2024-08-08T14:17:49Z</time>
      </trkpt>
      <trkpt lat="50.18009" lon="4.39348">
        <ele>255</ele>
        <time>2024-08-08T14:18:09Z</time>
      </trkpt>
      <trkpt lat="50.18008" lon="4.39349">
        <ele>254.8</ele>
        <time>2024-08-08T14:18:22Z</time>
      </trkpt>
      <trkpt lat="50.18007" lon="4.39353">
        <ele>255.2</ele>
        <time>2024-08-08T14:18:27Z</time>
      </trkpt>
      <trkpt lat="50.18007" lon="4.39353">
        <ele>255.4</ele>
        <time>2024-08-08T14:18:43Z</time>
      </trkpt>
      <trkpt lat="50.18007" lon="4.39353">
        <ele>255.6</ele>
        <time>2024-08-08T14:19:05Z</time>
      </trkpt>
      <trkpt lat="50.18007" lon="4.39353">
        <ele>255.8</ele>
        <time>2024-08-08T14:19:26Z</time>
      </trkpt>
      <trkpt lat="50.18007" lon="4.39353">
        <ele>255.8</ele>
        <time>2024-08-08T14:19:40Z</time>
      </trkpt>
      <trkpt lat="50.18006" lon="4.39355">
        <ele>256.2</ele>
        <time>2024-08-08T14:20:00Z</time>
      </trkpt>
      <trkpt lat="50.18006" lon="4.39355">
        <ele>256.4</ele>
        <time>2024-08-08T14:20:09Z</time>
      </trkpt>
      <trkpt lat="50.18006" lon="4.39356">
        <ele>256.6</ele>
        <time>2024-08-08T14:20:27Z</time>
      </trkpt>
      <trkpt lat="50.18006" lon="4.39356">
        <ele>256.6</ele>
        <time>2024-08-08T14:20:38Z</time>
      </trkpt>
      <trkpt lat="50.18006" lon="4.39356">
        <ele>256.8</ele>
        <time>2024-08-08T14:20:54Z</time>
      </trkpt>
      <trkpt lat="50.18002" lon="4.39365">
        <ele>257</ele>
        <time>2024-08-08T14:20:59Z</time>
      </trkpt>
      <trkpt lat="50.17993" lon="4.39379">
        <ele>257.2</ele>
        <time>2024-08-08T14:21:03Z</time>
      </trkpt>
      <trkpt lat="50.17982" lon="4.39399">
        <ele>257.6</ele>
        <time>2024-08-08T14:21:08Z</time>
      </trkpt>
      <trkpt lat="50.17973" lon="4.39418">
        <ele>257.8</ele>
        <time>2024-08-08T14:21:12Z</time>
      </trkpt>
      <trkpt lat="50.17959" lon="4.3944">
        <ele>257.8</ele>
        <time>2024-08-08T14:21:16Z</time>
      </trkpt>
      <trkpt lat="50.17956" lon="4.39446">
        <ele>257.8</ele>
        <time>2024-08-08T14:21:17Z</time>
      </trkpt>
      <trkpt lat="50.17944" lon="4.39468">
        <ele>257.8</ele>
        <time>2024-08-08T14:21:20Z</time>
      </trkpt>
      <trkpt lat="50.17931" lon="4.39493">
        <ele>257.8</ele>
        <time>2024-08-08T14:21:24Z</time>
      </trkpt>
      <trkpt lat="50.17928" lon="4.39499">
        <ele>257.8</ele>
        <time>2024-08-08T14:21:25Z</time>
      </trkpt>
      <trkpt lat="50.17921" lon="4.3951">
        <ele>258.2</ele>
        <time>2024-08-08T14:21:27Z</time>
      </trkpt>
      <trkpt lat="50.17914" lon="4.39521">
        <ele>257.2</ele>
        <time>2024-08-08T14:21:29Z</time>
      </trkpt>
      <trkpt lat="50.17911" lon="4.39527">
        <ele>257.4</ele>
        <time>2024-08-08T14:21:30Z</time>
      </trkpt>
      <trkpt lat="50.179" lon="4.39547">
        <ele>256.8</ele>
        <time>2024-08-08T14:21:33Z</time>
      </trkpt>
      <trkpt lat="50.17889" lon="4.39569">
        <ele>256</ele>
        <time>2024-08-08T14:21:37Z</time>
      </trkpt>
      <trkpt lat="50.17887" lon="4.39575">
        <ele>255.8</ele>
        <time>2024-08-08T14:21:38Z</time>
      </trkpt>
      <trkpt lat="50.17882" lon="4.39585">
        <ele>255.2</ele>
        <time>2024-08-08T14:21:40Z</time>
      </trkpt>
      <trkpt lat="50.17875" lon="4.39598">
        <ele>254.4</ele>
        <time>2024-08-08T14:21:43Z</time>
      </trkpt>
      <trkpt lat="50.17873" lon="4.39601">
        <ele>254</ele>
        <time>2024-08-08T14:21:44Z</time>
      </trkpt>
      <trkpt lat="50.17865" lon="4.39612">
        <ele>253.2</ele>
        <time>2024-08-08T14:21:48Z</time>
      </trkpt>
      <trkpt lat="50.17857" lon="4.39628">
        <ele>252</ele>
        <time>2024-08-08T14:21:52Z</time>
      </trkpt>
      <trkpt lat="50.1785" lon="4.39643">
        <ele>250.8</ele>
        <time>2024-08-08T14:21:56Z</time>
      </trkpt>
      <trkpt lat="50.17843" lon="4.39662">
        <ele>249.4</ele>
        <time>2024-08-08T14:22:01Z</time>
      </trkpt>
      <trkpt lat="50.1784" lon="4.39679">
        <ele>248.2</ele>
        <time>2024-08-08T14:22:06Z</time>
      </trkpt>
      <trkpt lat="50.1784" lon="4.39689">
        <ele>247.4</ele>
        <time>2024-08-08T14:22:09Z</time>
      </trkpt>
      <trkpt lat="50.17842" lon="4.39697">
        <ele>246.6</ele>
        <time>2024-08-08T14:22:11Z</time>
      </trkpt>
      <trkpt lat="50.17848" lon="4.39715">
        <ele>244.8</ele>
        <time>2024-08-08T14:22:16Z</time>
      </trkpt>
      <trkpt lat="50.17849" lon="4.39722">
        <ele>244.2</ele>
        <time>2024-08-08T14:22:18Z</time>
      </trkpt>
      <trkpt lat="50.17851" lon="4.39736">
        <ele>243</ele>
        <time>2024-08-08T14:22:21Z</time>
      </trkpt>
      <trkpt lat="50.17851" lon="4.3974">
        <ele>242.6</ele>
        <time>2024-08-08T14:22:22Z</time>
      </trkpt>
      <trkpt lat="50.17847" lon="4.3975">
        <ele>241.2</ele>
        <time>2024-08-08T14:22:25Z</time>
      </trkpt>
      <trkpt lat="50.17839" lon="4.3976">
        <ele>239.4</ele>
        <time>2024-08-08T14:22:29Z</time>
      </trkpt>
      <trkpt lat="50.1783" lon="4.39764">
        <ele>237.6</ele>
        <time>2024-08-08T14:22:33Z</time>
      </trkpt>
      <trkpt lat="50.17821" lon="4.39766">
        <ele>235.2</ele>
        <time>2024-08-08T14:22:38Z</time>
      </trkpt>
      <trkpt lat="50.17818" lon="4.39767">
        <ele>234.8</ele>
        <time>2024-08-08T14:22:39Z</time>
      </trkpt>
      <trkpt lat="50.17808" lon="4.39774">
        <ele>233.6</ele>
        <time>2024-08-08T14:22:42Z</time>
      </trkpt>
      <trkpt lat="50.17786" lon="4.39777">
        <ele>231.2</ele>
        <time>2024-08-08T14:22:48Z</time>
      </trkpt>
      <trkpt lat="50.17781" lon="4.39775">
        <ele>230.8</ele>
        <time>2024-08-08T14:22:50Z</time>
      </trkpt>
      <trkpt lat="50.17779" lon="4.39771">
        <ele>230.6</ele>
        <time>2024-08-08T14:22:51Z</time>
      </trkpt>
      <trkpt lat="50.17778" lon="4.39766">
        <ele>230.4</ele>
        <time>2024-08-08T14:22:52Z</time>
      </trkpt>
      <trkpt lat="50.1778" lon="4.39758">
        <ele>230.4</ele>
        <time>2024-08-08T14:22:54Z</time>
      </trkpt>
      <trkpt lat="50.17779" lon="4.39748">
        <ele>230.4</ele>
        <time>2024-08-08T14:22:56Z</time>
      </trkpt>
      <trkpt lat="50.17776" lon="4.39739">
        <ele>230.2</ele>
        <time>2024-08-08T14:22:58Z</time>
      </trkpt>
      <trkpt lat="50.1777" lon="4.39713">
        <ele>230.6</ele>
        <time>2024-08-08T14:23:03Z</time>
      </trkpt>
      <trkpt lat="50.17766" lon="4.3969">
        <ele>228</ele>
        <time>2024-08-08T14:23:08Z</time>
      </trkpt>
      <trkpt lat="50.17761" lon="4.39671">
        <ele>232</ele>
        <time>2024-08-08T14:23:12Z</time>
      </trkpt>
      <trkpt lat="50.17761" lon="4.39667">
        <ele>232.6</ele>
        <time>2024-08-08T14:23:13Z</time>
      </trkpt>
      <trkpt lat="50.1776" lon="4.39662">
        <ele>233.4</ele>
        <time>2024-08-08T14:23:14Z</time>
      </trkpt>
      <trkpt lat="50.17756" lon="4.3965">
        <ele>231.8</ele>
        <time>2024-08-08T14:23:16Z</time>
      </trkpt>
      <trkpt lat="50.17753" lon="4.39628">
        <ele>232</ele>
        <time>2024-08-08T14:23:20Z</time>
      </trkpt>
      <trkpt lat="50.1775" lon="4.39605">
        <ele>232.6</ele>
        <time>2024-08-08T14:23:24Z</time>
      </trkpt>
      <trkpt lat="50.17747" lon="4.39596">
        <ele>232.8</ele>
        <time>2024-08-08T14:23:26Z</time>
      </trkpt>
      <trkpt lat="50.17745" lon="4.39585">
        <ele>233.2</ele>
        <time>2024-08-08T14:23:28Z</time>
      </trkpt>
      <trkpt lat="50.17744" lon="4.39575">
        <ele>233.4</ele>
        <time>2024-08-08T14:23:30Z</time>
      </trkpt>
      <trkpt lat="50.17741" lon="4.39564">
        <ele>233.8</ele>
        <time>2024-08-08T14:23:32Z</time>
      </trkpt>
      <trkpt lat="50.17737" lon="4.39539">
        <ele>234.4</ele>
        <time>2024-08-08T14:23:37Z</time>
      </trkpt>
      <trkpt lat="50.17728" lon="4.3951">
        <ele>235.2</ele>
        <time>2024-08-08T14:23:42Z</time>
      </trkpt>
      <trkpt lat="50.17722" lon="4.39482">
        <ele>236.2</ele>
        <time>2024-08-08T14:23:47Z</time>
      </trkpt>
      <trkpt lat="50.17717" lon="4.3946">
        <ele>236.6</ele>
        <time>2024-08-08T14:23:51Z</time>
      </trkpt>
      <trkpt lat="50.17713" lon="4.39437">
        <ele>237.2</ele>
        <time>2024-08-08T14:23:55Z</time>
      </trkpt>
      <trkpt lat="50.17708" lon="4.39413">
        <ele>237.8</ele>
        <time>2024-08-08T14:23:59Z</time>
      </trkpt>
      <trkpt lat="50.17704" lon="4.39387">
        <ele>238.4</ele>
        <time>2024-08-08T14:24:03Z</time>
      </trkpt>
      <trkpt lat="50.17702" lon="4.39376">
        <ele>238.6</ele>
        <time>2024-08-08T14:24:05Z</time>
      </trkpt>
      <trkpt lat="50.17697" lon="4.39345">
        <ele>239.4</ele>
        <time>2024-08-08T14:24:10Z</time>
      </trkpt>
      <trkpt lat="50.17695" lon="4.3934">
        <ele>239.8</ele>
        <time>2024-08-08T14:24:11Z</time>
      </trkpt>
      <trkpt lat="50.17691" lon="4.39328">
        <ele>240</ele>
        <time>2024-08-08T14:24:13Z</time>
      </trkpt>
      <trkpt lat="50.17685" lon="4.39293">
        <ele>241</ele>
        <time>2024-08-08T14:24:19Z</time>
      </trkpt>
      <trkpt lat="50.17682" lon="4.39278">
        <ele>241.6</ele>
        <time>2024-08-08T14:24:22Z</time>
      </trkpt>
      <trkpt lat="50.17676" lon="4.39248">
        <ele>242.4</ele>
        <time>2024-08-08T14:24:27Z</time>
      </trkpt>
      <trkpt lat="50.17671" lon="4.39219">
        <ele>243.2</ele>
        <time>2024-08-08T14:24:32Z</time>
      </trkpt>
      <trkpt lat="50.17664" lon="4.39174">
        <ele>244.8</ele>
        <time>2024-08-08T14:24:39Z</time>
      </trkpt>
      <trkpt lat="50.17658" lon="4.39153">
        <ele>245.8</ele>
        <time>2024-08-08T14:24:43Z</time>
      </trkpt>
      <trkpt lat="50.17653" lon="4.39137">
        <ele>246.6</ele>
        <time>2024-08-08T14:24:46Z</time>
      </trkpt>
      <trkpt lat="50.17648" lon="4.39102">
        <ele>247.8</ele>
        <time>2024-08-08T14:24:52Z</time>
      </trkpt>
      <trkpt lat="50.17642" lon="4.39075">
        <ele>249</ele>
        <time>2024-08-08T14:24:57Z</time>
      </trkpt>
      <trkpt lat="50.17635" lon="4.39054">
        <ele>249.8</ele>
        <time>2024-08-08T14:25:01Z</time>
      </trkpt>
      <trkpt lat="50.17633" lon="4.39047">
        <ele>250</ele>
        <time>2024-08-08T14:25:02Z</time>
      </trkpt>
      <trkpt lat="50.17627" lon="4.39018">
        <ele>251</ele>
        <time>2024-08-08T14:25:07Z</time>
      </trkpt>
      <trkpt lat="50.17616" lon="4.38987">
        <ele>252.2</ele>
        <time>2024-08-08T14:25:13Z</time>
      </trkpt>
      <trkpt lat="50.17602" lon="4.3894">
        <ele>254</ele>
        <time>2024-08-08T14:25:22Z</time>
      </trkpt>
      <trkpt lat="50.1759" lon="4.38907">
        <ele>255.2</ele>
        <time>2024-08-08T14:25:29Z</time>
      </trkpt>
      <trkpt lat="50.17578" lon="4.38898">
        <ele>255.8</ele>
        <time>2024-08-08T14:25:33Z</time>
      </trkpt>
      <trkpt lat="50.17556" lon="4.38887">
        <ele>256.6</ele>
        <time>2024-08-08T14:25:39Z</time>
      </trkpt>
      <trkpt lat="50.1753" lon="4.38873">
        <ele>257.4</ele>
        <time>2024-08-08T14:25:45Z</time>
      </trkpt>
      <trkpt lat="50.17498" lon="4.38855">
        <ele>258.2</ele>
        <time>2024-08-08T14:25:52Z</time>
      </trkpt>
      <trkpt lat="50.17465" lon="4.38833">
        <ele>259</ele>
        <time>2024-08-08T14:25:59Z</time>
      </trkpt>
      <trkpt lat="50.17453" lon="4.38822">
        <ele>259.2</ele>
        <time>2024-08-08T14:26:02Z</time>
      </trkpt>
      <trkpt lat="50.17446" lon="4.38814">
        <ele>259.4</ele>
        <time>2024-08-08T14:26:04Z</time>
      </trkpt>
      <trkpt lat="50.17431" lon="4.38799">
        <ele>259.8</ele>
        <time>2024-08-08T14:26:08Z</time>
      </trkpt>
      <trkpt lat="50.17425" lon="4.38791">
        <ele>260</ele>
        <time>2024-08-08T14:26:10Z</time>
      </trkpt>
      <trkpt lat="50.17422" lon="4.38787">
        <ele>260.2</ele>
        <time>2024-08-08T14:26:11Z</time>
      </trkpt>
      <trkpt lat="50.17413" lon="4.38771">
        <ele>260.4</ele>
        <time>2024-08-08T14:26:14Z</time>
      </trkpt>
      <trkpt lat="50.1741" lon="4.38765">
        <ele>260.4</ele>
        <time>2024-08-08T14:26:15Z</time>
      </trkpt>
      <trkpt lat="50.17398" lon="4.38725">
        <ele>261</ele>
        <time>2024-08-08T14:26:21Z</time>
      </trkpt>
      <trkpt lat="50.17393" lon="4.38714">
        <ele>261</ele>
        <time>2024-08-08T14:26:23Z</time>
      </trkpt>
      <trkpt lat="50.17383" lon="4.38694">
        <ele>261.4</ele>
        <time>2024-08-08T14:26:27Z</time>
      </trkpt>
      <trkpt lat="50.17366" lon="4.38663">
        <ele>262.2</ele>
        <time>2024-08-08T14:26:33Z</time>
      </trkpt>
      <trkpt lat="50.17347" lon="4.38632">
        <ele>263</ele>
        <time>2024-08-08T14:26:39Z</time>
      </trkpt>
      <trkpt lat="50.17317" lon="4.38583">
        <ele>264</ele>
        <time>2024-08-08T14:26:48Z</time>
      </trkpt>
      <trkpt lat="50.17306" lon="4.38566">
        <ele>264.4</ele>
        <time>2024-08-08T14:26:51Z</time>
      </trkpt>
      <trkpt lat="50.173" lon="4.38555">
        <ele>264.6</ele>
        <time>2024-08-08T14:26:53Z</time>
      </trkpt>
      <trkpt lat="50.17281" lon="4.3852">
        <ele>265.4</ele>
        <time>2024-08-08T14:26:59Z</time>
      </trkpt>
      <trkpt lat="50.17264" lon="4.38486">
        <ele>266</ele>
        <time>2024-08-08T14:27:05Z</time>
      </trkpt>
      <trkpt lat="50.17246" lon="4.38451">
        <ele>266.6</ele>
        <time>2024-08-08T14:27:11Z</time>
      </trkpt>
      <trkpt lat="50.17222" lon="4.384">
        <ele>267.2</ele>
        <time>2024-08-08T14:27:19Z</time>
      </trkpt>
      <trkpt lat="50.17206" lon="4.38355">
        <ele>267.6</ele>
        <time>2024-08-08T14:27:25Z</time>
      </trkpt>
      <trkpt lat="50.17186" lon="4.38299">
        <ele>267.6</ele>
        <time>2024-08-08T14:27:32Z</time>
      </trkpt>
      <trkpt lat="50.17168" lon="4.38235">
        <ele>267.6</ele>
        <time>2024-08-08T14:27:39Z</time>
      </trkpt>
      <trkpt lat="50.17165" lon="4.38227">
        <ele>267</ele>
        <time>2024-08-08T14:27:40Z</time>
      </trkpt>
      <trkpt lat="50.17159" lon="4.38218">
        <ele>267</ele>
        <time>2024-08-08T14:27:42Z</time>
      </trkpt>
      <trkpt lat="50.17153" lon="4.38204">
        <ele>266.8</ele>
        <time>2024-08-08T14:27:46Z</time>
      </trkpt>
      <trkpt lat="50.1715" lon="4.38192">
        <ele>266.6</ele>
        <time>2024-08-08T14:27:50Z</time>
      </trkpt>
      <trkpt lat="50.1715" lon="4.38183">
        <ele>266.6</ele>
        <time>2024-08-08T14:27:52Z</time>
      </trkpt>
      <trkpt lat="50.1715" lon="4.38147">
        <ele>266.2</ele>
        <time>2024-08-08T14:27:58Z</time>
      </trkpt>
      <trkpt lat="50.17147" lon="4.38105">
        <ele>265.8</ele>
        <time>2024-08-08T14:28:03Z</time>
      </trkpt>
      <trkpt lat="50.17134" lon="4.38051">
        <ele>265.2</ele>
        <time>2024-08-08T14:28:09Z</time>
      </trkpt>
      <trkpt lat="50.17126" lon="4.3801">
        <ele>264.8</ele>
        <time>2024-08-08T14:28:14Z</time>
      </trkpt>
      <trkpt lat="50.17124" lon="4.38004">
        <ele>264.6</ele>
        <time>2024-08-08T14:28:15Z</time>
      </trkpt>
      <trkpt lat="50.1712" lon="4.38">
        <ele>264.6</ele>
        <time>2024-08-08T14:28:16Z</time>
      </trkpt>
      <trkpt lat="50.1711" lon="4.37999">
        <ele>264.4</ele>
        <time>2024-08-08T14:28:18Z</time>
      </trkpt>
      <trkpt lat="50.17092" lon="4.38004">
        <ele>263.8</ele>
        <time>2024-08-08T14:28:21Z</time>
      </trkpt>
      <trkpt lat="50.17086" lon="4.38004">
        <ele>263.6</ele>
        <time>2024-08-08T14:28:22Z</time>
      </trkpt>
      <trkpt lat="50.17057" lon="4.38006">
        <ele>262.6</ele>
        <time>2024-08-08T14:28:27Z</time>
      </trkpt>
      <trkpt lat="50.17009" lon="4.38013">
        <ele>260.4</ele>
        <time>2024-08-08T14:28:35Z</time>
      </trkpt>
      <trkpt lat="50.16967" lon="4.38016">
        <ele>258.4</ele>
        <time>2024-08-08T14:28:42Z</time>
      </trkpt>
      <trkpt lat="50.16919" lon="4.38024">
        <ele>255.8</ele>
        <time>2024-08-08T14:28:50Z</time>
      </trkpt>
      <trkpt lat="50.16876" lon="4.38029">
        <ele>253.6</ele>
        <time>2024-08-08T14:28:57Z</time>
      </trkpt>
      <trkpt lat="50.16842" lon="4.38025">
        <ele>251.8</ele>
        <time>2024-08-08T14:29:03Z</time>
      </trkpt>
      <trkpt lat="50.16808" lon="4.38007">
        <ele>250.2</ele>
        <time>2024-08-08T14:29:10Z</time>
      </trkpt>
      <trkpt lat="50.16773" lon="4.37989">
        <ele>248.4</ele>
        <time>2024-08-08T14:29:17Z</time>
      </trkpt>
      <trkpt lat="50.16743" lon="4.37974">
        <ele>246.6</ele>
        <time>2024-08-08T14:29:24Z</time>
      </trkpt>
      <trkpt lat="50.16716" lon="4.37961">
        <ele>245</ele>
        <time>2024-08-08T14:29:31Z</time>
      </trkpt>
      <trkpt lat="50.16692" lon="4.37952">
        <ele>243.2</ele>
        <time>2024-08-08T14:29:38Z</time>
      </trkpt>
      <trkpt lat="50.16687" lon="4.3795">
        <ele>242.8</ele>
        <time>2024-08-08T14:29:40Z</time>
      </trkpt>
      <trkpt lat="50.16685" lon="4.37944">
        <ele>242.4</ele>
        <time>2024-08-08T14:29:42Z</time>
      </trkpt>
      <trkpt lat="50.16689" lon="4.37927">
        <ele>241.8</ele>
        <time>2024-08-08T14:29:46Z</time>
      </trkpt>
      <trkpt lat="50.16696" lon="4.37899">
        <ele>241</ele>
        <time>2024-08-08T14:29:51Z</time>
      </trkpt>
      <trkpt lat="50.16704" lon="4.37865">
        <ele>240.2</ele>
        <time>2024-08-08T14:29:56Z</time>
      </trkpt>
      <trkpt lat="50.16706" lon="4.37859">
        <ele>240.2</ele>
        <time>2024-08-08T14:29:57Z</time>
      </trkpt>
      <trkpt lat="50.16708" lon="4.37852">
        <ele>240</ele>
        <time>2024-08-08T14:29:58Z</time>
      </trkpt>
      <trkpt lat="50.16717" lon="4.37819">
        <ele>239.4</ele>
        <time>2024-08-08T14:30:03Z</time>
      </trkpt>
      <trkpt lat="50.16731" lon="4.37774">
        <ele>238.8</ele>
        <time>2024-08-08T14:30:10Z</time>
      </trkpt>
      <trkpt lat="50.16732" lon="4.37767">
        <ele>238.8</ele>
        <time>2024-08-08T14:30:11Z</time>
      </trkpt>
      <trkpt lat="50.16734" lon="4.37747">
        <ele>238.6</ele>
        <time>2024-08-08T14:30:15Z</time>
      </trkpt>
      <trkpt lat="50.16738" lon="4.37725">
        <ele>238.2</ele>
        <time>2024-08-08T14:30:20Z</time>
      </trkpt>
      <trkpt lat="50.16745" lon="4.37692">
        <ele>237.8</ele>
        <time>2024-08-08T14:30:27Z</time>
      </trkpt>
      <trkpt lat="50.16752" lon="4.37654">
        <ele>237.8</ele>
        <time>2024-08-08T14:30:34Z</time>
      </trkpt>
      <trkpt lat="50.16761" lon="4.37601">
        <ele>237.8</ele>
        <time>2024-08-08T14:30:43Z</time>
      </trkpt>
      <trkpt lat="50.16769" lon="4.37557">
        <ele>238.2</ele>
        <time>2024-08-08T14:30:51Z</time>
      </trkpt>
      <trkpt lat="50.16776" lon="4.37513">
        <ele>238.6</ele>
        <time>2024-08-08T14:30:59Z</time>
      </trkpt>
      <trkpt lat="50.16783" lon="4.37473">
        <ele>239.2</ele>
        <time>2024-08-08T14:31:06Z</time>
      </trkpt>
      <trkpt lat="50.16792" lon="4.37424">
        <ele>239.6</ele>
        <time>2024-08-08T14:31:15Z</time>
      </trkpt>
      <trkpt lat="50.168" lon="4.37387">
        <ele>240</ele>
        <time>2024-08-08T14:31:22Z</time>
      </trkpt>
      <trkpt lat="50.16805" lon="4.37357">
        <ele>240.2</ele>
        <time>2024-08-08T14:31:28Z</time>
      </trkpt>
      <trkpt lat="50.16811" lon="4.37323">
        <ele>240.4</ele>
        <time>2024-08-08T14:31:34Z</time>
      </trkpt>
      <trkpt lat="50.16816" lon="4.37295">
        <ele>240.6</ele>
        <time>2024-08-08T14:31:39Z</time>
      </trkpt>
      <trkpt lat="50.1682" lon="4.37273">
        <ele>240.8</ele>
        <time>2024-08-08T14:31:44Z</time>
      </trkpt>
      <trkpt lat="50.16824" lon="4.37254">
        <ele>241</ele>
        <time>2024-08-08T14:31:48Z</time>
      </trkpt>
      <trkpt lat="50.16825" lon="4.37247">
        <ele>241</ele>
        <time>2024-08-08T14:31:49Z</time>
      </trkpt>
      <trkpt lat="50.16832" lon="4.37217">
        <ele>241</ele>
        <time>2024-08-08T14:31:54Z</time>
      </trkpt>
      <trkpt lat="50.16833" lon="4.3721">
        <ele>241.2</ele>
        <time>2024-08-08T14:31:55Z</time>
      </trkpt>
      <trkpt lat="50.16841" lon="4.37167">
        <ele>241.4</ele>
        <time>2024-08-08T14:32:02Z</time>
      </trkpt>
      <trkpt lat="50.16849" lon="4.37116">
        <ele>242.4</ele>
        <time>2024-08-08T14:32:11Z</time>
      </trkpt>
      <trkpt lat="50.16857" lon="4.37074">
        <ele>243</ele>
        <time>2024-08-08T14:32:18Z</time>
      </trkpt>
      <trkpt lat="50.16863" lon="4.37038">
        <ele>243.6</ele>
        <time>2024-08-08T14:32:24Z</time>
      </trkpt>
      <trkpt lat="50.16872" lon="4.3699">
        <ele>244.2</ele>
        <time>2024-08-08T14:32:32Z</time>
      </trkpt>
      <trkpt lat="50.16881" lon="4.36942">
        <ele>245</ele>
        <time>2024-08-08T14:32:40Z</time>
      </trkpt>
      <trkpt lat="50.16889" lon="4.36895">
        <ele>246.4</ele>
        <time>2024-08-08T14:32:47Z</time>
      </trkpt>
      <trkpt lat="50.169" lon="4.36832">
        <ele>247.6</ele>
        <time>2024-08-08T14:32:55Z</time>
      </trkpt>
      <trkpt lat="50.16907" lon="4.36786">
        <ele>248.2</ele>
        <time>2024-08-08T14:33:01Z</time>
      </trkpt>
      <trkpt lat="50.16915" lon="4.36744">
        <ele>248.4</ele>
        <time>2024-08-08T14:33:07Z</time>
      </trkpt>
      <trkpt lat="50.16922" lon="4.3671">
        <ele>248.2</ele>
        <time>2024-08-08T14:33:12Z</time>
      </trkpt>
      <trkpt lat="50.16931" lon="4.3667">
        <ele>248.2</ele>
        <time>2024-08-08T14:33:18Z</time>
      </trkpt>
      <trkpt lat="50.16932" lon="4.36663">
        <ele>248.2</ele>
        <time>2024-08-08T14:33:19Z</time>
      </trkpt>
      <trkpt lat="50.16934" lon="4.36649">
        <ele>248.4</ele>
        <time>2024-08-08T14:33:21Z</time>
      </trkpt>
      <trkpt lat="50.16936" lon="4.36635">
        <ele>248.4</ele>
        <time>2024-08-08T14:33:23Z</time>
      </trkpt>
      <trkpt lat="50.16937" lon="4.36628">
        <ele>248.4</ele>
        <time>2024-08-08T14:33:24Z</time>
      </trkpt>
      <trkpt lat="50.1694" lon="4.36608">
        <ele>248.4</ele>
        <time>2024-08-08T14:33:27Z</time>
      </trkpt>
      <trkpt lat="50.16943" lon="4.3658">
        <ele>248.8</ele>
        <time>2024-08-08T14:33:31Z</time>
      </trkpt>
      <trkpt lat="50.16945" lon="4.36527">
        <ele>250.6</ele>
        <time>2024-08-08T14:33:39Z</time>
      </trkpt>
      <trkpt lat="50.16945" lon="4.36492">
        <ele>252.4</ele>
        <time>2024-08-08T14:33:46Z</time>
      </trkpt>
      <trkpt lat="50.16945" lon="4.3649">
        <ele>253</ele>
        <time>2024-08-08T14:33:50Z</time>
      </trkpt>
      <trkpt lat="50.16945" lon="4.3649">
        <ele>254.2</ele>
        <time>2024-08-08T14:34:01Z</time>
      </trkpt>
      <trkpt lat="50.16945" lon="4.3649">
        <ele>255.8</ele>
        <time>2024-08-08T14:34:13Z</time>
      </trkpt>
      <trkpt lat="50.16945" lon="4.3649">
        <ele>258.2</ele>
        <time>2024-08-08T14:34:34Z</time>
      </trkpt>
      <trkpt lat="50.16945" lon="4.3649">
        <ele>260</ele>
        <time>2024-08-08T14:34:53Z</time>
      </trkpt>
      <trkpt lat="50.16946" lon="4.3649">
        <ele>261.6</ele>
        <time>2024-08-08T14:35:14Z</time>
      </trkpt>
      <trkpt lat="50.16946" lon="4.3649">
        <ele>262.6</ele>
        <time>2024-08-08T14:35:34Z</time>
      </trkpt>
      <trkpt lat="50.16946" lon="4.3649">
        <ele>263.4</ele>
        <time>2024-08-08T14:35:51Z</time>
      </trkpt>
      <trkpt lat="50.16946" lon="4.3649">
        <ele>264</ele>
        <time>2024-08-08T14:36:06Z</time>
      </trkpt>
      <trkpt lat="50.16945" lon="4.36484">
        <ele>264.4</ele>
        <time>2024-08-08T14:36:10Z</time>
      </trkpt>
      <trkpt lat="50.16944" lon="4.3648">
        <ele>265</ele>
        <time>2024-08-08T14:36:15Z</time>
      </trkpt>
      <trkpt lat="50.16943" lon="4.3648">
        <ele>265.4</ele>
        <time>2024-08-08T14:36:24Z</time>
      </trkpt>
      <trkpt lat="50.16943" lon="4.3648">
        <ele>266</ele>
        <time>2024-08-08T14:36:35Z</time>
      </trkpt>
      <trkpt lat="50.16943" lon="4.3648">
        <ele>266.6</ele>
        <time>2024-08-08T14:36:47Z</time>
      </trkpt>
      <trkpt lat="50.16942" lon="4.3648">
        <ele>267</ele>
        <time>2024-08-08T14:36:57Z</time>
      </trkpt>
      <trkpt lat="50.1694" lon="4.36477">
        <ele>267.2</ele>
        <time>2024-08-08T14:36:59Z</time>
      </trkpt>
      <trkpt lat="50.16931" lon="4.36474">
        <ele>267.2</ele>
        <time>2024-08-08T14:37:04Z</time>
      </trkpt>
      <trkpt lat="50.16911" lon="4.36483">
        <ele>267.2</ele>
        <time>2024-08-08T14:37:10Z</time>
      </trkpt>
      <trkpt lat="50.16881" lon="4.36508">
        <ele>267.4</ele>
        <time>2024-08-08T14:37:18Z</time>
      </trkpt>
      <trkpt lat="50.16857" lon="4.36529">
        <ele>267.4</ele>
        <time>2024-08-08T14:37:26Z</time>
      </trkpt>
      <trkpt lat="50.16836" lon="4.36547">
        <ele>267.2</ele>
        <time>2024-08-08T14:37:33Z</time>
      </trkpt>
      <trkpt lat="50.16801" lon="4.36578">
        <ele>266.6</ele>
        <time>2024-08-08T14:37:43Z</time>
      </trkpt>
      <trkpt lat="50.1676" lon="4.36615">
        <ele>265.8</ele>
        <time>2024-08-08T14:37:53Z</time>
      </trkpt>
      <trkpt lat="50.16743" lon="4.3663">
        <ele>265.2</ele>
        <time>2024-08-08T14:37:57Z</time>
      </trkpt>
      <trkpt lat="50.16731" lon="4.3664">
        <ele>264.8</ele>
        <time>2024-08-08T14:38:00Z</time>
      </trkpt>
      <trkpt lat="50.16693" lon="4.36674">
        <ele>263.2</ele>
        <time>2024-08-08T14:38:09Z</time>
      </trkpt>
      <trkpt lat="50.16685" lon="4.36681">
        <ele>263</ele>
        <time>2024-08-08T14:38:11Z</time>
      </trkpt>
      <trkpt lat="50.16669" lon="4.36695">
        <ele>262</ele>
        <time>2024-08-08T14:38:15Z</time>
      </trkpt>
      <trkpt lat="50.16634" lon="4.36727">
        <ele>260.6</ele>
        <time>2024-08-08T14:38:23Z</time>
      </trkpt>
      <trkpt lat="50.16605" lon="4.36752">
        <ele>259</ele>
        <time>2024-08-08T14:38:29Z</time>
      </trkpt>
      <trkpt lat="50.16567" lon="4.36786">
        <ele>257.8</ele>
        <time>2024-08-08T14:38:37Z</time>
      </trkpt>
      <trkpt lat="50.1654" lon="4.3681">
        <ele>257</ele>
        <time>2024-08-08T14:38:43Z</time>
      </trkpt>
      <trkpt lat="50.16527" lon="4.36821">
        <ele>256.6</ele>
        <time>2024-08-08T14:38:46Z</time>
      </trkpt>
      <trkpt lat="50.16519" lon="4.36828">
        <ele>256.4</ele>
        <time>2024-08-08T14:38:48Z</time>
      </trkpt>
      <trkpt lat="50.16515" lon="4.36831">
        <ele>256.2</ele>
        <time>2024-08-08T14:38:49Z</time>
      </trkpt>
      <trkpt lat="50.16484" lon="4.3686">
        <ele>255.6</ele>
        <time>2024-08-08T14:38:57Z</time>
      </trkpt>
      <trkpt lat="50.16467" lon="4.36875">
        <ele>255.4</ele>
        <time>2024-08-08T14:39:02Z</time>
      </trkpt>
      <trkpt lat="50.16455" lon="4.36885">
        <ele>255.2</ele>
        <time>2024-08-08T14:39:07Z</time>
      </trkpt>
      <trkpt lat="50.16451" lon="4.36894">
        <ele>255</ele>
        <time>2024-08-08T14:39:10Z</time>
      </trkpt>
      <trkpt lat="50.16452" lon="4.36897">
        <ele>255</ele>
        <time>2024-08-08T14:39:11Z</time>
      </trkpt>
      <trkpt lat="50.16459" lon="4.36916">
        <ele>254.8</ele>
        <time>2024-08-08T14:39:17Z</time>
      </trkpt>
      <trkpt lat="50.1647" lon="4.36948">
        <ele>254.4</ele>
        <time>2024-08-08T14:39:24Z</time>
      </trkpt>
      <trkpt lat="50.16483" lon="4.36992">
        <ele>253.8</ele>
        <time>2024-08-08T14:39:33Z</time>
      </trkpt>
      <trkpt lat="50.16495" lon="4.37027">
        <ele>253.4</ele>
        <time>2024-08-08T14:39:39Z</time>
      </trkpt>
      <trkpt lat="50.16509" lon="4.37071">
        <ele>252.8</ele>
        <time>2024-08-08T14:39:48Z</time>
      </trkpt>
      <trkpt lat="50.1652" lon="4.37103">
        <ele>252.4</ele>
        <time>2024-08-08T14:39:54Z</time>
      </trkpt>
      <trkpt lat="50.16533" lon="4.3714">
        <ele>252</ele>
        <time>2024-08-08T14:40:00Z</time>
      </trkpt>
      <trkpt lat="50.16548" lon="4.37188">
        <ele>251.4</ele>
        <time>2024-08-08T14:40:08Z</time>
      </trkpt>
      <trkpt lat="50.16563" lon="4.37234">
        <ele>250.8</ele>
        <time>2024-08-08T14:40:15Z</time>
      </trkpt>
      <trkpt lat="50.16584" lon="4.37295">
        <ele>249.8</ele>
        <time>2024-08-08T14:40:25Z</time>
      </trkpt>
      <trkpt lat="50.16598" lon="4.37345">
        <ele>249</ele>
        <time>2024-08-08T14:40:32Z</time>
      </trkpt>
      <trkpt lat="50.16606" lon="4.37388">
        <ele>248.4</ele>
        <time>2024-08-08T14:40:38Z</time>
      </trkpt>
      <trkpt lat="50.16613" lon="4.37434">
        <ele>247.4</ele>
        <time>2024-08-08T14:40:45Z</time>
      </trkpt>
      <trkpt lat="50.16624" lon="4.37495">
        <ele>246.2</ele>
        <time>2024-08-08T14:40:54Z</time>
      </trkpt>
      <trkpt lat="50.16631" lon="4.37551">
        <ele>245</ele>
        <time>2024-08-08T14:41:02Z</time>
      </trkpt>
      <trkpt lat="50.1663" lon="4.37563">
        <ele>244.8</ele>
        <time>2024-08-08T14:41:04Z</time>
      </trkpt>
      <trkpt lat="50.16626" lon="4.37575">
        <ele>244.6</ele>
        <time>2024-08-08T14:41:06Z</time>
      </trkpt>
      <trkpt lat="50.16607" lon="4.37606">
        <ele>243.6</ele>
        <time>2024-08-08T14:41:12Z</time>
      </trkpt>
      <trkpt lat="50.1659" lon="4.37635">
        <ele>243</ele>
        <time>2024-08-08T14:41:18Z</time>
      </trkpt>
      <trkpt lat="50.16584" lon="4.37644">
        <ele>242.6</ele>
        <time>2024-08-08T14:41:20Z</time>
      </trkpt>
      <trkpt lat="50.16577" lon="4.37656">
        <ele>242.2</ele>
        <time>2024-08-08T14:41:23Z</time>
      </trkpt>
      <trkpt lat="50.16561" lon="4.37683">
        <ele>241.6</ele>
        <time>2024-08-08T14:41:30Z</time>
      </trkpt>
      <trkpt lat="50.16547" lon="4.37707">
        <ele>240.8</ele>
        <time>2024-08-08T14:41:36Z</time>
      </trkpt>
      <trkpt lat="50.16529" lon="4.37738">
        <ele>240</ele>
        <time>2024-08-08T14:41:45Z</time>
      </trkpt>
      <trkpt lat="50.16526" lon="4.37745">
        <ele>239.8</ele>
        <time>2024-08-08T14:41:47Z</time>
      </trkpt>
      <trkpt lat="50.16527" lon="4.3775">
        <ele>239.6</ele>
        <time>2024-08-08T14:41:48Z</time>
      </trkpt>
      <trkpt lat="50.16538" lon="4.37786">
        <ele>239.2</ele>
        <time>2024-08-08T14:41:54Z</time>
      </trkpt>
      <trkpt lat="50.16553" lon="4.37834">
        <ele>238.6</ele>
        <time>2024-08-08T14:42:01Z</time>
      </trkpt>
      <trkpt lat="50.16569" lon="4.37885">
        <ele>238</ele>
        <time>2024-08-08T14:42:09Z</time>
      </trkpt>
      <trkpt lat="50.16582" lon="4.37938">
        <ele>237.8</ele>
        <time>2024-08-08T14:42:16Z</time>
      </trkpt>
      <trkpt lat="50.16589" lon="4.37969">
        <ele>237.4</ele>
        <time>2024-08-08T14:42:21Z</time>
      </trkpt>
      <trkpt lat="50.16589" lon="4.37981">
        <ele>237.4</ele>
        <time>2024-08-08T14:42:23Z</time>
      </trkpt>
      <trkpt lat="50.16587" lon="4.37985">
        <ele>237.4</ele>
        <time>2024-08-08T14:42:24Z</time>
      </trkpt>
      <trkpt lat="50.16585" lon="4.37991">
        <ele>237.2</ele>
        <time>2024-08-08T14:42:26Z</time>
      </trkpt>
      <trkpt lat="50.16585" lon="4.37993">
        <ele>237</ele>
        <time>2024-08-08T14:42:30Z</time>
      </trkpt>
      <trkpt lat="50.16585" lon="4.37993">
        <ele>236.6</ele>
        <time>2024-08-08T14:42:41Z</time>
      </trkpt>
      <trkpt lat="50.16585" lon="4.37995">
        <ele>236.4</ele>
        <time>2024-08-08T14:42:48Z</time>
      </trkpt>
      <trkpt lat="50.16586" lon="4.37997">
        <ele>236.4</ele>
        <time>2024-08-08T14:42:49Z</time>
      </trkpt>
      <trkpt lat="50.16588" lon="4.38">
        <ele>236.2</ele>
        <time>2024-08-08T14:42:54Z</time>
      </trkpt>
      <trkpt lat="50.16588" lon="4.38">
        <ele>235.8</ele>
        <time>2024-08-08T14:43:08Z</time>
      </trkpt>
      <trkpt lat="50.16588" lon="4.38">
        <ele>235.6</ele>
        <time>2024-08-08T14:43:17Z</time>
      </trkpt>
      <trkpt lat="50.16588" lon="4.37998">
        <ele>235.4</ele>
        <time>2024-08-08T14:43:30Z</time>
      </trkpt>
      <trkpt lat="50.16588" lon="4.37996">
        <ele>235.4</ele>
        <time>2024-08-08T14:43:31Z</time>
      </trkpt>
      <trkpt lat="50.16588" lon="4.37994">
        <ele>235.4</ele>
        <time>2024-08-08T14:43:32Z</time>
      </trkpt>
      <trkpt lat="50.16583" lon="4.3799">
        <ele>235.4</ele>
        <time>2024-08-08T14:43:36Z</time>
      </trkpt>
      <trkpt lat="50.16574" lon="4.37986">
        <ele>235.2</ele>
        <time>2024-08-08T14:43:42Z</time>
      </trkpt>
      <trkpt lat="50.16572" lon="4.37984">
        <ele>235</ele>
        <time>2024-08-08T14:43:47Z</time>
      </trkpt>
      <trkpt lat="50.16572" lon="4.37984">
        <ele>235</ele>
        <time>2024-08-08T14:43:59Z</time>
      </trkpt>
      <trkpt lat="50.16569" lon="4.37983">
        <ele>234.8</ele>
        <time>2024-08-08T14:44:06Z</time>
      </trkpt>
      <trkpt lat="50.16565" lon="4.37979">
        <ele>234.8</ele>
        <time>2024-08-08T14:44:12Z</time>
      </trkpt>
      <trkpt lat="50.16565" lon="4.37979">
        <ele>234.6</ele>
        <time>2024-08-08T14:44:20Z</time>
      </trkpt>
      <trkpt lat="50.16561" lon="4.37978">
        <ele>234.6</ele>
        <time>2024-08-08T14:44:22Z</time>
      </trkpt>
      <trkpt lat="50.16547" lon="4.37972">
        <ele>234.8</ele>
        <time>2024-08-08T14:44:26Z</time>
      </trkpt>
      <trkpt lat="50.16543" lon="4.3797">
        <ele>234.8</ele>
        <time>2024-08-08T14:44:27Z</time>
      </trkpt>
      <trkpt lat="50.16522" lon="4.37967">
        <ele>234.8</ele>
        <time>2024-08-08T14:44:33Z</time>
      </trkpt>
      <trkpt lat="50.16495" lon="4.37969">
        <ele>235</ele>
        <time>2024-08-08T14:44:41Z</time>
      </trkpt>
      <trkpt lat="50.16472" lon="4.37969">
        <ele>235.4</ele>
        <time>2024-08-08T14:44:47Z</time>
      </trkpt>
      <trkpt lat="50.16442" lon="4.37968">
        <ele>236</ele>
        <time>2024-08-08T14:44:56Z</time>
      </trkpt>
      <trkpt lat="50.16422" lon="4.37961">
        <ele>236.6</ele>
        <time>2024-08-08T14:45:02Z</time>
      </trkpt>
      <trkpt lat="50.16406" lon="4.37952">
        <ele>237</ele>
        <time>2024-08-08T14:45:07Z</time>
      </trkpt>
      <trkpt lat="50.16387" lon="4.37942">
        <ele>237.4</ele>
        <time>2024-08-08T14:45:12Z</time>
      </trkpt>
      <trkpt lat="50.16363" lon="4.37928">
        <ele>237.8</ele>
        <time>2024-08-08T14:45:18Z</time>
      </trkpt>
      <trkpt lat="50.16338" lon="4.3791">
        <ele>238</ele>
        <time>2024-08-08T14:45:24Z</time>
      </trkpt>
      <trkpt lat="50.16314" lon="4.37883">
        <ele>238.6</ele>
        <time>2024-08-08T14:45:31Z</time>
      </trkpt>
      <trkpt lat="50.16286" lon="4.37851">
        <ele>239.8</ele>
        <time>2024-08-08T14:45:40Z</time>
      </trkpt>
      <trkpt lat="50.16261" lon="4.37827">
        <ele>240.4</ele>
        <time>2024-08-08T14:45:48Z</time>
      </trkpt>
      <trkpt lat="50.16257" lon="4.37829">
        <ele>240.4</ele>
        <time>2024-08-08T14:45:49Z</time>
      </trkpt>
      <trkpt lat="50.16251" lon="4.37837">
        <ele>240.6</ele>
        <time>2024-08-08T14:45:51Z</time>
      </trkpt>
      <trkpt lat="50.16234" lon="4.37862">
        <ele>241</ele>
        <time>2024-08-08T14:45:56Z</time>
      </trkpt>
      <trkpt lat="50.16217" lon="4.37894">
        <ele>241.4</ele>
        <time>2024-08-08T14:46:02Z</time>
      </trkpt>
      <trkpt lat="50.16199" lon="4.37918">
        <ele>241.8</ele>
        <time>2024-08-08T14:46:07Z</time>
      </trkpt>
      <trkpt lat="50.16188" lon="4.37933">
        <ele>242</ele>
        <time>2024-08-08T14:46:10Z</time>
      </trkpt>
      <trkpt lat="50.16181" lon="4.37942">
        <ele>242</ele>
        <time>2024-08-08T14:46:12Z</time>
      </trkpt>
      <trkpt lat="50.16161" lon="4.37971">
        <ele>242</ele>
        <time>2024-08-08T14:46:18Z</time>
      </trkpt>
      <trkpt lat="50.16156" lon="4.37982">
        <ele>242</ele>
        <time>2024-08-08T14:46:20Z</time>
      </trkpt>
      <trkpt lat="50.16153" lon="4.37996">
        <ele>242.2</ele>
        <time>2024-08-08T14:46:22Z</time>
      </trkpt>
      <trkpt lat="50.16153" lon="4.38004">
        <ele>242.2</ele>
        <time>2024-08-08T14:46:23Z</time>
      </trkpt>
      <trkpt lat="50.16154" lon="4.38012">
        <ele>242.2</ele>
        <time>2024-08-08T14:46:24Z</time>
      </trkpt>
      <trkpt lat="50.16156" lon="4.38029">
        <ele>242.2</ele>
        <time>2024-08-08T14:46:26Z</time>
      </trkpt>
      <trkpt lat="50.16158" lon="4.38036">
        <ele>242.4</ele>
        <time>2024-08-08T14:46:27Z</time>
      </trkpt>
      <trkpt lat="50.16158" lon="4.38045">
        <ele>242.4</ele>
        <time>2024-08-08T14:46:28Z</time>
      </trkpt>
      <trkpt lat="50.16159" lon="4.38077">
        <ele>242.2</ele>
        <time>2024-08-08T14:46:32Z</time>
      </trkpt>
      <trkpt lat="50.1616" lon="4.38102">
        <ele>242.2</ele>
        <time>2024-08-08T14:46:35Z</time>
      </trkpt>
      <trkpt lat="50.16161" lon="4.38127">
        <ele>242.4</ele>
        <time>2024-08-08T14:46:38Z</time>
      </trkpt>
      <trkpt lat="50.16164" lon="4.38178">
        <ele>242.2</ele>
        <time>2024-08-08T14:46:44Z</time>
      </trkpt>
      <trkpt lat="50.16166" lon="4.38219">
        <ele>242.4</ele>
        <time>2024-08-08T14:46:49Z</time>
      </trkpt>
      <trkpt lat="50.1617" lon="4.38272">
        <ele>242.4</ele>
        <time>2024-08-08T14:46:56Z</time>
      </trkpt>
      <trkpt lat="50.16173" lon="4.38324">
        <ele>242.6</ele>
        <time>2024-08-08T14:47:03Z</time>
      </trkpt>
      <trkpt lat="50.16176" lon="4.38376">
        <ele>242.6</ele>
        <time>2024-08-08T14:47:10Z</time>
      </trkpt>
      <trkpt lat="50.1618" lon="4.38436">
        <ele>242.6</ele>
        <time>2024-08-08T14:47:18Z</time>
      </trkpt>
      <trkpt lat="50.16183" lon="4.38473">
        <ele>242.4</ele>
        <time>2024-08-08T14:47:23Z</time>
      </trkpt>
      <trkpt lat="50.16184" lon="4.38487">
        <ele>242.4</ele>
        <time>2024-08-08T14:47:25Z</time>
      </trkpt>
      <trkpt lat="50.16186" lon="4.38511">
        <ele>242.4</ele>
        <time>2024-08-08T14:47:28Z</time>
      </trkpt>
      <trkpt lat="50.16188" lon="4.38527">
        <ele>242.6</ele>
        <time>2024-08-08T14:47:30Z</time>
      </trkpt>
      <trkpt lat="50.16189" lon="4.38545">
        <ele>242.6</ele>
        <time>2024-08-08T14:47:32Z</time>
      </trkpt>
      <trkpt lat="50.16189" lon="4.38553">
        <ele>242.6</ele>
        <time>2024-08-08T14:47:33Z</time>
      </trkpt>
      <trkpt lat="50.16192" lon="4.38584">
        <ele>242.6</ele>
        <time>2024-08-08T14:47:36Z</time>
      </trkpt>
      <trkpt lat="50.16198" lon="4.38671">
        <ele>242.4</ele>
        <time>2024-08-08T14:47:44Z</time>
      </trkpt>
      <trkpt lat="50.16198" lon="4.38683">
        <ele>242.4</ele>
        <time>2024-08-08T14:47:45Z</time>
      </trkpt>
      <trkpt lat="50.16203" lon="4.3877">
        <ele>241.4</ele>
        <time>2024-08-08T14:47:53Z</time>
      </trkpt>
      <trkpt lat="50.16203" lon="4.38781">
        <ele>241.2</ele>
        <time>2024-08-08T14:47:54Z</time>
      </trkpt>
      <trkpt lat="50.16206" lon="4.38841">
        <ele>240.4</ele>
        <time>2024-08-08T14:48:00Z</time>
      </trkpt>
      <trkpt lat="50.16211" lon="4.38906">
        <ele>239.6</ele>
        <time>2024-08-08T14:48:07Z</time>
      </trkpt>
      <trkpt lat="50.16214" lon="4.38961">
        <ele>238.8</ele>
        <time>2024-08-08T14:48:13Z</time>
      </trkpt>
      <trkpt lat="50.16216" lon="4.39005">
        <ele>238.2</ele>
        <time>2024-08-08T14:48:18Z</time>
      </trkpt>
      <trkpt lat="50.16219" lon="4.3905">
        <ele>237.4</ele>
        <time>2024-08-08T14:48:24Z</time>
      </trkpt>
      <trkpt lat="50.16218" lon="4.39067">
        <ele>237.2</ele>
        <time>2024-08-08T14:48:27Z</time>
      </trkpt>
      <trkpt lat="50.16216" lon="4.3907">
        <ele>237.2</ele>
        <time>2024-08-08T14:48:28Z</time>
      </trkpt>
      <trkpt lat="50.16213" lon="4.39071">
        <ele>237</ele>
        <time>2024-08-08T14:48:29Z</time>
      </trkpt>
      <trkpt lat="50.16208" lon="4.39068">
        <ele>237</ele>
        <time>2024-08-08T14:48:31Z</time>
      </trkpt>
      <trkpt lat="50.16194" lon="4.39062">
        <ele>236.8</ele>
        <time>2024-08-08T14:48:36Z</time>
      </trkpt>
      <trkpt lat="50.16173" lon="4.39055">
        <ele>236.6</ele>
        <time>2024-08-08T14:48:43Z</time>
      </trkpt>
      <trkpt lat="50.16154" lon="4.39048">
        <ele>236.4</ele>
        <time>2024-08-08T14:48:49Z</time>
      </trkpt>
      <trkpt lat="50.16135" lon="4.39041">
        <ele>236.4</ele>
        <time>2024-08-08T14:48:55Z</time>
      </trkpt>
      <trkpt lat="50.16125" lon="4.39034">
        <ele>236.6</ele>
        <time>2024-08-08T14:49:00Z</time>
      </trkpt>
      <trkpt lat="50.16124" lon="4.39031">
        <ele>236</ele>
        <time>2024-08-08T14:49:01Z</time>
      </trkpt>
      <trkpt lat="50.16123" lon="4.39024">
        <ele>236.4</ele>
        <time>2024-08-08T14:49:04Z</time>
      </trkpt>
      <trkpt lat="50.16119" lon="4.3901">
        <ele>236.8</ele>
        <time>2024-08-08T14:49:08Z</time>
      </trkpt>
      <trkpt lat="50.16113" lon="4.38986">
        <ele>236.8</ele>
        <time>2024-08-08T14:49:13Z</time>
      </trkpt>
      <trkpt lat="50.16108" lon="4.38973">
        <ele>236.8</ele>
        <time>2024-08-08T14:49:16Z</time>
      </trkpt>
      <trkpt lat="50.16107" lon="4.38967">
        <ele>237</ele>
        <time>2024-08-08T14:49:17Z</time>
      </trkpt>
      <trkpt lat="50.16097" lon="4.38918">
        <ele>238.2</ele>
        <time>2024-08-08T14:49:26Z</time>
      </trkpt>
      <trkpt lat="50.1609" lon="4.38888">
        <ele>239.2</ele>
        <time>2024-08-08T14:49:32Z</time>
      </trkpt>
      <trkpt lat="50.16082" lon="4.38857">
        <ele>240.6</ele>
        <time>2024-08-08T14:49:38Z</time>
      </trkpt>
      <trkpt lat="50.1607" lon="4.3881">
        <ele>243</ele>
        <time>2024-08-08T14:49:47Z</time>
      </trkpt>
      <trkpt lat="50.16063" lon="4.38777">
        <ele>245.2</ele>
        <time>2024-08-08T14:49:53Z</time>
      </trkpt>
      <trkpt lat="50.16054" lon="4.38743">
        <ele>247.6</ele>
        <time>2024-08-08T14:49:59Z</time>
      </trkpt>
      <trkpt lat="50.16044" lon="4.38711">
        <ele>249.6</ele>
        <time>2024-08-08T14:50:05Z</time>
      </trkpt>
      <trkpt lat="50.16027" lon="4.38685">
        <ele>251.6</ele>
        <time>2024-08-08T14:50:11Z</time>
      </trkpt>
      <trkpt lat="50.16003" lon="4.38659">
        <ele>254.4</ele>
        <time>2024-08-08T14:50:19Z</time>
      </trkpt>
      <trkpt lat="50.15986" lon="4.38641">
        <ele>256.2</ele>
        <time>2024-08-08T14:50:25Z</time>
      </trkpt>
      <trkpt lat="50.15973" lon="4.38625">
        <ele>257.4</ele>
        <time>2024-08-08T14:50:30Z</time>
      </trkpt>
      <trkpt lat="50.15951" lon="4.38601">
        <ele>258.8</ele>
        <time>2024-08-08T14:50:37Z</time>
      </trkpt>
      <trkpt lat="50.15939" lon="4.38588">
        <ele>259.4</ele>
        <time>2024-08-08T14:50:41Z</time>
      </trkpt>
      <trkpt lat="50.15923" lon="4.38571">
        <ele>260</ele>
        <time>2024-08-08T14:50:46Z</time>
      </trkpt>
      <trkpt lat="50.15906" lon="4.38552">
        <ele>260.6</ele>
        <time>2024-08-08T14:50:51Z</time>
      </trkpt>
      <trkpt lat="50.15902" lon="4.38548">
        <ele>260.6</ele>
        <time>2024-08-08T14:50:52Z</time>
      </trkpt>
      <trkpt lat="50.15884" lon="4.38527">
        <ele>261</ele>
        <time>2024-08-08T14:50:57Z</time>
      </trkpt>
      <trkpt lat="50.15867" lon="4.3851">
        <ele>261.2</ele>
        <time>2024-08-08T14:51:02Z</time>
      </trkpt>
      <trkpt lat="50.15853" lon="4.38494">
        <ele>261.2</ele>
        <time>2024-08-08T14:51:06Z</time>
      </trkpt>
      <trkpt lat="50.15849" lon="4.38489">
        <ele>261.2</ele>
        <time>2024-08-08T14:51:07Z</time>
      </trkpt>
      <trkpt lat="50.15825" lon="4.38462">
        <ele>261.4</ele>
        <time>2024-08-08T14:51:13Z</time>
      </trkpt>
      <trkpt lat="50.15807" lon="4.38441">
        <ele>262</ele>
        <time>2024-08-08T14:51:18Z</time>
      </trkpt>
      <trkpt lat="50.15789" lon="4.38421">
        <ele>262.4</ele>
        <time>2024-08-08T14:51:23Z</time>
      </trkpt>
      <trkpt lat="50.15766" lon="4.38396">
        <ele>263.2</ele>
        <time>2024-08-08T14:51:29Z</time>
      </trkpt>
      <trkpt lat="50.15759" lon="4.38388">
        <ele>263.4</ele>
        <time>2024-08-08T14:51:31Z</time>
      </trkpt>
      <trkpt lat="50.15749" lon="4.38378">
        <ele>263.8</ele>
        <time>2024-08-08T14:51:34Z</time>
      </trkpt>
      <trkpt lat="50.15741" lon="4.3837">
        <ele>263.8</ele>
        <time>2024-08-08T14:51:36Z</time>
      </trkpt>
      <trkpt lat="50.15734" lon="4.38363">
        <ele>264</ele>
        <time>2024-08-08T14:51:38Z</time>
      </trkpt>
      <trkpt lat="50.15715" lon="4.38342">
        <ele>264.4</ele>
        <time>2024-08-08T14:51:43Z</time>
      </trkpt>
      <trkpt lat="50.15702" lon="4.38327">
        <ele>264.6</ele>
        <time>2024-08-08T14:51:47Z</time>
      </trkpt>
      <trkpt lat="50.15689" lon="4.38313">
        <ele>265</ele>
        <time>2024-08-08T14:51:50Z</time>
      </trkpt>
      <trkpt lat="50.15685" lon="4.38308">
        <ele>265.2</ele>
        <time>2024-08-08T14:51:51Z</time>
      </trkpt>
      <trkpt lat="50.15665" lon="4.38294">
        <ele>265.4</ele>
        <time>2024-08-08T14:51:56Z</time>
      </trkpt>
      <trkpt lat="50.15648" lon="4.38291">
        <ele>265.8</ele>
        <time>2024-08-08T14:52:01Z</time>
      </trkpt>
      <trkpt lat="50.15643" lon="4.3829">
        <ele>266.2</ele>
        <time>2024-08-08T14:52:03Z</time>
      </trkpt>
      <trkpt lat="50.15641" lon="4.38291">
        <ele>266.4</ele>
        <time>2024-08-08T14:52:05Z</time>
      </trkpt>
      <trkpt lat="50.15641" lon="4.38291">
        <ele>267.2</ele>
        <time>2024-08-08T14:52:16Z</time>
      </trkpt>
      <trkpt lat="50.15641" lon="4.38291">
        <ele>268.6</ele>
        <time>2024-08-08T14:52:35Z</time>
      </trkpt>
      <trkpt lat="50.15641" lon="4.38293">
        <ele>269</ele>
        <time>2024-08-08T14:52:44Z</time>
      </trkpt>
      <trkpt lat="50.15642" lon="4.38295">
        <ele>269.2</ele>
        <time>2024-08-08T14:52:45Z</time>
      </trkpt>
      <trkpt lat="50.15637" lon="4.3831">
        <ele>269.6</ele>
        <time>2024-08-08T14:52:49Z</time>
      </trkpt>
      <trkpt lat="50.15629" lon="4.38328">
        <ele>270.2</ele>
        <time>2024-08-08T14:52:52Z</time>
      </trkpt>
      <trkpt lat="50.15625" lon="4.38342">
        <ele>270.4</ele>
        <time>2024-08-08T14:52:54Z</time>
      </trkpt>
      <trkpt lat="50.15623" lon="4.38349">
        <ele>270.6</ele>
        <time>2024-08-08T14:52:55Z</time>
      </trkpt>
      <trkpt lat="50.15619" lon="4.38364">
        <ele>270.6</ele>
        <time>2024-08-08T14:52:57Z</time>
      </trkpt>
      <trkpt lat="50.15616" lon="4.3837">
        <ele>270.8</ele>
        <time>2024-08-08T14:52:58Z</time>
      </trkpt>
      <trkpt lat="50.15605" lon="4.38397">
        <ele>271.2</ele>
        <time>2024-08-08T14:53:02Z</time>
      </trkpt>
      <trkpt lat="50.15601" lon="4.38411">
        <ele>271.4</ele>
        <time>2024-08-08T14:53:04Z</time>
      </trkpt>
      <trkpt lat="50.15596" lon="4.38425">
        <ele>271.4</ele>
        <time>2024-08-08T14:53:06Z</time>
      </trkpt>
      <trkpt lat="50.1559" lon="4.38444">
        <ele>271.8</ele>
        <time>2024-08-08T14:53:09Z</time>
      </trkpt>
      <trkpt lat="50.15573" lon="4.38495">
        <ele>272.6</ele>
        <time>2024-08-08T14:53:16Z</time>
      </trkpt>
      <trkpt lat="50.15559" lon="4.38538">
        <ele>273</ele>
        <time>2024-08-08T14:53:21Z</time>
      </trkpt>
      <trkpt lat="50.15548" lon="4.38577">
        <ele>273.4</ele>
        <time>2024-08-08T14:53:26Z</time>
      </trkpt>
      <trkpt lat="50.1554" lon="4.38599">
        <ele>273.6</ele>
        <time>2024-08-08T14:53:31Z</time>
      </trkpt>
      <trkpt lat="50.15528" lon="4.38631">
        <ele>274</ele>
        <time>2024-08-08T14:53:36Z</time>
      </trkpt>
      <trkpt lat="50.15524" lon="4.38644">
        <ele>274</ele>
        <time>2024-08-08T14:53:38Z</time>
      </trkpt>
      <trkpt lat="50.15515" lon="4.38671">
        <ele>274.2</ele>
        <time>2024-08-08T14:53:42Z</time>
      </trkpt>
      <trkpt lat="50.15497" lon="4.38727">
        <ele>274.6</ele>
        <time>2024-08-08T14:53:49Z</time>
      </trkpt>
      <trkpt lat="50.15477" lon="4.3879">
        <ele>275</ele>
        <time>2024-08-08T14:53:56Z</time>
      </trkpt>
      <trkpt lat="50.15459" lon="4.38842">
        <ele>275.2</ele>
        <time>2024-08-08T14:54:01Z</time>
      </trkpt>
      <trkpt lat="50.15444" lon="4.38891">
        <ele>275.8</ele>
        <time>2024-08-08T14:54:06Z</time>
      </trkpt>
      <trkpt lat="50.15442" lon="4.389">
        <ele>276</ele>
        <time>2024-08-08T14:54:07Z</time>
      </trkpt>
      <trkpt lat="50.15438" lon="4.38934">
        <ele>276.4</ele>
        <time>2024-08-08T14:54:11Z</time>
      </trkpt>
      <trkpt lat="50.1543" lon="4.38982">
        <ele>277.4</ele>
        <time>2024-08-08T14:54:17Z</time>
      </trkpt>
      <trkpt lat="50.15408" lon="4.39046">
        <ele>278.8</ele>
        <time>2024-08-08T14:54:25Z</time>
      </trkpt>
      <trkpt lat="50.1539" lon="4.39096">
        <ele>279.8</ele>
        <time>2024-08-08T14:54:31Z</time>
      </trkpt>
      <trkpt lat="50.15365" lon="4.39168">
        <ele>280.6</ele>
        <time>2024-08-08T14:54:39Z</time>
      </trkpt>
      <trkpt lat="50.15348" lon="4.39217">
        <ele>281</ele>
        <time>2024-08-08T14:54:45Z</time>
      </trkpt>
      <trkpt lat="50.15323" lon="4.39275">
        <ele>281.8</ele>
        <time>2024-08-08T14:54:53Z</time>
      </trkpt>
      <trkpt lat="50.15297" lon="4.39324">
        <ele>282.8</ele>
        <time>2024-08-08T14:55:00Z</time>
      </trkpt>
      <trkpt lat="50.15267" lon="4.39385">
        <ele>284</ele>
        <time>2024-08-08T14:55:09Z</time>
      </trkpt>
      <trkpt lat="50.15256" lon="4.39415">
        <ele>284.6</ele>
        <time>2024-08-08T14:55:14Z</time>
      </trkpt>
      <trkpt lat="50.15255" lon="4.39421">
        <ele>284.6</ele>
        <time>2024-08-08T14:55:15Z</time>
      </trkpt>
      <trkpt lat="50.15254" lon="4.39445">
        <ele>285</ele>
        <time>2024-08-08T14:55:20Z</time>
      </trkpt>
      <trkpt lat="50.15255" lon="4.39457">
        <ele>285.6</ele>
        <time>2024-08-08T14:55:25Z</time>
      </trkpt>
      <trkpt lat="50.15255" lon="4.39457">
        <ele>286</ele>
        <time>2024-08-08T14:55:31Z</time>
      </trkpt>
      <trkpt lat="50.15255" lon="4.39462">
        <ele>287</ele>
        <time>2024-08-08T14:55:43Z</time>
      </trkpt>
      <trkpt lat="50.15255" lon="4.39466">
        <ele>287.2</ele>
        <time>2024-08-08T14:55:45Z</time>
      </trkpt>
      <trkpt lat="50.15253" lon="4.3947">
        <ele>287.4</ele>
        <time>2024-08-08T14:55:47Z</time>
      </trkpt>
      <trkpt lat="50.15252" lon="4.3947">
        <ele>287.4</ele>
        <time>2024-08-08T14:55:48Z</time>
      </trkpt>
      <trkpt lat="50.15251" lon="4.39471">
        <ele>287.8</ele>
        <time>2024-08-08T14:55:53Z</time>
      </trkpt>
      <trkpt lat="50.15251" lon="4.39471">
        <ele>287.8</ele>
        <time>2024-08-08T14:55:54Z</time>
      </trkpt>
      <trkpt lat="50.15246" lon="4.39469">
        <ele>288</ele>
        <time>2024-08-08T14:55:57Z</time>
      </trkpt>
      <trkpt lat="50.15228" lon="4.39461">
        <ele>288.2</ele>
        <time>2024-08-08T14:56:02Z</time>
      </trkpt>
      <trkpt lat="50.1521" lon="4.39454">
        <ele>288.4</ele>
        <time>2024-08-08T14:56:08Z</time>
      </trkpt>
      <trkpt lat="50.15187" lon="4.39445">
        <ele>288.6</ele>
        <time>2024-08-08T14:56:14Z</time>
      </trkpt>
      <trkpt lat="50.15152" lon="4.3943">
        <ele>289</ele>
        <time>2024-08-08T14:56:22Z</time>
      </trkpt>
      <trkpt lat="50.15115" lon="4.39414">
        <ele>289.2</ele>
        <time>2024-08-08T14:56:30Z</time>
      </trkpt>
      <trkpt lat="50.1511" lon="4.39413">
        <ele>289.2</ele>
        <time>2024-08-08T14:56:31Z</time>
      </trkpt>
      <trkpt lat="50.15081" lon="4.39396">
        <ele>289.2</ele>
        <time>2024-08-08T14:56:37Z</time>
      </trkpt>
      <trkpt lat="50.15051" lon="4.39373">
        <ele>289.2</ele>
        <time>2024-08-08T14:56:43Z</time>
      </trkpt>
      <trkpt lat="50.15021" lon="4.39343">
        <ele>289.2</ele>
        <time>2024-08-08T14:56:49Z</time>
      </trkpt>
      <trkpt lat="50.14993" lon="4.39309">
        <ele>289</ele>
        <time>2024-08-08T14:56:55Z</time>
      </trkpt>
      <trkpt lat="50.14972" lon="4.39289">
        <ele>289</ele>
        <time>2024-08-08T14:57:00Z</time>
      </trkpt>
      <trkpt lat="50.14968" lon="4.39288">
        <ele>288.8</ele>
        <time>2024-08-08T14:57:01Z</time>
      </trkpt>
      <trkpt lat="50.14964" lon="4.39289">
        <ele>288.8</ele>
        <time>2024-08-08T14:57:02Z</time>
      </trkpt>
      <trkpt lat="50.14948" lon="4.39297">
        <ele>288.6</ele>
        <time>2024-08-08T14:57:05Z</time>
      </trkpt>
      <trkpt lat="50.14912" lon="4.39312">
        <ele>288</ele>
        <time>2024-08-08T14:57:12Z</time>
      </trkpt>
      <trkpt lat="50.14903" lon="4.39316">
        <ele>287.8</ele>
        <time>2024-08-08T14:57:14Z</time>
      </trkpt>
      <trkpt lat="50.14898" lon="4.39317">
        <ele>287.8</ele>
        <time>2024-08-08T14:57:15Z</time>
      </trkpt>
      <trkpt lat="50.14871" lon="4.39329">
        <ele>287.4</ele>
        <time>2024-08-08T14:57:20Z</time>
      </trkpt>
      <trkpt lat="50.14843" lon="4.39342">
        <ele>286.8</ele>
        <time>2024-08-08T14:57:26Z</time>
      </trkpt>
      <trkpt lat="50.14838" lon="4.39343">
        <ele>286.8</ele>
        <time>2024-08-08T14:57:27Z</time>
      </trkpt>
      <trkpt lat="50.14819" lon="4.39349">
        <ele>286.6</ele>
        <time>2024-08-08T14:57:31Z</time>
      </trkpt>
      <trkpt lat="50.14815" lon="4.39351">
        <ele>286.6</ele>
        <time>2024-08-08T14:57:32Z</time>
      </trkpt>
      <trkpt lat="50.148" lon="4.39356">
        <ele>286.4</ele>
        <time>2024-08-08T14:57:35Z</time>
      </trkpt>
      <trkpt lat="50.1479" lon="4.39362">
        <ele>286.4</ele>
        <time>2024-08-08T14:57:37Z</time>
      </trkpt>
      <trkpt lat="50.14773" lon="4.39369">
        <ele>286.4</ele>
        <time>2024-08-08T14:57:40Z</time>
      </trkpt>
      <trkpt lat="50.14737" lon="4.39384">
        <ele>286.2</ele>
        <time>2024-08-08T14:57:47Z</time>
      </trkpt>
      <trkpt lat="50.14701" lon="4.39399">
        <ele>286</ele>
        <time>2024-08-08T14:57:54Z</time>
      </trkpt>
      <trkpt lat="50.14667" lon="4.39415">
        <ele>285.8</ele>
        <time>2024-08-08T14:58:01Z</time>
      </trkpt>
      <trkpt lat="50.1464" lon="4.39426">
        <ele>285.8</ele>
        <time>2024-08-08T14:58:06Z</time>
      </trkpt>
      <trkpt lat="50.14623" lon="4.39434">
        <ele>285.6</ele>
        <time>2024-08-08T14:58:09Z</time>
      </trkpt>
      <trkpt lat="50.14585" lon="4.39449">
        <ele>285.4</ele>
        <time>2024-08-08T14:58:15Z</time>
      </trkpt>
      <trkpt lat="50.14571" lon="4.39456">
        <ele>285.4</ele>
        <time>2024-08-08T14:58:17Z</time>
      </trkpt>
      <trkpt lat="50.14555" lon="4.39462">
        <ele>285.4</ele>
        <time>2024-08-08T14:58:19Z</time>
      </trkpt>
      <trkpt lat="50.14516" lon="4.3948">
        <ele>285.4</ele>
        <time>2024-08-08T14:58:24Z</time>
      </trkpt>
      <trkpt lat="50.14491" lon="4.39491">
        <ele>285.2</ele>
        <time>2024-08-08T14:58:28Z</time>
      </trkpt>
      <trkpt lat="50.14466" lon="4.39503">
        <ele>285.2</ele>
        <time>2024-08-08T14:58:33Z</time>
      </trkpt>
      <trkpt lat="50.14445" lon="4.39509">
        <ele>285.2</ele>
        <time>2024-08-08T14:58:37Z</time>
      </trkpt>
      <trkpt lat="50.14408" lon="4.39526">
        <ele>285.4</ele>
        <time>2024-08-08T14:58:45Z</time>
      </trkpt>
      <trkpt lat="50.14385" lon="4.39537">
        <ele>285.6</ele>
        <time>2024-08-08T14:58:50Z</time>
      </trkpt>
      <trkpt lat="50.1436" lon="4.39547">
        <ele>286.2</ele>
        <time>2024-08-08T14:58:55Z</time>
      </trkpt>
      <trkpt lat="50.14355" lon="4.39549">
        <ele>286.2</ele>
        <time>2024-08-08T14:58:56Z</time>
      </trkpt>
      <trkpt lat="50.14323" lon="4.39563">
        <ele>286.6</ele>
        <time>2024-08-08T14:59:02Z</time>
      </trkpt>
      <trkpt lat="50.14317" lon="4.39564">
        <ele>286.6</ele>
        <time>2024-08-08T14:59:03Z</time>
      </trkpt>
      <trkpt lat="50.14309" lon="4.39568">
        <ele>286.6</ele>
        <time>2024-08-08T14:59:05Z</time>
      </trkpt>
      <trkpt lat="50.14305" lon="4.3957">
        <ele>286.8</ele>
        <time>2024-08-08T14:59:06Z</time>
      </trkpt>
      <trkpt lat="50.14294" lon="4.39578">
        <ele>286.8</ele>
        <time>2024-08-08T14:59:09Z</time>
      </trkpt>
      <trkpt lat="50.14293" lon="4.39583">
        <ele>287</ele>
        <time>2024-08-08T14:59:10Z</time>
      </trkpt>
      <trkpt lat="50.14293" lon="4.39589">
        <ele>286.8</ele>
        <time>2024-08-08T14:59:11Z</time>
      </trkpt>
      <trkpt lat="50.14295" lon="4.39604">
        <ele>286.8</ele>
        <time>2024-08-08T14:59:13Z</time>
      </trkpt>
      <trkpt lat="50.14305" lon="4.39643">
        <ele>286.8</ele>
        <time>2024-08-08T14:59:18Z</time>
      </trkpt>
      <trkpt lat="50.14309" lon="4.39658">
        <ele>286.8</ele>
        <time>2024-08-08T14:59:20Z</time>
      </trkpt>
      <trkpt lat="50.14313" lon="4.39673">
        <ele>286.6</ele>
        <time>2024-08-08T14:59:22Z</time>
      </trkpt>
      <trkpt lat="50.14319" lon="4.39696">
        <ele>286</ele>
        <time>2024-08-08T14:59:25Z</time>
      </trkpt>
      <trkpt lat="50.14323" lon="4.39713">
        <ele>286</ele>
        <time>2024-08-08T14:59:27Z</time>
      </trkpt>
      <trkpt lat="50.14325" lon="4.3972">
        <ele>286</ele>
        <time>2024-08-08T14:59:28Z</time>
      </trkpt>
      <trkpt lat="50.14329" lon="4.39735">
        <ele>285.6</ele>
        <time>2024-08-08T14:59:30Z</time>
      </trkpt>
      <trkpt lat="50.14331" lon="4.39743">
        <ele>285.6</ele>
        <time>2024-08-08T14:59:31Z</time>
      </trkpt>
      <trkpt lat="50.14336" lon="4.3977">
        <ele>285</ele>
        <time>2024-08-08T14:59:34Z</time>
      </trkpt>
      <trkpt lat="50.14341" lon="4.39794">
        <ele>284.4</ele>
        <time>2024-08-08T14:59:37Z</time>
      </trkpt>
      <trkpt lat="50.14346" lon="4.39826">
        <ele>283.8</ele>
        <time>2024-08-08T14:59:41Z</time>
      </trkpt>
      <trkpt lat="50.1435" lon="4.39841">
        <ele>283.6</ele>
        <time>2024-08-08T14:59:43Z</time>
      </trkpt>
      <trkpt lat="50.14362" lon="4.39889">
        <ele>282.4</ele>
        <time>2024-08-08T14:59:49Z</time>
      </trkpt>
      <trkpt lat="50.14368" lon="4.39914">
        <ele>281.6</ele>
        <time>2024-08-08T14:59:52Z</time>
      </trkpt>
      <trkpt lat="50.14374" lon="4.3993">
        <ele>281.2</ele>
        <time>2024-08-08T14:59:54Z</time>
      </trkpt>
      <trkpt lat="50.14381" lon="4.39946">
        <ele>280.6</ele>
        <time>2024-08-08T14:59:56Z</time>
      </trkpt>
      <trkpt lat="50.14386" lon="4.3998">
        <ele>279.6</ele>
        <time>2024-08-08T14:59:59Z</time>
      </trkpt>
      <trkpt lat="50.14398" lon="4.40045">
        <ele>278</ele>
        <time>2024-08-08T15:00:05Z</time>
      </trkpt>
      <trkpt lat="50.14413" lon="4.40116">
        <ele>275.8</ele>
        <time>2024-08-08T15:00:12Z</time>
      </trkpt>
      <trkpt lat="50.14415" lon="4.40126">
        <ele>275.4</ele>
        <time>2024-08-08T15:00:13Z</time>
      </trkpt>
      <trkpt lat="50.1442" lon="4.40155">
        <ele>274.4</ele>
        <time>2024-08-08T15:00:16Z</time>
      </trkpt>
      <trkpt lat="50.14431" lon="4.40212">
        <ele>273</ele>
        <time>2024-08-08T15:00:22Z</time>
      </trkpt>
      <trkpt lat="50.14437" lon="4.40243">
        <ele>272.4</ele>
        <time>2024-08-08T15:00:25Z</time>
      </trkpt>
      <trkpt lat="50.14442" lon="4.40264">
        <ele>271.8</ele>
        <time>2024-08-08T15:00:27Z</time>
      </trkpt>
      <trkpt lat="50.14448" lon="4.40295">
        <ele>271</ele>
        <time>2024-08-08T15:00:30Z</time>
      </trkpt>
      <trkpt lat="50.14454" lon="4.40316">
        <ele>270.6</ele>
        <time>2024-08-08T15:00:32Z</time>
      </trkpt>
      <trkpt lat="50.14461" lon="4.40353">
        <ele>269.2</ele>
        <time>2024-08-08T15:00:36Z</time>
      </trkpt>
      <trkpt lat="50.14473" lon="4.40403">
        <ele>267.6</ele>
        <time>2024-08-08T15:00:41Z</time>
      </trkpt>
      <trkpt lat="50.14486" lon="4.40457">
        <ele>266.6</ele>
        <time>2024-08-08T15:00:46Z</time>
      </trkpt>
      <trkpt lat="50.14491" lon="4.40478">
        <ele>266</ele>
        <time>2024-08-08T15:00:48Z</time>
      </trkpt>
      <trkpt lat="50.14495" lon="4.405">
        <ele>265.6</ele>
        <time>2024-08-08T15:00:50Z</time>
      </trkpt>
      <trkpt lat="50.14506" lon="4.40555">
        <ele>264.8</ele>
        <time>2024-08-08T15:00:55Z</time>
      </trkpt>
      <trkpt lat="50.14526" lon="4.40634">
        <ele>264.4</ele>
        <time>2024-08-08T15:01:02Z</time>
      </trkpt>
      <trkpt lat="50.1454" lon="4.40698">
        <ele>264.2</ele>
        <time>2024-08-08T15:01:08Z</time>
      </trkpt>
      <trkpt lat="50.14546" lon="4.40719">
        <ele>264</ele>
        <time>2024-08-08T15:01:10Z</time>
      </trkpt>
      <trkpt lat="50.1455" lon="4.40742">
        <ele>264</ele>
        <time>2024-08-08T15:01:12Z</time>
      </trkpt>
      <trkpt lat="50.14563" lon="4.40792">
        <ele>264</ele>
        <time>2024-08-08T15:01:17Z</time>
      </trkpt>
      <trkpt lat="50.1457" lon="4.40832">
        <ele>264</ele>
        <time>2024-08-08T15:01:21Z</time>
      </trkpt>
      <trkpt lat="50.14572" lon="4.40842">
        <ele>263.8</ele>
        <time>2024-08-08T15:01:22Z</time>
      </trkpt>
      <trkpt lat="50.14584" lon="4.40896">
        <ele>263.8</ele>
        <time>2024-08-08T15:01:27Z</time>
      </trkpt>
      <trkpt lat="50.14587" lon="4.40906">
        <ele>263.8</ele>
        <time>2024-08-08T15:01:28Z</time>
      </trkpt>
      <trkpt lat="50.14594" lon="4.40936">
        <ele>263.8</ele>
        <time>2024-08-08T15:01:31Z</time>
      </trkpt>
      <trkpt lat="50.14601" lon="4.40967">
        <ele>263.8</ele>
        <time>2024-08-08T15:01:34Z</time>
      </trkpt>
      <trkpt lat="50.14607" lon="4.40987">
        <ele>263.6</ele>
        <time>2024-08-08T15:01:36Z</time>
      </trkpt>
      <trkpt lat="50.14621" lon="4.41052">
        <ele>263.4</ele>
        <time>2024-08-08T15:01:42Z</time>
      </trkpt>
      <trkpt lat="50.14635" lon="4.41103">
        <ele>263.4</ele>
        <time>2024-08-08T15:01:47Z</time>
      </trkpt>
      <trkpt lat="50.14646" lon="4.41149">
        <ele>263.2</ele>
        <time>2024-08-08T15:01:52Z</time>
      </trkpt>
      <trkpt lat="50.14655" lon="4.41187">
        <ele>263</ele>
        <time>2024-08-08T15:01:56Z</time>
      </trkpt>
      <trkpt lat="50.14666" lon="4.41234">
        <ele>262.6</ele>
        <time>2024-08-08T15:02:01Z</time>
      </trkpt>
      <trkpt lat="50.14678" lon="4.41288">
        <ele>262.8</ele>
        <time>2024-08-08T15:02:06Z</time>
      </trkpt>
      <trkpt lat="50.14687" lon="4.4133">
        <ele>263.6</ele>
        <time>2024-08-08T15:02:10Z</time>
      </trkpt>
      <trkpt lat="50.14691" lon="4.4135">
        <ele>263.8</ele>
        <time>2024-08-08T15:02:12Z</time>
      </trkpt>
      <trkpt lat="50.14696" lon="4.41369">
        <ele>264</ele>
        <time>2024-08-08T15:02:14Z</time>
      </trkpt>
      <trkpt lat="50.14704" lon="4.41406">
        <ele>264.4</ele>
        <time>2024-08-08T15:02:18Z</time>
      </trkpt>
      <trkpt lat="50.14715" lon="4.41456">
        <ele>264.6</ele>
        <time>2024-08-08T15:02:23Z</time>
      </trkpt>
      <trkpt lat="50.14732" lon="4.41527">
        <ele>264.8</ele>
        <time>2024-08-08T15:02:30Z</time>
      </trkpt>
      <trkpt lat="50.14744" lon="4.41587">
        <ele>265.2</ele>
        <time>2024-08-08T15:02:36Z</time>
      </trkpt>
      <trkpt lat="50.14758" lon="4.4165">
        <ele>265.6</ele>
        <time>2024-08-08T15:02:42Z</time>
      </trkpt>
      <trkpt lat="50.14761" lon="4.4166">
        <ele>265.6</ele>
        <time>2024-08-08T15:02:43Z</time>
      </trkpt>
      <trkpt lat="50.14771" lon="4.41703">
        <ele>265.8</ele>
        <time>2024-08-08T15:02:47Z</time>
      </trkpt>
      <trkpt lat="50.14783" lon="4.41762">
        <ele>266</ele>
        <time>2024-08-08T15:02:53Z</time>
      </trkpt>
      <trkpt lat="50.14791" lon="4.41799">
        <ele>266</ele>
        <time>2024-08-08T15:02:57Z</time>
      </trkpt>
      <trkpt lat="50.14793" lon="4.41808">
        <ele>265.8</ele>
        <time>2024-08-08T15:02:58Z</time>
      </trkpt>
      <trkpt lat="50.14805" lon="4.41861">
        <ele>265.8</ele>
        <time>2024-08-08T15:03:04Z</time>
      </trkpt>
      <trkpt lat="50.14815" lon="4.41906">
        <ele>265.4</ele>
        <time>2024-08-08T15:03:10Z</time>
      </trkpt>
      <trkpt lat="50.14819" lon="4.41928">
        <ele>265</ele>
        <time>2024-08-08T15:03:14Z</time>
      </trkpt>
      <trkpt lat="50.1482" lon="4.41933">
        <ele>264.8</ele>
        <time>2024-08-08T15:03:15Z</time>
      </trkpt>
      <trkpt lat="50.14822" lon="4.4194">
        <ele>264.6</ele>
        <time>2024-08-08T15:03:18Z</time>
      </trkpt>
      <trkpt lat="50.14823" lon="4.41941">
        <ele>264.2</ele>
        <time>2024-08-08T15:03:27Z</time>
      </trkpt>
      <trkpt lat="50.14824" lon="4.41944">
        <ele>264.2</ele>
        <time>2024-08-08T15:03:28Z</time>
      </trkpt>
      <trkpt lat="50.14826" lon="4.41958">
        <ele>264</ele>
        <time>2024-08-08T15:03:31Z</time>
      </trkpt>
      <trkpt lat="50.14829" lon="4.41976">
        <ele>263.8</ele>
        <time>2024-08-08T15:03:34Z</time>
      </trkpt>
      <trkpt lat="50.1483" lon="4.41983">
        <ele>263.6</ele>
        <time>2024-08-08T15:03:35Z</time>
      </trkpt>
      <trkpt lat="50.14839" lon="4.42016">
        <ele>262.8</ele>
        <time>2024-08-08T15:03:39Z</time>
      </trkpt>
      <trkpt lat="50.14847" lon="4.42052">
        <ele>261.8</ele>
        <time>2024-08-08T15:03:43Z</time>
      </trkpt>
      <trkpt lat="50.14856" lon="4.42083">
        <ele>261</ele>
        <time>2024-08-08T15:03:46Z</time>
      </trkpt>
      <trkpt lat="50.14858" lon="4.42095">
        <ele>260.8</ele>
        <time>2024-08-08T15:03:47Z</time>
      </trkpt>
      <trkpt lat="50.14874" lon="4.42166">
        <ele>260</ele>
        <time>2024-08-08T15:03:53Z</time>
      </trkpt>
      <trkpt lat="50.14887" lon="4.42219">
        <ele>259.6</ele>
        <time>2024-08-08T15:03:58Z</time>
      </trkpt>
      <trkpt lat="50.14897" lon="4.42272">
        <ele>259.4</ele>
        <time>2024-08-08T15:04:04Z</time>
      </trkpt>
      <trkpt lat="50.14901" lon="4.42297">
        <ele>259.2</ele>
        <time>2024-08-08T15:04:07Z</time>
      </trkpt>
      <trkpt lat="50.14905" lon="4.42313">
        <ele>259</ele>
        <time>2024-08-08T15:04:09Z</time>
      </trkpt>
      <trkpt lat="50.14916" lon="4.42354">
        <ele>258.6</ele>
        <time>2024-08-08T15:04:14Z</time>
      </trkpt>
      <trkpt lat="50.14918" lon="4.42364">
        <ele>258.6</ele>
        <time>2024-08-08T15:04:15Z</time>
      </trkpt>
      <trkpt lat="50.14929" lon="4.4242">
        <ele>258.2</ele>
        <time>2024-08-08T15:04:21Z</time>
      </trkpt>
      <trkpt lat="50.14933" lon="4.4244">
        <ele>258</ele>
        <time>2024-08-08T15:04:23Z</time>
      </trkpt>
      <trkpt lat="50.1494" lon="4.42471">
        <ele>257.8</ele>
        <time>2024-08-08T15:04:26Z</time>
      </trkpt>
      <trkpt lat="50.14951" lon="4.42521">
        <ele>257.8</ele>
        <time>2024-08-08T15:04:31Z</time>
      </trkpt>
      <trkpt lat="50.14956" lon="4.42551">
        <ele>257.6</ele>
        <time>2024-08-08T15:04:34Z</time>
      </trkpt>
      <trkpt lat="50.14959" lon="4.42559">
        <ele>257.4</ele>
        <time>2024-08-08T15:04:35Z</time>
      </trkpt>
      <trkpt lat="50.14978" lon="4.42597">
        <ele>256.8</ele>
        <time>2024-08-08T15:04:41Z</time>
      </trkpt>
      <trkpt lat="50.14981" lon="4.42604">
        <ele>256.8</ele>
        <time>2024-08-08T15:04:42Z</time>
      </trkpt>
      <trkpt lat="50.14986" lon="4.42617">
        <ele>256.6</ele>
        <time>2024-08-08T15:04:44Z</time>
      </trkpt>
      <trkpt lat="50.14988" lon="4.42626">
        <ele>256.4</ele>
        <time>2024-08-08T15:04:45Z</time>
      </trkpt>
      <trkpt lat="50.1499" lon="4.42635">
        <ele>256.2</ele>
        <time>2024-08-08T15:04:46Z</time>
      </trkpt>
      <trkpt lat="50.14991" lon="4.4267">
        <ele>255.6</ele>
        <time>2024-08-08T15:04:49Z</time>
      </trkpt>
      <trkpt lat="50.14993" lon="4.42679">
        <ele>255.4</ele>
        <time>2024-08-08T15:04:50Z</time>
      </trkpt>
      <trkpt lat="50.14994" lon="4.42689">
        <ele>255.2</ele>
        <time>2024-08-08T15:04:51Z</time>
      </trkpt>
      <trkpt lat="50.15" lon="4.42716">
        <ele>254.8</ele>
        <time>2024-08-08T15:04:55Z</time>
      </trkpt>
      <trkpt lat="50.15007" lon="4.42756">
        <ele>254.4</ele>
        <time>2024-08-08T15:05:01Z</time>
      </trkpt>
      <trkpt lat="50.15012" lon="4.42778">
        <ele>254.2</ele>
        <time>2024-08-08T15:05:05Z</time>
      </trkpt>
      <trkpt lat="50.15018" lon="4.42814">
        <ele>254</ele>
        <time>2024-08-08T15:05:11Z</time>
      </trkpt>
      <trkpt lat="50.15023" lon="4.42842">
        <ele>254</ele>
        <time>2024-08-08T15:05:16Z</time>
      </trkpt>
      <trkpt lat="50.15027" lon="4.4286">
        <ele>254.2</ele>
        <time>2024-08-08T15:05:19Z</time>
      </trkpt>
      <trkpt lat="50.15029" lon="4.42872">
        <ele>254.4</ele>
        <time>2024-08-08T15:05:21Z</time>
      </trkpt>
      <trkpt lat="50.15036" lon="4.42902">
        <ele>254.6</ele>
        <time>2024-08-08T15:05:26Z</time>
      </trkpt>
      <trkpt lat="50.15039" lon="4.4292">
        <ele>254.8</ele>
        <time>2024-08-08T15:05:29Z</time>
      </trkpt>
      <trkpt lat="50.15041" lon="4.42934">
        <ele>255</ele>
        <time>2024-08-08T15:05:31Z</time>
      </trkpt>
      <trkpt lat="50.1505" lon="4.42971">
        <ele>255.4</ele>
        <time>2024-08-08T15:05:37Z</time>
      </trkpt>
      <trkpt lat="50.15052" lon="4.42977">
        <ele>255.6</ele>
        <time>2024-08-08T15:05:38Z</time>
      </trkpt>
      <trkpt lat="50.15056" lon="4.42995">
        <ele>255.6</ele>
        <time>2024-08-08T15:05:41Z</time>
      </trkpt>
      <trkpt lat="50.15065" lon="4.43031">
        <ele>256.2</ele>
        <time>2024-08-08T15:05:47Z</time>
      </trkpt>
      <trkpt lat="50.15071" lon="4.43057">
        <ele>256.4</ele>
        <time>2024-08-08T15:05:51Z</time>
      </trkpt>
      <trkpt lat="50.15074" lon="4.43069">
        <ele>256.4</ele>
        <time>2024-08-08T15:05:53Z</time>
      </trkpt>
      <trkpt lat="50.15079" lon="4.43092">
        <ele>256.6</ele>
        <time>2024-08-08T15:05:57Z</time>
      </trkpt>
      <trkpt lat="50.15089" lon="4.43136">
        <ele>257</ele>
        <time>2024-08-08T15:06:04Z</time>
      </trkpt>
      <trkpt lat="50.15094" lon="4.43154">
        <ele>257.4</ele>
        <time>2024-08-08T15:06:07Z</time>
      </trkpt>
      <trkpt lat="50.15098" lon="4.43173">
        <ele>257.6</ele>
        <time>2024-08-08T15:06:10Z</time>
      </trkpt>
      <trkpt lat="50.15103" lon="4.43206">
        <ele>258.6</ele>
        <time>2024-08-08T15:06:16Z</time>
      </trkpt>
      <trkpt lat="50.15104" lon="4.43215">
        <ele>258.6</ele>
        <time>2024-08-08T15:06:18Z</time>
      </trkpt>
      <trkpt lat="50.15107" lon="4.43218">
        <ele>258.8</ele>
        <time>2024-08-08T15:06:20Z</time>
      </trkpt>
      <trkpt lat="50.15116" lon="4.43214">
        <ele>259.4</ele>
        <time>2024-08-08T15:06:25Z</time>
      </trkpt>
      <trkpt lat="50.15117" lon="4.43214">
        <ele>259.8</ele>
        <time>2024-08-08T15:06:30Z</time>
      </trkpt>
      <trkpt lat="50.15117" lon="4.43214">
        <ele>260.8</ele>
        <time>2024-08-08T15:06:40Z</time>
      </trkpt>
      <trkpt lat="50.15117" lon="4.43214">
        <ele>262.2</ele>
        <time>2024-08-08T15:07:01Z</time>
      </trkpt>
      <trkpt lat="50.15118" lon="4.43215">
        <ele>263.4</ele>
        <time>2024-08-08T15:07:20Z</time>
      </trkpt>
      <trkpt lat="50.15118" lon="4.43215">
        <ele>264</ele>
        <time>2024-08-08T15:07:35Z</time>
      </trkpt>
      <trkpt lat="50.15119" lon="4.43215">
        <ele>264.8</ele>
        <time>2024-08-08T15:07:53Z</time>
      </trkpt>
      <trkpt lat="50.15122" lon="4.43212">
        <ele>265.4</ele>
        <time>2024-08-08T15:08:01Z</time>
      </trkpt>
      <trkpt lat="50.15134" lon="4.43204">
        <ele>266.6</ele>
        <time>2024-08-08T15:08:07Z</time>
      </trkpt>
      <trkpt lat="50.15151" lon="4.43192">
        <ele>267.2</ele>
        <time>2024-08-08T15:08:12Z</time>
      </trkpt>
      <trkpt lat="50.15183" lon="4.43169">
        <ele>268.2</ele>
        <time>2024-08-08T15:08:19Z</time>
      </trkpt>
      <trkpt lat="50.15214" lon="4.43148">
        <ele>268.4</ele>
        <time>2024-08-08T15:08:24Z</time>
      </trkpt>
      <trkpt lat="50.15241" lon="4.43128">
        <ele>268.2</ele>
        <time>2024-08-08T15:08:28Z</time>
      </trkpt>
      <trkpt lat="50.15275" lon="4.43101">
        <ele>268.2</ele>
        <time>2024-08-08T15:08:33Z</time>
      </trkpt>
      <trkpt lat="50.15319" lon="4.43062">
        <ele>268.2</ele>
        <time>2024-08-08T15:08:39Z</time>
      </trkpt>
      <trkpt lat="50.1536" lon="4.43026">
        <ele>268.4</ele>
        <time>2024-08-08T15:08:44Z</time>
      </trkpt>
      <trkpt lat="50.15392" lon="4.42999">
        <ele>268.6</ele>
        <time>2024-08-08T15:08:48Z</time>
      </trkpt>
      <trkpt lat="50.1542" lon="4.42976">
        <ele>268.8</ele>
        <time>2024-08-08T15:08:52Z</time>
      </trkpt>
      <trkpt lat="50.15432" lon="4.42965">
        <ele>268.8</ele>
        <time>2024-08-08T15:08:54Z</time>
      </trkpt>
      <trkpt lat="50.15443" lon="4.42954">
        <ele>268.6</ele>
        <time>2024-08-08T15:08:56Z</time>
      </trkpt>
      <trkpt lat="50.15478" lon="4.42923">
        <ele>268.6</ele>
        <time>2024-08-08T15:09:02Z</time>
      </trkpt>
      <trkpt lat="50.15507" lon="4.42897">
        <ele>268.6</ele>
        <time>2024-08-08T15:09:07Z</time>
      </trkpt>
      <trkpt lat="50.15538" lon="4.42869">
        <ele>268.6</ele>
        <time>2024-08-08T15:09:12Z</time>
      </trkpt>
      <trkpt lat="50.15581" lon="4.42833">
        <ele>268.8</ele>
        <time>2024-08-08T15:09:18Z</time>
      </trkpt>
      <trkpt lat="50.15621" lon="4.42796">
        <ele>268.6</ele>
        <time>2024-08-08T15:09:23Z</time>
      </trkpt>
      <trkpt lat="50.15669" lon="4.42753">
        <ele>267.6</ele>
        <time>2024-08-08T15:09:29Z</time>
      </trkpt>
      <trkpt lat="50.15677" lon="4.42745">
        <ele>267.4</ele>
        <time>2024-08-08T15:09:30Z</time>
      </trkpt>
      <trkpt lat="50.15716" lon="4.42712">
        <ele>266.4</ele>
        <time>2024-08-08T15:09:35Z</time>
      </trkpt>
      <trkpt lat="50.15765" lon="4.42676">
        <ele>265.4</ele>
        <time>2024-08-08T15:09:41Z</time>
      </trkpt>
      <trkpt lat="50.1581" lon="4.42652">
        <ele>264.4</ele>
        <time>2024-08-08T15:09:46Z</time>
      </trkpt>
      <trkpt lat="50.15865" lon="4.42632">
        <ele>262.8</ele>
        <time>2024-08-08T15:09:52Z</time>
      </trkpt>
      <trkpt lat="50.1592" lon="4.42623">
        <ele>260.4</ele>
        <time>2024-08-08T15:09:58Z</time>
      </trkpt>
      <trkpt lat="50.15929" lon="4.42623">
        <ele>260</ele>
        <time>2024-08-08T15:09:59Z</time>
      </trkpt>
      <trkpt lat="50.15947" lon="4.42618">
        <ele>258.8</ele>
        <time>2024-08-08T15:10:01Z</time>
      </trkpt>
      <trkpt lat="50.15965" lon="4.42607">
        <ele>257.6</ele>
        <time>2024-08-08T15:10:03Z</time>
      </trkpt>
      <trkpt lat="50.15981" lon="4.42591">
        <ele>256.6</ele>
        <time>2024-08-08T15:10:05Z</time>
      </trkpt>
      <trkpt lat="50.15994" lon="4.4257">
        <ele>255.6</ele>
        <time>2024-08-08T15:10:07Z</time>
      </trkpt>
      <trkpt lat="50.16019" lon="4.42513">
        <ele>253.6</ele>
        <time>2024-08-08T15:10:12Z</time>
      </trkpt>
      <trkpt lat="50.16043" lon="4.42458">
        <ele>251.8</ele>
        <time>2024-08-08T15:10:17Z</time>
      </trkpt>
      <trkpt lat="50.1608" lon="4.42384">
        <ele>249.4</ele>
        <time>2024-08-08T15:10:24Z</time>
      </trkpt>
      <trkpt lat="50.16112" lon="4.42346">
        <ele>247.6</ele>
        <time>2024-08-08T15:10:29Z</time>
      </trkpt>
      <trkpt lat="50.16148" lon="4.42303">
        <ele>245.6</ele>
        <time>2024-08-08T15:10:35Z</time>
      </trkpt>
      <trkpt lat="50.16172" lon="4.42273">
        <ele>244.2</ele>
        <time>2024-08-08T15:10:40Z</time>
      </trkpt>
      <trkpt lat="50.16191" lon="4.42249">
        <ele>242.8</ele>
        <time>2024-08-08T15:10:45Z</time>
      </trkpt>
      <trkpt lat="50.16205" lon="4.42234">
        <ele>241.2</ele>
        <time>2024-08-08T15:10:50Z</time>
      </trkpt>
      <trkpt lat="50.1621" lon="4.42237">
        <ele>240.4</ele>
        <time>2024-08-08T15:10:54Z</time>
      </trkpt>
      <trkpt lat="50.16211" lon="4.42236">
        <ele>238.2</ele>
        <time>2024-08-08T15:11:03Z</time>
      </trkpt>
      <trkpt lat="50.16212" lon="4.42236">
        <ele>238</ele>
        <time>2024-08-08T15:11:04Z</time>
      </trkpt>
      <trkpt lat="50.16219" lon="4.42239">
        <ele>237.2</ele>
        <time>2024-08-08T15:11:08Z</time>
      </trkpt>
      <trkpt lat="50.16238" lon="4.42248">
        <ele>236.2</ele>
        <time>2024-08-08T15:11:13Z</time>
      </trkpt>
      <trkpt lat="50.16252" lon="4.42248">
        <ele>235.6</ele>
        <time>2024-08-08T15:11:16Z</time>
      </trkpt>
      <trkpt lat="50.16262" lon="4.42246">
        <ele>235.2</ele>
        <time>2024-08-08T15:11:18Z</time>
      </trkpt>
      <trkpt lat="50.16307" lon="4.42234">
        <ele>233.8</ele>
        <time>2024-08-08T15:11:26Z</time>
      </trkpt>
      <trkpt lat="50.16337" lon="4.42225">
        <ele>233.2</ele>
        <time>2024-08-08T15:11:32Z</time>
      </trkpt>
      <trkpt lat="50.16346" lon="4.42222">
        <ele>233</ele>
        <time>2024-08-08T15:11:34Z</time>
      </trkpt>
      <trkpt lat="50.16361" lon="4.42221">
        <ele>232.8</ele>
        <time>2024-08-08T15:11:37Z</time>
      </trkpt>
      <trkpt lat="50.1637" lon="4.42222">
        <ele>232.6</ele>
        <time>2024-08-08T15:11:39Z</time>
      </trkpt>
      <trkpt lat="50.16381" lon="4.42218">
        <ele>232.2</ele>
        <time>2024-08-08T15:11:42Z</time>
      </trkpt>
      <trkpt lat="50.16385" lon="4.42215">
        <ele>232.2</ele>
        <time>2024-08-08T15:11:43Z</time>
      </trkpt>
      <trkpt lat="50.16398" lon="4.42202">
        <ele>231.8</ele>
        <time>2024-08-08T15:11:46Z</time>
      </trkpt>
      <trkpt lat="50.16412" lon="4.42196">
        <ele>231.6</ele>
        <time>2024-08-08T15:11:48Z</time>
      </trkpt>
      <trkpt lat="50.16419" lon="4.42194">
        <ele>231.4</ele>
        <time>2024-08-08T15:11:49Z</time>
      </trkpt>
      <trkpt lat="50.16433" lon="4.42189">
        <ele>231</ele>
        <time>2024-08-08T15:11:51Z</time>
      </trkpt>
      <trkpt lat="50.16446" lon="4.42177">
        <ele>230.8</ele>
        <time>2024-08-08T15:11:53Z</time>
      </trkpt>
      <trkpt lat="50.16456" lon="4.4216">
        <ele>230.4</ele>
        <time>2024-08-08T15:11:55Z</time>
      </trkpt>
      <trkpt lat="50.16461" lon="4.42141">
        <ele>230.2</ele>
        <time>2024-08-08T15:11:57Z</time>
      </trkpt>
      <trkpt lat="50.16467" lon="4.42113">
        <ele>229.8</ele>
        <time>2024-08-08T15:12:00Z</time>
      </trkpt>
      <trkpt lat="50.16471" lon="4.42107">
        <ele>229.6</ele>
        <time>2024-08-08T15:12:01Z</time>
      </trkpt>
      <trkpt lat="50.16476" lon="4.42102">
        <ele>229.6</ele>
        <time>2024-08-08T15:12:02Z</time>
      </trkpt>
      <trkpt lat="50.16488" lon="4.42099">
        <ele>229.4</ele>
        <time>2024-08-08T15:12:04Z</time>
      </trkpt>
      <trkpt lat="50.16499" lon="4.421">
        <ele>229</ele>
        <time>2024-08-08T15:12:06Z</time>
      </trkpt>
      <trkpt lat="50.1651" lon="4.42096">
        <ele>229</ele>
        <time>2024-08-08T15:12:08Z</time>
      </trkpt>
      <trkpt lat="50.1654" lon="4.42067">
        <ele>228.2</ele>
        <time>2024-08-08T15:12:14Z</time>
      </trkpt>
      <trkpt lat="50.16564" lon="4.42042">
        <ele>227</ele>
        <time>2024-08-08T15:12:20Z</time>
      </trkpt>
      <trkpt lat="50.16572" lon="4.42033">
        <ele>226.2</ele>
        <time>2024-08-08T15:12:24Z</time>
      </trkpt>
      <trkpt lat="50.16572" lon="4.42021">
        <ele>225.4</ele>
        <time>2024-08-08T15:12:27Z</time>
      </trkpt>
      <trkpt lat="50.16573" lon="4.42015">
        <ele>225.2</ele>
        <time>2024-08-08T15:12:28Z</time>
      </trkpt>
      <trkpt lat="50.1658" lon="4.41983">
        <ele>224.2</ele>
        <time>2024-08-08T15:12:34Z</time>
      </trkpt>
      <trkpt lat="50.16583" lon="4.41969">
        <ele>223.6</ele>
        <time>2024-08-08T15:12:38Z</time>
      </trkpt>
      <trkpt lat="50.16583" lon="4.41968">
        <ele>222.6</ele>
        <time>2024-08-08T15:12:44Z</time>
      </trkpt>
      <trkpt lat="50.16584" lon="4.41964">
        <ele>221.2</ele>
        <time>2024-08-08T15:12:52Z</time>
      </trkpt>
      <trkpt lat="50.16584" lon="4.41964">
        <ele>219.6</ele>
        <time>2024-08-08T15:13:04Z</time>
      </trkpt>
      <trkpt lat="50.16584" lon="4.41964">
        <ele>218.8</ele>
        <time>2024-08-08T15:13:11Z</time>
      </trkpt>
      <trkpt lat="50.16585" lon="4.41958">
        <ele>218.6</ele>
        <time>2024-08-08T15:13:17Z</time>
      </trkpt>
      <trkpt lat="50.16584" lon="4.41955">
        <ele>218.4</ele>
        <time>2024-08-08T15:13:18Z</time>
      </trkpt>
      <trkpt lat="50.16584" lon="4.41949">
        <ele>218.2</ele>
        <time>2024-08-08T15:13:20Z</time>
      </trkpt>
      <trkpt lat="50.16582" lon="4.41945">
        <ele>218.2</ele>
        <time>2024-08-08T15:13:22Z</time>
      </trkpt>
      <trkpt lat="50.16574" lon="4.41936">
        <ele>218.2</ele>
        <time>2024-08-08T15:13:26Z</time>
      </trkpt>
      <trkpt lat="50.16571" lon="4.41931">
        <ele>218.4</ele>
        <time>2024-08-08T15:13:28Z</time>
      </trkpt>
      <trkpt lat="50.16571" lon="4.41924">
        <ele>217.8</ele>
        <time>2024-08-08T15:13:30Z</time>
      </trkpt>
      <trkpt lat="50.16579" lon="4.41911">
        <ele>219.2</ele>
        <time>2024-08-08T15:13:34Z</time>
      </trkpt>
      <trkpt lat="50.16588" lon="4.41899">
        <ele>219.6</ele>
        <time>2024-08-08T15:13:38Z</time>
      </trkpt>
      <trkpt lat="50.1659" lon="4.41893">
        <ele>219.6</ele>
        <time>2024-08-08T15:13:39Z</time>
      </trkpt>
      <trkpt lat="50.16594" lon="4.41871">
        <ele>219.6</ele>
        <time>2024-08-08T15:13:42Z</time>
      </trkpt>
      <trkpt lat="50.16598" lon="4.41849">
        <ele>219.8</ele>
        <time>2024-08-08T15:13:45Z</time>
      </trkpt>
      <trkpt lat="50.16603" lon="4.41823">
        <ele>219.6</ele>
        <time>2024-08-08T15:13:49Z</time>
      </trkpt>
      <trkpt lat="50.16604" lon="4.41815">
        <ele>219.8</ele>
        <time>2024-08-08T15:13:53Z</time>
      </trkpt>
      <trkpt lat="50.16604" lon="4.41815">
        <ele>220.4</ele>
        <time>2024-08-08T15:14:10Z</time>
      </trkpt>
      <trkpt lat="50.16606" lon="4.41807">
        <ele>220.6</ele>
        <time>2024-08-08T15:14:18Z</time>
      </trkpt>
      <trkpt lat="50.16611" lon="4.41777">
        <ele>220.6</ele>
        <time>2024-08-08T15:14:24Z</time>
      </trkpt>
      <trkpt lat="50.16622" lon="4.41728">
        <ele>220.6</ele>
        <time>2024-08-08T15:14:32Z</time>
      </trkpt>
      <trkpt lat="50.16632" lon="4.41675">
        <ele>220.8</ele>
        <time>2024-08-08T15:14:40Z</time>
      </trkpt>
      <trkpt lat="50.16642" lon="4.41633">
        <ele>220.4</ele>
        <time>2024-08-08T15:14:46Z</time>
      </trkpt>
      <trkpt lat="50.16654" lon="4.41607">
        <ele>220.4</ele>
        <time>2024-08-08T15:14:50Z</time>
      </trkpt>
      <trkpt lat="50.16665" lon="4.41589">
        <ele>220.8</ele>
        <time>2024-08-08T15:14:53Z</time>
      </trkpt>
      <trkpt lat="50.16692" lon="4.41539">
        <ele>220.8</ele>
        <time>2024-08-08T15:15:01Z</time>
      </trkpt>
      <trkpt lat="50.16707" lon="4.41512">
        <ele>220.8</ele>
        <time>2024-08-08T15:15:06Z</time>
      </trkpt>
      <trkpt lat="50.16714" lon="4.415">
        <ele>220.6</ele>
        <time>2024-08-08T15:15:08Z</time>
      </trkpt>
      <trkpt lat="50.16726" lon="4.41478">
        <ele>220.4</ele>
        <time>2024-08-08T15:15:11Z</time>
      </trkpt>
      <trkpt lat="50.16732" lon="4.4146">
        <ele>220.2</ele>
        <time>2024-08-08T15:15:13Z</time>
      </trkpt>
      <trkpt lat="50.16745" lon="4.41403">
        <ele>219.8</ele>
        <time>2024-08-08T15:15:19Z</time>
      </trkpt>
      <trkpt lat="50.16752" lon="4.41386">
        <ele>219.4</ele>
        <time>2024-08-08T15:15:21Z</time>
      </trkpt>
      <trkpt lat="50.16757" lon="4.41378">
        <ele>219.4</ele>
        <time>2024-08-08T15:15:22Z</time>
      </trkpt>
      <trkpt lat="50.16789" lon="4.41325">
        <ele>218.6</ele>
        <time>2024-08-08T15:15:29Z</time>
      </trkpt>
      <trkpt lat="50.16794" lon="4.41309">
        <ele>218.4</ele>
        <time>2024-08-08T15:15:31Z</time>
      </trkpt>
      <trkpt lat="50.16801" lon="4.41297">
        <ele>218.4</ele>
        <time>2024-08-08T15:15:33Z</time>
      </trkpt>
      <trkpt lat="50.16834" lon="4.41248">
        <ele>217.8</ele>
        <time>2024-08-08T15:15:41Z</time>
      </trkpt>
      <trkpt lat="50.16842" lon="4.41236">
        <ele>217.6</ele>
        <time>2024-08-08T15:15:43Z</time>
      </trkpt>
      <trkpt lat="50.16846" lon="4.41222">
        <ele>217.4</ele>
        <time>2024-08-08T15:15:45Z</time>
      </trkpt>
      <trkpt lat="50.16848" lon="4.41217">
        <ele>217.4</ele>
        <time>2024-08-08T15:15:46Z</time>
      </trkpt>
      <trkpt lat="50.16855" lon="4.41213">
        <ele>217.2</ele>
        <time>2024-08-08T15:15:48Z</time>
      </trkpt>
      <trkpt lat="50.16872" lon="4.41216">
        <ele>216.8</ele>
        <time>2024-08-08T15:15:52Z</time>
      </trkpt>
      <trkpt lat="50.16877" lon="4.41218">
        <ele>216.6</ele>
        <time>2024-08-08T15:15:53Z</time>
      </trkpt>
      <trkpt lat="50.16882" lon="4.4122">
        <ele>216.6</ele>
        <time>2024-08-08T15:15:54Z</time>
      </trkpt>
      <trkpt lat="50.16889" lon="4.41229">
        <ele>216.4</ele>
        <time>2024-08-08T15:15:56Z</time>
      </trkpt>
      <trkpt lat="50.16897" lon="4.4125">
        <ele>216.2</ele>
        <time>2024-08-08T15:16:00Z</time>
      </trkpt>
      <trkpt lat="50.16908" lon="4.41262">
        <ele>216.2</ele>
        <time>2024-08-08T15:16:04Z</time>
      </trkpt>
      <trkpt lat="50.16926" lon="4.41262">
        <ele>215.8</ele>
        <time>2024-08-08T15:16:09Z</time>
      </trkpt>
      <trkpt lat="50.16942" lon="4.41259">
        <ele>215.4</ele>
        <time>2024-08-08T15:16:14Z</time>
      </trkpt>
      <trkpt lat="50.16963" lon="4.41256">
        <ele>215</ele>
        <time>2024-08-08T15:16:21Z</time>
      </trkpt>
      <trkpt lat="50.16988" lon="4.41253">
        <ele>214.8</ele>
        <time>2024-08-08T15:16:29Z</time>
      </trkpt>
      <trkpt lat="50.17004" lon="4.41247">
        <ele>214.8</ele>
        <time>2024-08-08T15:16:36Z</time>
      </trkpt>
      <trkpt lat="50.17011" lon="4.41242">
        <ele>214.6</ele>
        <time>2024-08-08T15:16:42Z</time>
      </trkpt>
      <trkpt lat="50.17011" lon="4.41242">
        <ele>214.4</ele>
        <time>2024-08-08T15:16:53Z</time>
      </trkpt>
      <trkpt lat="50.17011" lon="4.41242">
        <ele>214.4</ele>
        <time>2024-08-08T15:16:59Z</time>
      </trkpt>
      <trkpt lat="50.17011" lon="4.41242">
        <ele>214.2</ele>
        <time>2024-08-08T15:17:20Z</time>
      </trkpt>
      <trkpt lat="50.17011" lon="4.41242">
        <ele>214.2</ele>
        <time>2024-08-08T15:17:34Z</time>
      </trkpt>
      <trkpt lat="50.17011" lon="4.41242">
        <ele>214.2</ele>
        <time>2024-08-08T15:17:45Z</time>
      </trkpt>
      <trkpt lat="50.17011" lon="4.41242">
        <ele>214.2</ele>
        <time>2024-08-08T15:17:53Z</time>
      </trkpt>
    </trkseg>
  </trk>
</gpx>